Time,TemperatureF,DewpointF,PressureIn,WindDirection,WindDirectionDegrees,WindSpeedMPH,WindSpeedGustMPH,Humidity,HourlyPrecipIn,Conditions,Clouds,dailyrainin,SoftwareType,DateUTC
2013-08-26 00:01:00,87.3,66.4,30.07,ESE,104,0.0,2.0,50,0.00,,---,0.00,VWS V14.01,2013-08-26 05:01:00,
2013-08-26 00:02:00,87.3,67.0,30.07,ESE,109,0.0,0.0,51,0.00,,---,0.00,VWS V14.01,2013-08-26 05:02:00,
2013-08-26 00:03:00,87.3,66.4,30.07,ESE,110,0.0,3.0,50,0.00,,---,0.00,VWS V14.01,2013-08-26 05:03:00,
2013-08-26 00:04:00,87.3,66.4,30.07,ESE,110,0.0,3.0,50,0.00,,---,0.00,VWS V14.01,2013-08-26 05:04:00,
2013-08-26 00:05:00,87.3,66.4,30.07,ESE,109,0.0,3.0,50,0.00,,---,0.00,VWS V14.01,2013-08-26 05:05:00,
2013-08-26 00:06:00,87.3,66.4,30.07,ESE,109,0.0,3.0,50,0.00,,---,0.00,VWS V14.01,2013-08-26 05:06:00,
2013-08-26 00:07:00,87.2,66.9,30.07,ESE,116,0.0,4.0,51,0.00,,---,0.00,VWS V14.01,2013-08-26 05:07:00,
2013-08-26 00:08:00,87.3,67.0,30.07,ESE,110,0.0,0.0,51,0.00,,---,0.00,VWS V14.01,2013-08-26 05:08:00,
2013-08-26 00:09:00,87.2,66.9,30.07,ESE,116,1.0,4.0,51,0.00,,---,0.00,VWS V14.01,2013-08-26 05:09:00,
2013-08-26 00:10:00,87.2,66.9,30.07,ESE,116,0.0,4.0,51,0.00,,---,0.00,VWS V14.01,2013-08-26 05:10:00,
2013-08-26 00:11:00,87.2,66.9,30.07,ESE,116,0.0,4.0,51,0.00,,---,0.00,VWS V14.01,2013-08-26 05:11:00,
2013-08-26 00:12:00,87.0,66.7,30.07,ESE,116,0.0,1.0,51,0.00,,---,0.00,VWS V14.01,2013-08-26 05:12:00,
2013-08-26 00:13:00,87.2,66.9,30.07,ESE,116,0.0,4.0,51,0.00,,---,0.00,VWS V14.01,2013-08-26 05:13:00,
2013-08-26 00:14:00,87.2,66.9,30.07,ESE,117,0.0,4.0,51,0.00,,---,0.00,VWS V14.01,2013-08-26 05:14:00,
2013-08-26 00:15:00,87.1,66.8,30.07,ESE,115,0.0,0.0,51,0.00,,---,0.00,VWS V14.01,2013-08-26 05:15:00,
2013-08-26 00:16:00,87.1,66.8,30.07,ESE,116,0.0,1.0,51,0.00,,---,0.00,VWS V14.01,2013-08-26 05:16:00,
2013-08-26 00:17:00,87.0,66.7,30.07,ESE,119,0.0,2.0,51,0.00,,---,0.00,VWS V14.01,2013-08-26 05:17:00,
2013-08-26 00:18:00,87.0,66.7,30.07,ESE,116,0.0,1.0,51,0.00,,---,0.00,VWS V14.01,2013-08-26 05:18:00,
2013-08-26 00:20:00,87.0,66.7,30.07,ESE,116,0.0,1.0,51,0.00,,---,0.00,VWS V14.01,2013-08-26 05:20:00,
2013-08-26 00:21:00,87.0,66.7,30.07,ESE,116,0.0,0.0,51,0.00,,---,0.00,VWS V14.01,2013-08-26 05:21:00,
2013-08-26 00:22:00,86.8,66.5,30.07,ESE,116,0.0,7.0,51,0.00,,---,0.00,VWS V14.01,2013-08-26 05:22:00,
2013-08-26 00:23:00,86.9,66.6,30.07,ESE,119,0.0,2.0,51,0.00,,---,0.00,VWS V14.01,2013-08-26 05:23:00,
2013-08-26 00:24:00,86.9,66.6,30.07,ESE,118,0.0,2.0,51,0.00,,---,0.00,VWS V14.01,2013-08-26 05:24:00,
2013-08-26 00:25:00,86.9,66.6,30.07,ESE,119,0.0,2.0,51,0.00,,---,0.00,VWS V14.01,2013-08-26 05:25:00,
2013-08-26 00:26:00,86.9,66.6,30.07,ESE,119,0.0,2.0,51,0.00,,---,0.00,VWS V14.01,2013-08-26 05:26:00,
2013-08-26 00:27:00,86.7,67.0,30.07,ESE,115,0.0,1.0,52,0.00,,---,0.00,VWS V14.01,2013-08-26 05:27:00,
2013-08-26 00:28:00,86.8,66.5,30.07,ESE,116,0.0,7.0,51,0.00,,---,0.00,VWS V14.01,2013-08-26 05:28:00,
2013-08-26 00:29:00,86.8,67.1,30.07,ESE,116,0.0,7.0,52,0.00,,---,0.00,VWS V14.01,2013-08-26 05:29:00,
2013-08-26 00:30:00,86.8,66.5,30.07,ESE,116,0.0,7.0,51,0.00,,---,0.00,VWS V14.01,2013-08-26 05:30:00,
2013-08-26 00:31:00,86.8,67.1,30.07,ESE,115,0.0,7.0,52,0.00,,---,0.00,VWS V14.01,2013-08-26 05:31:00,
2013-08-26 00:32:00,86.6,66.9,30.07,SE,130,0.0,6.0,52,0.00,,---,0.00,VWS V14.01,2013-08-26 05:32:00,
2013-08-26 00:33:00,86.8,67.1,30.07,ESE,115,0.0,1.0,52,0.00,,---,0.00,VWS V14.01,2013-08-26 05:33:00,
2013-08-26 00:34:00,86.7,67.0,30.07,SE,128,0.0,3.0,52,0.00,,---,0.00,VWS V14.01,2013-08-26 05:34:00,
2013-08-26 00:35:00,86.7,67.0,30.07,SE,129,1.0,3.0,52,0.00,,---,0.00,VWS V14.01,2013-08-26 05:35:00,
2013-08-26 00:36:00,86.6,66.9,30.07,South,173,0.0,6.0,52,0.00,,---,0.00,VWS V14.01,2013-08-26 05:36:00,
2013-08-26 00:37:00,86.5,66.8,30.07,SE,128,2.0,3.0,52,0.00,,---,0.00,VWS V14.01,2013-08-26 05:37:00,
2013-08-26 00:38:00,86.6,66.9,30.07,SE,130,0.0,6.0,52,0.00,,---,0.00,VWS V14.01,2013-08-26 05:38:00,
2013-08-26 00:39:00,86.6,66.9,30.07,SE,130,0.0,6.0,52,0.00,,---,0.00,VWS V14.01,2013-08-26 05:39:00,
2013-08-26 00:40:00,86.6,66.9,30.07,SE,130,0.0,6.0,52,0.00,,---,0.00,VWS V14.01,2013-08-26 05:40:00,
2013-08-26 00:41:00,86.6,66.9,30.07,SE,134,0.0,3.0,52,0.00,,---,0.00,VWS V14.01,2013-08-26 05:41:00,
2013-08-26 00:42:00,86.4,66.7,30.07,ESE,112,0.0,2.0,52,0.00,,---,0.00,VWS V14.01,2013-08-26 05:42:00,
2013-08-26 00:43:00,86.5,66.8,30.07,SE,128,2.0,3.0,52,0.00,,---,0.00,VWS V14.01,2013-08-26 05:43:00,
2013-08-26 00:44:00,86.5,66.8,30.07,SE,130,1.0,3.0,52,0.00,,---,0.00,VWS V14.01,2013-08-26 05:44:00,
2013-08-26 00:45:00,86.5,66.8,30.07,SE,130,0.0,3.0,52,0.00,,---,0.00,VWS V14.01,2013-08-26 05:45:00,
2013-08-26 00:46:00,86.4,66.7,30.07,ESE,111,0.0,2.0,52,0.00,,---,0.00,VWS V14.01,2013-08-26 05:46:00,
2013-08-26 00:47:00,86.3,67.2,30.07,ESE,109,0.0,1.0,53,0.00,,---,0.00,VWS V14.01,2013-08-26 05:47:00,
2013-08-26 00:49:00,86.4,66.7,30.07,ESE,111,0.0,1.0,52,0.00,,---,0.00,VWS V14.01,2013-08-26 05:49:00,
2013-08-26 00:51:00,86.3,67.2,30.07,ESE,109,0.0,1.0,53,0.00,,---,0.00,VWS V14.01,2013-08-26 05:51:00,
2013-08-26 00:52:00,86.2,67.1,30.07,ESE,109,0.0,1.0,53,0.00,,---,0.00,VWS V14.01,2013-08-26 05:52:00,
2013-08-26 00:54:00,86.3,67.2,30.07,ESE,109,0.0,1.0,53,0.00,,---,0.00,VWS V14.01,2013-08-26 05:54:00,
2013-08-26 00:55:00,86.3,67.2,30.07,ESE,109,0.0,0.0,53,0.00,,---,0.00,VWS V14.01,2013-08-26 05:55:00,
2013-08-26 00:57:00,86.1,67.0,30.07,ESE,117,0.0,1.0,53,0.00,,---,0.00,VWS V14.01,2013-08-26 05:57:00,
2013-08-26 00:58:00,86.2,67.1,30.07,ESE,109,0.0,1.0,53,0.00,,---,0.00,VWS V14.01,2013-08-26 05:58:00,
2013-08-26 00:59:00,86.1,67.0,30.07,ESE,110,0.0,1.0,53,0.00,,---,0.00,VWS V14.01,2013-08-26 05:59:00,
2013-08-26 01:00:00,86.1,67.0,30.07,ESE,110,0.0,1.0,53,0.00,,---,0.00,VWS V14.01,2013-08-26 06:00:00,
2013-08-26 01:01:00,86.1,67.0,30.07,ESE,112,0.0,1.0,53,0.00,,---,0.00,VWS V14.01,2013-08-26 06:01:00,
2013-08-26 01:02:00,86.0,67.4,30.07,ESE,117,1.0,2.0,54,0.00,,---,0.00,VWS V14.01,2013-08-26 06:02:00,
2013-08-26 01:04:00,86.0,66.9,30.07,ESE,117,0.0,1.0,53,0.00,,---,0.00,VWS V14.01,2013-08-26 06:04:00,
2013-08-26 01:05:00,86.0,66.9,30.07,ESE,117,0.0,1.0,53,0.00,,---,0.00,VWS V14.01,2013-08-26 06:05:00,
2013-08-26 01:06:00,86.0,66.9,30.07,ESE,117,0.0,1.0,53,0.00,,---,0.00,VWS V14.01,2013-08-26 06:06:00,
2013-08-26 01:07:00,85.9,67.3,30.07,SE,136,0.0,4.0,54,0.00,,---,0.00,VWS V14.01,2013-08-26 06:07:00,
2013-08-26 01:08:00,86.0,67.4,30.07,ESE,117,1.0,2.0,54,0.00,,---,0.00,VWS V14.01,2013-08-26 06:08:00,
2013-08-26 01:09:00,85.9,67.3,30.07,ESE,117,0.0,2.0,54,0.00,,---,0.00,VWS V14.01,2013-08-26 06:09:00,
2013-08-26 01:10:00,85.9,67.3,30.07,ESE,118,0.0,2.0,54,0.00,,---,0.00,VWS V14.01,2013-08-26 06:10:00,
2013-08-26 01:11:00,85.9,67.3,30.07,ESE,119,0.0,2.0,54,0.00,,---,0.00,VWS V14.01,2013-08-26 06:11:00,
2013-08-26 01:12:00,85.8,67.2,30.07,SSE,154,0.0,5.0,54,0.00,,---,0.00,VWS V14.01,2013-08-26 06:12:00,
2013-08-26 01:13:00,85.9,67.3,30.07,SE,136,0.0,4.0,54,0.00,,---,0.00,VWS V14.01,2013-08-26 06:13:00,
2013-08-26 01:14:00,85.9,67.3,30.07,SE,137,0.0,4.0,54,0.00,,---,0.00,VWS V14.01,2013-08-26 06:14:00,
2013-08-26 01:16:00,85.8,67.2,30.07,SE,142,4.0,5.0,54,0.00,,---,0.00,VWS V14.01,2013-08-26 06:16:00,
2013-08-26 01:17:00,85.7,67.2,30.07,SSE,157,0.0,4.0,54,0.00,,---,0.00,VWS V14.01,2013-08-26 06:17:00,
2013-08-26 01:18:00,85.8,67.2,30.07,SSE,154,0.0,5.0,54,0.00,,---,0.00,VWS V14.01,2013-08-26 06:18:00,
2013-08-26 01:19:00,85.8,67.2,30.07,SSE,154,0.0,5.0,54,0.00,,---,0.00,VWS V14.01,2013-08-26 06:19:00,
2013-08-26 01:20:00,85.8,67.2,30.07,SSE,158,4.0,5.0,54,0.00,,---,0.00,VWS V14.01,2013-08-26 06:20:00,
2013-08-26 01:22:00,85.6,67.6,30.07,SSE,166,3.0,10.0,55,0.00,,---,0.00,VWS V14.01,2013-08-26 06:22:00,
2013-08-26 01:23:00,85.7,67.2,30.07,SSE,157,0.0,4.0,54,0.00,,---,0.00,VWS V14.01,2013-08-26 06:23:00,
2013-08-26 01:24:00,85.7,67.2,30.07,SSE,157,0.0,4.0,54,0.00,,---,0.00,VWS V14.01,2013-08-26 06:24:00,
2013-08-26 01:25:00,85.7,67.2,30.07,SE,145,0.0,4.0,54,0.00,,---,0.00,VWS V14.01,2013-08-26 06:25:00,
2013-08-26 01:26:00,85.7,67.7,30.07,SSE,148,2.0,4.0,55,0.00,,---,0.00,VWS V14.01,2013-08-26 06:26:00,
2013-08-26 01:27:00,85.6,68.1,30.07,SSE,159,3.0,6.0,56,0.00,,---,0.00,VWS V14.01,2013-08-26 06:27:00,
2013-08-26 01:28:00,85.7,67.7,30.07,SSE,165,5.0,10.0,55,0.00,,---,0.00,VWS V14.01,2013-08-26 06:28:00,
2013-08-26 01:29:00,85.6,67.6,30.07,SSE,166,0.0,10.0,55,0.00,,---,0.00,VWS V14.01,2013-08-26 06:29:00,
2013-08-26 01:30:00,85.6,67.6,30.07,South,169,0.0,10.0,55,0.00,,---,0.00,VWS V14.01,2013-08-26 06:30:00,
2013-08-26 01:31:00,85.6,68.1,30.07,SSE,162,0.0,10.0,56,0.00,,---,0.00,VWS V14.01,2013-08-26 06:31:00,
2013-08-26 01:32:00,85.5,68.5,30.07,SSE,167,1.0,7.0,57,0.00,,---,0.00,VWS V14.01,2013-08-26 06:32:00,
2013-08-26 01:33:00,85.6,68.1,30.08,SSE,159,4.0,6.0,56,0.00,,---,0.00,VWS V14.01,2013-08-26 06:33:00,
2013-08-26 01:35:00,85.5,68.5,30.07,SSE,148,4.0,6.0,57,0.00,,---,0.00,VWS V14.01,2013-08-26 06:35:00,
2013-08-26 01:36:00,85.5,68.5,30.07,SSE,148,0.0,6.0,57,0.00,,---,0.00,VWS V14.01,2013-08-26 06:36:00,
2013-08-26 01:37:00,85.3,68.9,30.07,South,182,6.0,6.0,58,0.00,,---,0.00,VWS V14.01,2013-08-26 06:37:00,
2013-08-26 01:38:00,85.5,68.5,30.07,SSE,167,0.0,7.0,57,0.00,,---,0.00,VWS V14.01,2013-08-26 06:38:00,
2013-08-26 01:39:00,85.4,68.4,30.07,SSE,156,0.0,7.0,57,0.00,,---,0.00,VWS V14.01,2013-08-26 06:39:00,
2013-08-26 01:40:00,85.4,68.4,30.08,SSE,155,1.0,7.0,57,0.00,,---,0.00,VWS V14.01,2013-08-26 06:40:00,
2013-08-26 01:41:00,85.4,68.4,30.07,SSE,155,0.0,7.0,57,0.00,,---,0.00,VWS V14.01,2013-08-26 06:41:00,
2013-08-26 01:42:00,85.1,68.7,30.07,SE,145,2.0,8.0,58,0.00,,---,0.00,VWS V14.01,2013-08-26 06:42:00,
2013-08-26 01:44:00,85.3,68.9,30.07,South,170,3.0,8.0,58,0.00,,---,0.00,VWS V14.01,2013-08-26 06:44:00,
2013-08-26 01:45:00,85.3,68.9,30.07,SSE,168,1.0,8.0,58,0.00,,---,0.00,VWS V14.01,2013-08-26 06:45:00,
2013-08-26 01:46:00,85.2,68.8,30.07,SSE,168,0.0,8.0,58,0.00,,---,0.00,VWS V14.01,2013-08-26 06:46:00,
2013-08-26 01:48:00,85.2,68.8,30.07,SE,140,4.0,8.0,58,0.00,,---,0.00,VWS V14.01,2013-08-26 06:48:00,
2013-08-26 01:49:00,85.1,68.7,30.07,SE,146,0.0,5.0,58,0.00,,---,0.00,VWS V14.01,2013-08-26 06:49:00,
2013-08-26 01:50:00,85.1,68.7,30.07,SE,145,4.0,5.0,58,0.00,,---,0.00,VWS V14.01,2013-08-26 06:50:00,
2013-08-26 01:51:00,84.8,68.9,30.07,SSE,155,0.0,4.0,59,0.00,,---,0.00,VWS V14.01,2013-08-26 06:51:00,
2013-08-26 01:54:00,84.9,68.5,30.07,SSE,155,3.0,5.0,58,0.00,,---,0.00,VWS V14.01,2013-08-26 06:54:00,
2013-08-26 01:55:00,84.9,68.5,30.07,SSE,155,0.0,5.0,58,0.00,,---,0.00,VWS V14.01,2013-08-26 06:55:00,
2013-08-26 01:56:00,84.6,68.7,30.07,SSE,156,0.0,5.0,59,0.00,,---,0.00,VWS V14.01,2013-08-26 06:56:00,
2013-08-26 01:57:00,84.8,68.9,30.07,SSE,155,0.0,4.0,59,0.00,,---,0.00,VWS V14.01,2013-08-26 06:57:00,
2013-08-26 01:58:00,84.8,68.9,30.07,SSE,153,1.0,5.0,59,0.00,,---,0.00,VWS V14.01,2013-08-26 06:58:00,
2013-08-26 01:59:00,84.8,68.9,30.07,SSE,153,1.0,5.0,59,0.00,,---,0.00,VWS V14.01,2013-08-26 06:59:00,
2013-08-26 02:00:00,84.7,68.8,30.07,SSE,154,1.0,5.0,59,0.00,,---,0.00,VWS V14.01,2013-08-26 07:00:00,
2013-08-26 02:01:00,84.5,69.1,30.07,SE,144,0.0,5.0,60,0.00,,---,0.00,VWS V14.01,2013-08-26 07:01:00,
2013-08-26 02:02:00,84.7,68.8,30.07,SSE,156,0.0,5.0,59,0.00,,---,0.00,VWS V14.01,2013-08-26 07:02:00,
2013-08-26 02:03:00,84.6,68.7,30.07,SSE,156,0.0,5.0,59,0.00,,---,0.00,VWS V14.01,2013-08-26 07:03:00,
2013-08-26 02:04:00,84.6,68.7,30.07,SSE,157,0.0,5.0,59,0.00,,---,0.00,VWS V14.01,2013-08-26 07:04:00,
2013-08-26 02:05:00,84.6,68.7,30.07,SSE,157,2.0,5.0,59,0.00,,---,0.00,VWS V14.01,2013-08-26 07:05:00,
2013-08-26 02:06:00,84.3,68.9,30.07,SSE,155,0.0,6.0,60,0.00,,---,0.00,VWS V14.01,2013-08-26 07:06:00,
2013-08-26 02:07:00,84.5,69.1,30.07,SE,144,1.0,5.0,60,0.00,,---,0.00,VWS V14.01,2013-08-26 07:07:00,
2013-08-26 02:08:00,84.4,69.0,30.07,SE,134,2.0,5.0,60,0.00,,---,0.00,VWS V14.01,2013-08-26 07:08:00,
2013-08-26 02:09:00,84.4,69.0,30.07,SE,135,0.0,5.0,60,0.00,,---,0.00,VWS V14.01,2013-08-26 07:09:00,
2013-08-26 02:10:00,84.3,68.9,30.07,SE,144,0.0,5.0,60,0.00,,---,0.00,VWS V14.01,2013-08-26 07:10:00,
2013-08-26 02:11:00,84.1,69.2,30.07,SSE,153,0.0,3.0,61,0.00,,---,0.00,VWS V14.01,2013-08-26 07:11:00,
2013-08-26 02:12:00,84.3,68.9,30.07,SSE,155,0.0,6.0,60,0.00,,---,0.00,VWS V14.01,2013-08-26 07:12:00,
2013-08-26 02:13:00,84.3,68.9,30.07,SSE,155,0.0,6.0,60,0.00,,---,0.00,VWS V14.01,2013-08-26 07:13:00,
2013-08-26 02:14:00,84.2,68.8,30.07,SSE,152,0.0,6.0,60,0.00,,---,0.00,VWS V14.01,2013-08-26 07:14:00,
2013-08-26 02:15:00,84.2,69.3,30.07,SSE,151,1.0,6.0,61,0.00,,---,0.00,VWS V14.01,2013-08-26 07:15:00,
2013-08-26 02:16:00,84.0,69.1,30.06,SSE,152,0.0,4.0,61,0.00,,---,0.00,VWS V14.01,2013-08-26 07:16:00,
2013-08-26 02:17:00,84.1,69.2,30.07,SSE,153,2.0,3.0,61,0.00,,---,0.00,VWS V14.01,2013-08-26 07:17:00,
2013-08-26 02:18:00,84.1,69.2,30.07,SSE,153,1.0,4.0,61,0.00,,---,0.00,VWS V14.01,2013-08-26 07:18:00,
2013-08-26 02:19:00,84.0,69.1,30.07,SSE,153,0.0,4.0,61,0.00,,---,0.00,VWS V14.01,2013-08-26 07:19:00,
2013-08-26 02:20:00,84.0,69.1,30.07,SSE,153,0.0,4.0,61,0.00,,---,0.00,VWS V14.01,2013-08-26 07:20:00,
2013-08-26 02:21:00,83.8,69.4,30.07,SSE,153,0.0,4.0,62,0.00,,---,0.00,VWS V14.01,2013-08-26 07:21:00,
2013-08-26 02:22:00,84.0,69.1,30.07,SSE,152,0.0,4.0,61,0.00,,---,0.00,VWS V14.01,2013-08-26 07:22:00,
2013-08-26 02:23:00,83.9,69.0,30.06,SSE,152,0.0,1.0,61,0.00,,---,0.00,VWS V14.01,2013-08-26 07:23:00,
2013-08-26 02:24:00,83.9,69.0,30.07,SSE,155,0.0,3.0,61,0.00,,---,0.00,VWS V14.01,2013-08-26 07:24:00,
2013-08-26 02:25:00,83.9,69.0,30.07,SSE,154,3.0,3.0,61,0.00,,---,0.00,VWS V14.01,2013-08-26 07:25:00,
2013-08-26 02:26:00,83.6,69.2,30.07,SSE,153,0.0,2.0,62,0.00,,---,0.00,VWS V14.01,2013-08-26 07:26:00,
2013-08-26 02:27:00,83.8,69.4,30.07,SSE,153,1.0,4.0,62,0.00,,---,0.00,VWS V14.01,2013-08-26 07:27:00,
2013-08-26 02:28:00,83.8,69.4,30.07,SSE,153,0.0,4.0,62,0.00,,---,0.00,VWS V14.01,2013-08-26 07:28:00,
2013-08-26 02:29:00,83.7,69.3,30.07,SSE,153,0.0,4.0,62,0.00,,---,0.00,VWS V14.01,2013-08-26 07:29:00,
2013-08-26 02:30:00,83.7,69.3,30.07,SSE,153,1.0,4.0,62,0.00,,---,0.00,VWS V14.01,2013-08-26 07:30:00,
2013-08-26 02:31:00,83.5,69.1,30.07,SSE,147,1.0,4.0,62,0.00,,---,0.00,VWS V14.01,2013-08-26 07:31:00,
2013-08-26 02:32:00,83.6,69.2,30.07,SSE,153,0.0,2.0,62,0.00,,---,0.00,VWS V14.01,2013-08-26 07:32:00,
2013-08-26 02:33:00,83.6,69.2,30.07,SSE,153,0.0,2.0,62,0.00,,---,0.00,VWS V14.01,2013-08-26 07:33:00,
2013-08-26 02:34:00,83.6,69.2,30.07,SSE,153,0.0,1.0,62,0.00,,---,0.00,VWS V14.01,2013-08-26 07:34:00,
2013-08-26 02:35:00,83.5,69.1,30.07,SSE,148,1.0,4.0,62,0.00,,---,0.00,VWS V14.01,2013-08-26 07:35:00,
2013-08-26 02:36:00,83.3,68.9,30.07,SSE,154,0.0,3.0,62,0.00,,---,0.00,VWS V14.01,2013-08-26 07:36:00,
2013-08-26 02:37:00,83.5,69.1,30.07,SSE,147,0.0,4.0,62,0.00,,---,0.00,VWS V14.01,2013-08-26 07:37:00,
2013-08-26 02:38:00,83.5,69.1,30.07,SE,146,0.0,4.0,62,0.00,,---,0.00,VWS V14.01,2013-08-26 07:38:00,
2013-08-26 02:39:00,83.4,69.0,30.07,SSE,153,0.0,4.0,62,0.00,,---,0.00,VWS V14.01,2013-08-26 07:39:00,
2013-08-26 02:40:00,83.4,69.0,30.07,SSE,155,1.0,2.0,62,0.00,,---,0.00,VWS V14.01,2013-08-26 07:40:00,
2013-08-26 02:41:00,83.2,69.3,30.07,SSE,154,1.0,5.0,63,0.00,,---,0.00,VWS V14.01,2013-08-26 07:41:00,
2013-08-26 02:42:00,83.3,68.9,30.07,SSE,154,1.0,3.0,62,0.00,,---,0.00,VWS V14.01,2013-08-26 07:42:00,
2013-08-26 02:43:00,83.3,69.4,30.07,SSE,154,0.0,3.0,63,0.00,,---,0.00,VWS V14.01,2013-08-26 07:43:00,
2013-08-26 02:44:00,83.3,69.4,30.07,SSE,153,0.0,5.0,63,0.00,,---,0.00,VWS V14.01,2013-08-26 07:44:00,
2013-08-26 02:45:00,83.3,69.4,30.07,SSE,153,0.0,5.0,63,0.00,,---,0.00,VWS V14.01,2013-08-26 07:45:00,
2013-08-26 02:46:00,83.1,69.2,30.07,SSE,153,0.0,3.0,63,0.00,,---,0.00,VWS V14.01,2013-08-26 07:46:00,
2013-08-26 02:47:00,83.2,69.3,30.07,SSE,154,0.0,5.0,63,0.00,,---,0.00,VWS V14.01,2013-08-26 07:47:00,
2013-08-26 02:48:00,83.2,69.3,30.07,SSE,153,2.0,5.0,63,0.00,,---,0.00,VWS V14.01,2013-08-26 07:48:00,
2013-08-26 02:49:00,83.2,69.3,30.07,SSE,152,0.0,3.0,63,0.00,,---,0.00,VWS V14.01,2013-08-26 07:49:00,
2013-08-26 02:50:00,83.1,69.2,30.07,SSE,152,2.0,3.0,63,0.00,,---,0.00,VWS V14.01,2013-08-26 07:50:00,
2013-08-26 02:51:00,83.0,69.6,30.07,SSE,156,5.0,5.0,64,0.00,,---,0.00,VWS V14.01,2013-08-26 07:51:00,
2013-08-26 02:52:00,83.1,69.2,30.07,SSE,153,0.0,3.0,63,0.00,,---,0.00,VWS V14.01,2013-08-26 07:52:00,
2013-08-26 02:53:00,83.1,69.2,30.07,SSE,153,1.0,3.0,63,0.00,,---,0.00,VWS V14.01,2013-08-26 07:53:00,
2013-08-26 02:54:00,83.0,69.1,30.07,SSE,153,0.0,2.0,63,0.00,,---,0.00,VWS V14.01,2013-08-26 07:54:00,
2013-08-26 02:55:00,83.0,69.1,30.07,SSE,153,0.0,2.0,63,0.00,,---,0.00,VWS V14.01,2013-08-26 07:55:00,
2013-08-26 02:56:00,82.9,69.5,30.08,SSE,155,0.0,5.0,64,0.00,,---,0.00,VWS V14.01,2013-08-26 07:56:00,
2013-08-26 02:57:00,83.0,69.6,30.07,SSE,155,5.0,5.0,64,0.00,,---,0.00,VWS V14.01,2013-08-26 07:57:00,
2013-08-26 02:58:00,83.0,69.6,30.07,SSE,156,0.0,5.0,64,0.00,,---,0.00,VWS V14.01,2013-08-26 07:58:00,
2013-08-26 02:59:00,83.0,69.6,30.07,SSE,155,0.0,5.0,64,0.00,,---,0.00,VWS V14.01,2013-08-26 07:59:00,
2013-08-26 03:00:00,82.9,69.5,30.08,SSE,156,0.0,5.0,64,0.00,,---,0.00,VWS V14.01,2013-08-26 08:00:00,
2013-08-26 03:01:00,82.7,69.3,30.07,SSE,156,0.0,2.0,64,0.00,,---,0.00,VWS V14.01,2013-08-26 08:01:00,
2013-08-26 03:02:00,82.9,69.5,30.08,SSE,155,0.0,5.0,64,0.00,,---,0.00,VWS V14.01,2013-08-26 08:02:00,
2013-08-26 03:03:00,82.9,69.5,30.08,SSE,155,0.0,1.0,64,0.00,,---,0.00,VWS V14.01,2013-08-26 08:03:00,
2013-08-26 03:04:00,82.8,69.4,30.08,SSE,155,2.0,2.0,64,0.00,,---,0.00,VWS V14.01,2013-08-26 08:04:00,
2013-08-26 03:05:00,82.8,69.4,30.08,SSE,155,0.0,2.0,64,0.00,,---,0.00,VWS V14.01,2013-08-26 08:05:00,
2013-08-26 03:06:00,82.6,69.7,30.08,SSE,156,0.0,4.0,65,0.00,,---,0.00,VWS V14.01,2013-08-26 08:06:00,
2013-08-26 03:07:00,82.7,69.3,30.07,SSE,155,0.0,2.0,64,0.00,,---,0.00,VWS V14.01,2013-08-26 08:07:00,
2013-08-26 03:08:00,82.7,69.3,30.07,SSE,155,0.0,2.0,64,0.00,,---,0.00,VWS V14.01,2013-08-26 08:08:00,
2013-08-26 03:11:00,82.5,69.6,30.07,SSE,162,0.0,6.0,65,0.00,,---,0.00,VWS V14.01,2013-08-26 08:11:00,
2013-08-26 03:12:00,82.6,69.7,30.07,SSE,156,0.0,4.0,65,0.00,,---,0.00,VWS V14.01,2013-08-26 08:12:00,
2013-08-26 03:13:00,82.6,69.7,30.08,SSE,156,0.0,4.0,65,0.00,,---,0.00,VWS V14.01,2013-08-26 08:13:00,
2013-08-26 03:14:00,82.5,69.6,30.08,SSE,157,0.0,4.0,65,0.00,,---,0.00,VWS V14.01,2013-08-26 08:14:00,
2013-08-26 03:15:00,82.5,69.6,30.08,SSE,160,2.0,6.0,65,0.00,,---,0.00,VWS V14.01,2013-08-26 08:15:00,
2013-08-26 03:16:00,82.4,69.5,30.08,SSE,163,0.0,4.0,65,0.00,,---,0.00,VWS V14.01,2013-08-26 08:16:00,
2013-08-26 03:17:00,82.5,69.6,30.07,SSE,162,0.0,6.0,65,0.00,,---,0.00,VWS V14.01,2013-08-26 08:17:00,
2013-08-26 03:18:00,82.5,69.6,30.07,SSE,162,0.0,6.0,65,0.00,,---,0.00,VWS V14.01,2013-08-26 08:18:00,
2013-08-26 03:19:00,82.4,69.5,30.07,SSE,162,0.0,6.0,65,0.00,,---,0.00,VWS V14.01,2013-08-26 08:19:00,
2013-08-26 03:20:00,82.4,69.5,30.07,SSE,164,2.0,4.0,65,0.00,,---,0.00,VWS V14.01,2013-08-26 08:20:00,
2013-08-26 03:21:00,82.3,69.8,30.07,SSE,162,0.0,2.0,66,0.00,,---,0.00,VWS V14.01,2013-08-26 08:21:00,
2013-08-26 03:22:00,82.4,69.5,30.07,SSE,163,0.0,4.0,65,0.00,,---,0.00,VWS V14.01,2013-08-26 08:22:00,
2013-08-26 03:23:00,82.3,69.4,30.08,SSE,163,0.0,4.0,65,0.00,,---,0.00,VWS V14.01,2013-08-26 08:23:00,
2013-08-26 03:24:00,82.3,69.4,30.08,SSE,163,0.0,4.0,65,0.00,,---,0.00,VWS V14.01,2013-08-26 08:24:00,
2013-08-26 03:25:00,82.3,69.4,30.07,SSE,163,0.0,4.0,65,0.00,,---,0.00,VWS V14.01,2013-08-26 08:25:00,
2013-08-26 03:26:00,82.1,69.6,30.08,SSE,160,1.0,7.0,66,0.00,,---,0.00,VWS V14.01,2013-08-26 08:26:00,
2013-08-26 03:27:00,82.3,69.8,30.07,SSE,162,2.0,2.0,66,0.00,,---,0.00,VWS V14.01,2013-08-26 08:27:00,
2013-08-26 03:28:00,82.3,69.8,30.07,SSE,160,1.0,2.0,66,0.00,,---,0.00,VWS V14.01,2013-08-26 08:28:00,
2013-08-26 03:29:00,82.2,69.7,30.07,SSE,162,2.0,7.0,66,0.00,,---,0.00,VWS V14.01,2013-08-26 08:29:00,
2013-08-26 03:30:00,82.2,69.7,30.07,SSE,160,4.0,7.0,66,0.00,,---,0.00,VWS V14.01,2013-08-26 08:30:00,
2013-08-26 03:31:00,82.1,69.6,30.08,SSE,161,0.0,4.0,66,0.00,,---,0.00,VWS V14.01,2013-08-26 08:31:00,
2013-08-26 03:32:00,82.1,69.6,30.07,SSE,160,0.0,7.0,66,0.00,,---,0.00,VWS V14.01,2013-08-26 08:32:00,
2013-08-26 03:33:00,82.1,69.6,30.08,SSE,161,2.0,7.0,66,0.00,,---,0.00,VWS V14.01,2013-08-26 08:33:00,
2013-08-26 03:34:00,82.1,69.6,30.08,SSE,161,0.0,5.0,66,0.00,,---,0.00,VWS V14.01,2013-08-26 08:34:00,
2013-08-26 03:35:00,82.1,69.6,30.08,SSE,161,0.0,4.0,66,0.00,,---,0.00,VWS V14.01,2013-08-26 08:35:00,
2013-08-26 03:36:00,82.0,69.5,30.07,SSE,161,0.0,3.0,66,0.00,,---,0.00,VWS V14.01,2013-08-26 08:36:00,
2013-08-26 03:37:00,82.1,69.6,30.08,SSE,161,0.0,4.0,66,0.00,,---,0.00,VWS V14.01,2013-08-26 08:37:00,
2013-08-26 03:38:00,82.0,69.5,30.08,SSE,161,0.0,4.0,66,0.00,,---,0.00,VWS V14.01,2013-08-26 08:38:00,
2013-08-26 03:39:00,82.0,69.5,30.07,SSE,161,0.0,3.0,66,0.00,,---,0.00,VWS V14.01,2013-08-26 08:39:00,
2013-08-26 03:40:00,82.0,69.5,30.07,SSE,161,0.0,3.0,66,0.00,,---,0.00,VWS V14.01,2013-08-26 08:40:00,
2013-08-26 03:41:00,81.9,69.9,30.07,SSE,161,0.0,1.0,67,0.00,,---,0.00,VWS V14.01,2013-08-26 08:41:00,
2013-08-26 03:42:00,82.0,69.5,30.07,SSE,161,0.0,3.0,66,0.00,,---,0.00,VWS V14.01,2013-08-26 08:42:00,
2013-08-26 03:43:00,82.0,69.5,30.07,SSE,161,0.0,3.0,66,0.00,,---,0.00,VWS V14.01,2013-08-26 08:43:00,
2013-08-26 03:44:00,81.9,69.4,30.07,SSE,161,1.0,1.0,66,0.00,,---,0.00,VWS V14.01,2013-08-26 08:44:00,
2013-08-26 03:45:00,81.9,69.9,30.07,SSE,161,0.0,1.0,67,0.00,,---,0.00,VWS V14.01,2013-08-26 08:45:00,
2013-08-26 03:46:00,81.7,69.7,30.08,SSE,161,0.0,1.0,67,0.00,,---,0.00,VWS V14.01,2013-08-26 08:46:00,
2013-08-26 03:48:00,81.8,69.8,30.07,SSE,161,0.0,1.0,67,0.00,,---,0.00,VWS V14.01,2013-08-26 08:48:00,
2013-08-26 03:49:00,81.8,69.8,30.07,SSE,161,0.0,1.0,67,0.00,,---,0.00,VWS V14.01,2013-08-26 08:49:00,
2013-08-26 03:50:00,81.8,69.8,30.08,SSE,161,0.0,1.0,67,0.00,,---,0.00,VWS V14.01,2013-08-26 08:50:00,
2013-08-26 03:51:00,81.6,69.6,30.08,SSE,161,0.0,1.0,67,0.00,,---,0.00,VWS V14.01,2013-08-26 08:51:00,
2013-08-26 03:52:00,81.7,69.7,30.08,SSE,161,0.0,1.0,67,0.00,,---,0.00,VWS V14.01,2013-08-26 08:52:00,
2013-08-26 03:53:00,81.7,69.7,30.08,SSE,161,0.0,1.0,67,0.00,,---,0.00,VWS V14.01,2013-08-26 08:53:00,
2013-08-26 03:54:00,81.7,69.7,30.08,SSE,161,0.0,0.0,67,0.00,,---,0.00,VWS V14.01,2013-08-26 08:54:00,
2013-08-26 03:56:00,81.4,69.4,30.08,SSE,161,0.0,1.0,67,0.00,,---,0.00,VWS V14.01,2013-08-26 08:56:00,
2013-08-26 03:57:00,81.6,69.6,30.08,SSE,161,1.0,1.0,67,0.00,,---,0.00,VWS V14.01,2013-08-26 08:57:00,
2013-08-26 03:58:00,81.6,69.6,30.08,SSE,161,0.0,1.0,67,0.00,,---,0.00,VWS V14.01,2013-08-26 08:58:00,
2013-08-26 03:59:00,81.5,69.5,30.08,SSE,161,0.0,1.0,67,0.00,,---,0.00,VWS V14.01,2013-08-26 08:59:00,
2013-08-26 04:00:00,81.5,69.5,30.08,SSE,161,0.0,1.0,67,0.00,,---,0.00,VWS V14.01,2013-08-26 09:00:00,
2013-08-26 04:01:00,81.3,69.7,30.08,SSE,161,0.0,3.0,68,0.00,,---,0.00,VWS V14.01,2013-08-26 09:01:00,
2013-08-26 04:02:00,81.4,69.4,30.08,SSE,161,0.0,1.0,67,0.00,,---,0.00,VWS V14.01,2013-08-26 09:02:00,
2013-08-26 04:03:00,81.4,69.8,30.08,SSE,161,0.0,0.0,68,0.00,,---,0.00,VWS V14.01,2013-08-26 09:03:00,
2013-08-26 04:04:00,81.4,69.8,30.08,SSE,161,0.0,0.0,68,0.00,,---,0.00,VWS V14.01,2013-08-26 09:04:00,
2013-08-26 04:05:00,81.4,69.8,30.08,SSE,161,0.0,0.0,68,0.00,,---,0.00,VWS V14.01,2013-08-26 09:05:00,
2013-08-26 04:06:00,81.1,69.6,30.08,SSE,161,0.0,2.0,68,0.00,,---,0.00,VWS V14.01,2013-08-26 09:06:00,
2013-08-26 04:07:00,81.3,69.7,30.08,SSE,161,0.0,3.0,68,0.00,,---,0.00,VWS V14.01,2013-08-26 09:07:00,
2013-08-26 04:08:00,81.3,69.7,30.08,SSE,161,0.0,3.0,68,0.00,,---,0.00,VWS V14.01,2013-08-26 09:08:00,
2013-08-26 04:09:00,81.2,69.6,30.08,SSE,161,0.0,3.0,68,0.00,,---,0.00,VWS V14.01,2013-08-26 09:09:00,
2013-08-26 04:10:00,81.2,69.6,30.08,SSE,161,0.0,3.0,68,0.00,,---,0.00,VWS V14.01,2013-08-26 09:10:00,
2013-08-26 04:11:00,81.0,69.4,30.08,SSE,161,0.0,1.0,68,0.00,,---,0.00,VWS V14.01,2013-08-26 09:11:00,
2013-08-26 04:12:00,81.1,69.6,30.08,SSE,161,0.0,2.0,68,0.00,,---,0.00,VWS V14.01,2013-08-26 09:12:00,
2013-08-26 04:13:00,81.1,69.6,30.08,SSE,161,0.0,2.0,68,0.00,,---,0.00,VWS V14.01,2013-08-26 09:13:00,
2013-08-26 04:14:00,81.1,69.6,30.08,SSE,161,0.0,2.0,68,0.00,,---,0.00,VWS V14.01,2013-08-26 09:14:00,
2013-08-26 04:15:00,81.1,69.6,30.08,SSE,161,0.0,1.0,68,0.00,,---,0.00,VWS V14.01,2013-08-26 09:15:00,
2013-08-26 04:16:00,80.9,69.8,30.08,SSE,161,0.0,1.0,69,0.00,,---,0.00,VWS V14.01,2013-08-26 09:16:00,
2013-08-26 04:17:00,81.0,69.4,30.08,SSE,161,0.0,1.0,68,0.00,,---,0.00,VWS V14.01,2013-08-26 09:17:00,
2013-08-26 04:18:00,81.0,69.4,30.08,SSE,161,0.0,0.0,68,0.00,,---,0.00,VWS V14.01,2013-08-26 09:18:00,
2013-08-26 04:19:00,80.9,69.4,30.08,SSE,161,0.0,1.0,68,0.00,,---,0.00,VWS V14.01,2013-08-26 09:19:00,
2013-08-26 04:20:00,80.9,69.4,30.08,SSE,161,0.0,1.0,68,0.00,,---,0.00,VWS V14.01,2013-08-26 09:20:00,
2013-08-26 04:21:00,80.8,69.7,30.08,SSE,161,0.0,0.0,69,0.00,,---,0.00,VWS V14.01,2013-08-26 09:21:00,
2013-08-26 04:22:00,80.9,69.8,30.08,SSE,161,0.0,1.0,69,0.00,,---,0.00,VWS V14.01,2013-08-26 09:22:00,
2013-08-26 04:23:00,80.8,69.7,30.08,SSE,161,0.0,1.0,69,0.00,,---,0.00,VWS V14.01,2013-08-26 09:23:00,
2013-08-26 04:24:00,80.8,69.7,30.08,SSE,161,0.0,0.0,69,0.00,,---,0.00,VWS V14.01,2013-08-26 09:24:00,
2013-08-26 04:25:00,80.8,69.7,30.08,SSE,161,0.0,0.0,69,0.00,,---,0.00,VWS V14.01,2013-08-26 09:25:00,
2013-08-26 04:26:00,80.7,69.6,30.08,SSE,160,0.0,3.0,69,0.00,,---,0.00,VWS V14.01,2013-08-26 09:26:00,
2013-08-26 04:28:00,80.7,69.6,30.08,SSE,161,1.0,1.0,69,0.00,,---,0.00,VWS V14.01,2013-08-26 09:28:00,
2013-08-26 04:29:00,80.7,69.6,30.08,SSE,160,0.0,3.0,69,0.00,,---,0.00,VWS V14.01,2013-08-26 09:29:00,
2013-08-26 04:30:00,80.7,69.6,30.08,SSE,160,0.0,3.0,69,0.00,,---,0.00,VWS V14.01,2013-08-26 09:30:00,
2013-08-26 04:31:00,80.6,69.5,30.08,SSE,160,0.0,3.0,69,0.00,,---,0.00,VWS V14.01,2013-08-26 09:31:00,
2013-08-26 04:32:00,80.7,69.6,30.08,SSE,160,0.0,3.0,69,0.00,,---,0.00,VWS V14.01,2013-08-26 09:32:00,
2013-08-26 04:33:00,80.6,69.5,30.08,SSE,160,0.0,3.0,69,0.00,,---,0.00,VWS V14.01,2013-08-26 09:33:00,
2013-08-26 04:34:00,80.6,69.5,30.08,SSE,160,2.0,3.0,69,0.00,,---,0.00,VWS V14.01,2013-08-26 09:34:00,
2013-08-26 04:35:00,80.6,69.5,30.08,SSE,160,0.0,3.0,69,0.00,,---,0.00,VWS V14.01,2013-08-26 09:35:00,
2013-08-26 04:36:00,80.5,69.4,30.08,SSE,160,0.0,1.0,69,0.00,,---,0.00,VWS V14.01,2013-08-26 09:36:00,
2013-08-26 04:37:00,80.6,69.5,30.08,SSE,160,0.0,3.0,69,0.00,,---,0.00,VWS V14.01,2013-08-26 09:37:00,
2013-08-26 04:38:00,80.6,69.5,30.08,SSE,160,0.0,3.0,69,0.00,,---,0.00,VWS V14.01,2013-08-26 09:38:00,
2013-08-26 04:40:00,80.5,69.4,30.08,SSE,160,0.0,0.0,69,0.00,,---,0.00,VWS V14.01,2013-08-26 09:40:00,
2013-08-26 04:41:00,80.4,69.3,30.08,SSE,159,0.0,3.0,69,0.00,,---,0.00,VWS V14.01,2013-08-26 09:41:00,
2013-08-26 04:42:00,80.5,69.4,30.08,SSE,160,0.0,1.0,69,0.00,,---,0.00,VWS V14.01,2013-08-26 09:42:00,
2013-08-26 04:43:00,80.5,69.4,30.08,SSE,160,0.0,1.0,69,0.00,,---,0.00,VWS V14.01,2013-08-26 09:43:00,
2013-08-26 04:44:00,80.5,69.4,30.08,SSE,160,0.0,1.0,69,0.00,,---,0.00,VWS V14.01,2013-08-26 09:44:00,
2013-08-26 04:46:00,80.4,69.3,30.08,SSE,159,2.0,7.0,69,0.00,,---,0.00,VWS V14.01,2013-08-26 09:46:00,
2013-08-26 04:47:00,80.4,69.3,30.08,SSE,159,0.0,3.0,69,0.00,,---,0.00,VWS V14.01,2013-08-26 09:47:00,
2013-08-26 04:48:00,80.4,69.3,30.08,SSE,159,1.0,3.0,69,0.00,,---,0.00,VWS V14.01,2013-08-26 09:48:00,
2013-08-26 04:49:00,80.4,69.3,30.08,SSE,157,0.0,4.0,69,0.00,,---,0.00,VWS V14.01,2013-08-26 09:49:00,
2013-08-26 04:50:00,80.4,69.3,30.08,SSE,155,2.0,4.0,69,0.00,,---,0.00,VWS V14.01,2013-08-26 09:50:00,
2013-08-26 04:51:00,80.4,69.7,30.08,SSE,160,0.0,4.0,70,0.00,,---,0.00,VWS V14.01,2013-08-26 09:51:00,
2013-08-26 04:52:00,80.4,69.3,30.08,SSE,159,3.0,7.0,69,0.00,,---,0.00,VWS V14.01,2013-08-26 09:52:00,
2013-08-26 04:53:00,80.4,69.3,30.08,SSE,159,0.0,7.0,69,0.00,,---,0.00,VWS V14.01,2013-08-26 09:53:00,
2013-08-26 04:54:00,80.4,69.3,30.08,SSE,160,0.0,7.0,69,0.00,,---,0.00,VWS V14.01,2013-08-26 09:54:00,
2013-08-26 04:56:00,80.3,70.1,30.08,SSE,160,0.0,3.0,71,0.00,,---,0.00,VWS V14.01,2013-08-26 09:56:00,
2013-08-26 04:57:00,80.3,69.6,30.08,SSE,160,0.0,4.0,70,0.00,,---,0.00,VWS V14.01,2013-08-26 09:57:00,
2013-08-26 05:00:00,80.3,70.1,30.08,SSE,160,0.0,3.0,71,0.00,,---,0.00,VWS V14.01,2013-08-26 10:00:00,
2013-08-26 05:01:00,80.2,70.4,30.08,SSE,160,0.0,3.0,72,0.00,,---,0.00,VWS V14.01,2013-08-26 10:01:00,
2013-08-26 05:02:00,80.3,70.1,30.08,SSE,160,0.0,3.0,71,0.00,,---,0.00,VWS V14.01,2013-08-26 10:02:00,
2013-08-26 05:03:00,80.3,70.1,30.08,SSE,160,0.0,3.0,71,0.00,,---,0.00,VWS V14.01,2013-08-26 10:03:00,
2013-08-26 05:05:00,80.2,70.4,30.08,SSE,160,0.0,3.0,72,0.00,,---,0.00,VWS V14.01,2013-08-26 10:05:00,
2013-08-26 05:06:00,80.0,69.8,30.08,SSE,160,0.0,1.0,71,0.00,,---,0.00,VWS V14.01,2013-08-26 10:06:00,
2013-08-26 05:09:00,80.1,69.9,30.08,SSE,160,0.0,1.0,71,0.00,,---,0.00,VWS V14.01,2013-08-26 10:09:00,
2013-08-26 05:10:00,80.1,70.3,30.08,SSE,160,0.0,1.0,72,0.00,,---,0.00,VWS V14.01,2013-08-26 10:10:00,
2013-08-26 05:11:00,79.8,69.6,30.08,SSE,159,0.0,4.0,71,0.00,,---,0.00,VWS V14.01,2013-08-26 10:11:00,
2013-08-26 05:12:00,80.0,69.8,30.08,SSE,160,0.0,1.0,71,0.00,,---,0.00,VWS V14.01,2013-08-26 10:12:00,
2013-08-26 05:13:00,80.0,69.8,30.08,SSE,160,0.0,0.0,71,0.00,,---,0.00,VWS V14.01,2013-08-26 10:13:00,
2013-08-26 05:14:00,80.0,70.2,30.08,SSE,160,1.0,1.0,72,0.00,,---,0.00,VWS V14.01,2013-08-26 10:14:00,
2013-08-26 05:15:00,79.9,69.7,30.08,SSE,160,0.0,1.0,71,0.00,,---,0.00,VWS V14.01,2013-08-26 10:15:00,
2013-08-26 05:16:00,79.7,69.9,30.08,SE,145,0.0,6.0,72,0.00,,---,0.00,VWS V14.01,2013-08-26 10:16:00,
2013-08-26 05:17:00,79.8,69.6,30.08,SSE,159,0.0,4.0,71,0.00,,---,0.00,VWS V14.01,2013-08-26 10:17:00,
2013-08-26 05:18:00,79.8,69.6,30.08,SE,144,1.0,6.0,71,0.00,,---,0.00,VWS V14.01,2013-08-26 10:18:00,
2013-08-26 05:19:00,79.8,69.6,30.08,SE,144,0.0,6.0,71,0.00,,---,0.00,VWS V14.01,2013-08-26 10:19:00,
2013-08-26 05:20:00,79.7,69.5,30.08,SE,144,0.0,6.0,71,0.00,,---,0.00,VWS V14.01,2013-08-26 10:20:00,
2013-08-26 05:21:00,79.6,70.2,30.08,SE,145,0.0,0.0,73,0.00,,---,0.00,VWS V14.01,2013-08-26 10:21:00,
2013-08-26 05:22:00,79.7,69.9,30.08,SE,145,0.0,6.0,72,0.00,,---,0.00,VWS V14.01,2013-08-26 10:22:00,
2013-08-26 05:23:00,79.7,69.9,30.09,SE,145,0.0,4.0,72,0.00,,---,0.00,VWS V14.01,2013-08-26 10:23:00,
2013-08-26 05:24:00,79.6,69.8,30.08,SE,145,0.0,4.0,72,0.00,,---,0.00,VWS V14.01,2013-08-26 10:24:00,
2013-08-26 05:25:00,79.6,69.4,30.08,SE,145,0.0,4.0,71,0.00,,---,0.00,VWS V14.01,2013-08-26 10:25:00,
2013-08-26 05:26:00,79.4,70.0,30.08,SE,145,0.0,4.0,73,0.00,,---,0.00,VWS V14.01,2013-08-26 10:26:00,
2013-08-26 05:27:00,79.6,70.2,30.08,SE,145,0.0,0.0,73,0.00,,---,0.00,VWS V14.01,2013-08-26 10:27:00,
2013-08-26 05:30:00,79.5,69.7,30.08,SE,146,0.0,4.0,72,0.00,,---,0.00,VWS V14.01,2013-08-26 10:30:00,
2013-08-26 05:31:00,79.3,69.9,30.08,SE,146,0.0,5.0,73,0.00,,---,0.00,VWS V14.01,2013-08-26 10:31:00,
2013-08-26 05:33:00,79.4,70.0,30.08,SE,146,0.0,4.0,73,0.00,,---,0.00,VWS V14.01,2013-08-26 10:33:00,
2013-08-26 05:34:00,79.4,70.0,30.08,SE,146,3.0,5.0,73,0.00,,---,0.00,VWS V14.01,2013-08-26 10:34:00,
2013-08-26 05:35:00,79.4,69.6,30.08,SE,146,0.0,5.0,72,0.00,,---,0.00,VWS V14.01,2013-08-26 10:35:00,
2013-08-26 05:36:00,79.2,69.8,30.08,SSE,147,0.0,2.0,73,0.00,,---,0.00,VWS V14.01,2013-08-26 10:36:00,
2013-08-26 05:37:00,79.3,69.9,30.08,SE,146,0.0,5.0,73,0.00,,---,0.00,VWS V14.01,2013-08-26 10:37:00,
2013-08-26 05:38:00,79.3,69.9,30.08,SSE,147,0.0,5.0,73,0.00,,---,0.00,VWS V14.01,2013-08-26 10:38:00,
2013-08-26 05:39:00,79.3,69.9,30.08,SSE,147,0.0,4.0,73,0.00,,---,0.00,VWS V14.01,2013-08-26 10:39:00,
2013-08-26 05:40:00,79.3,69.9,30.08,SSE,147,0.0,3.0,73,0.00,,---,0.00,VWS V14.01,2013-08-26 10:40:00,
2013-08-26 05:41:00,79.1,69.7,30.09,SSE,147,0.0,1.0,73,0.00,,---,0.00,VWS V14.01,2013-08-26 10:41:00,
2013-08-26 05:43:00,79.2,69.8,30.08,SSE,147,0.0,1.0,73,0.00,,---,0.00,VWS V14.01,2013-08-26 10:43:00,
2013-08-26 05:45:00,79.1,69.7,30.09,SSE,147,0.0,1.0,73,0.00,,---,0.00,VWS V14.01,2013-08-26 10:45:00,
2013-08-26 05:46:00,79.0,69.6,30.08,SSE,147,0.0,3.0,73,0.00,,---,0.00,VWS V14.01,2013-08-26 10:46:00,
2013-08-26 05:49:00,79.0,69.6,30.09,SSE,147,0.0,3.0,73,0.00,,---,0.00,VWS V14.01,2013-08-26 10:49:00,
2013-08-26 05:50:00,79.0,69.6,30.08,SSE,147,0.0,3.0,73,0.00,,---,0.00,VWS V14.01,2013-08-26 10:50:00,
2013-08-26 05:51:00,78.9,69.9,30.09,SSE,147,0.0,0.0,74,0.00,,---,0.00,VWS V14.01,2013-08-26 10:51:00,
2013-08-26 05:55:00,78.9,69.9,30.09,SSE,147,0.0,1.0,74,0.00,,---,0.00,VWS V14.01,2013-08-26 10:55:00,
2013-08-26 05:56:00,78.8,69.8,30.09,SSE,147,0.0,1.0,74,0.00,,---,0.00,VWS V14.01,2013-08-26 10:56:00,
2013-08-26 05:57:00,78.9,69.9,30.09,SSE,147,0.0,0.0,74,0.00,,---,0.00,VWS V14.01,2013-08-26 10:57:00,
2013-08-26 05:58:00,78.8,69.8,30.09,SSE,147,0.0,0.0,74,0.00,,---,0.00,VWS V14.01,2013-08-26 10:58:00,
2013-08-26 05:59:00,78.8,69.8,30.09,SSE,147,0.0,0.0,74,0.00,,---,0.00,VWS V14.01,2013-08-26 10:59:00,
2013-08-26 06:00:00,78.8,69.8,30.09,SSE,147,0.0,0.0,74,0.00,,---,0.00,VWS V14.01,2013-08-26 11:00:00,
2013-08-26 06:01:00,78.7,69.7,30.09,SSE,148,0.0,3.0,74,0.00,,---,0.00,VWS V14.01,2013-08-26 11:01:00,
2013-08-26 06:06:00,78.6,70.0,30.09,SSE,148,0.0,0.0,75,0.00,,---,0.00,VWS V14.01,2013-08-26 11:06:00,
2013-08-26 06:07:00,78.7,69.7,30.09,SSE,148,0.0,3.0,74,0.00,,---,0.00,VWS V14.01,2013-08-26 11:07:00,
2013-08-26 06:08:00,78.7,69.7,30.09,SSE,148,0.0,3.0,74,0.00,,---,0.00,VWS V14.01,2013-08-26 11:08:00,
2013-08-26 06:09:00,78.7,69.7,30.09,SSE,148,0.0,3.0,74,0.00,,---,0.00,VWS V14.01,2013-08-26 11:09:00,
2013-08-26 06:10:00,78.6,69.6,30.09,SSE,148,0.0,1.0,74,0.00,,---,0.00,VWS V14.01,2013-08-26 11:10:00,
2013-08-26 06:11:00,78.5,70.3,30.09,SSE,148,0.0,0.0,76,0.00,,---,0.00,VWS V14.01,2013-08-26 11:11:00,
2013-08-26 06:12:00,78.6,70.0,30.09,SSE,148,0.0,0.0,75,0.00,,---,0.00,VWS V14.01,2013-08-26 11:12:00,
2013-08-26 06:13:00,78.6,70.0,30.09,SSE,148,0.0,0.0,75,0.00,,---,0.00,VWS V14.01,2013-08-26 11:13:00,
2013-08-26 06:14:00,78.6,70.0,30.09,SSE,148,0.0,0.0,75,0.00,,---,0.00,VWS V14.01,2013-08-26 11:14:00,
2013-08-26 06:15:00,78.6,70.4,30.09,SSE,148,0.0,0.0,76,0.00,,---,0.00,VWS V14.01,2013-08-26 11:15:00,
2013-08-26 06:16:00,78.4,70.2,30.10,SSE,148,0.0,0.0,76,0.00,,---,0.00,VWS V14.01,2013-08-26 11:16:00,
2013-08-26 06:18:00,78.5,70.3,30.09,SSE,148,0.0,0.0,76,0.00,,---,0.00,VWS V14.01,2013-08-26 11:18:00,
2013-08-26 06:19:00,78.5,70.7,30.09,SSE,148,0.0,0.0,77,0.00,,---,0.00,VWS V14.01,2013-08-26 11:19:00,
2013-08-26 06:20:00,78.5,70.3,30.09,SSE,148,0.0,0.0,76,0.00,,---,0.00,VWS V14.01,2013-08-26 11:20:00,
2013-08-26 06:21:00,78.2,69.6,30.10,SSE,148,0.0,0.0,75,0.00,,---,0.00,VWS V14.01,2013-08-26 11:21:00,
2013-08-26 06:22:00,78.4,70.2,30.10,SSE,148,0.0,0.0,76,0.00,,---,0.00,VWS V14.01,2013-08-26 11:22:00,
2013-08-26 06:23:00,78.4,69.8,30.10,SSE,148,0.0,0.0,75,0.00,,---,0.00,VWS V14.01,2013-08-26 11:23:00,
2013-08-26 06:24:00,78.3,69.7,30.10,SSE,148,0.0,0.0,75,0.00,,---,0.00,VWS V14.01,2013-08-26 11:24:00,
2013-08-26 06:25:00,78.3,70.1,30.10,SSE,148,0.0,0.0,76,0.00,,---,0.00,VWS V14.01,2013-08-26 11:25:00,
2013-08-26 06:26:00,78.0,69.4,30.10,SSE,148,0.0,0.0,75,0.00,,---,0.00,VWS V14.01,2013-08-26 11:26:00,
2013-08-26 06:28:00,78.2,69.6,30.10,SSE,148,0.0,0.0,75,0.00,,---,0.00,VWS V14.01,2013-08-26 11:28:00,
2013-08-26 06:29:00,78.1,69.5,30.10,SSE,148,0.0,0.0,75,0.00,,---,0.00,VWS V14.01,2013-08-26 11:29:00,
2013-08-26 06:30:00,78.1,69.5,30.10,SSE,148,0.0,0.0,75,0.00,,---,0.00,VWS V14.01,2013-08-26 11:30:00,
2013-08-26 06:31:00,77.9,69.7,30.10,SSE,148,0.0,1.0,76,0.00,,---,0.00,VWS V14.01,2013-08-26 11:31:00,
2013-08-26 06:32:00,78.0,69.4,30.10,SSE,148,0.0,0.0,75,0.00,,---,0.00,VWS V14.01,2013-08-26 11:32:00,
2013-08-26 06:33:00,78.0,69.4,30.10,SSE,148,0.0,0.0,75,0.00,,---,0.00,VWS V14.01,2013-08-26 11:33:00,
2013-08-26 06:35:00,77.9,69.3,30.10,SSE,148,0.0,1.0,75,0.00,,---,0.00,VWS V14.01,2013-08-26 11:35:00,
2013-08-26 06:36:00,77.8,69.2,30.10,SSE,148,0.0,0.0,75,0.00,,---,0.00,VWS V14.01,2013-08-26 11:36:00,
2013-08-26 06:37:00,77.9,69.7,30.10,SSE,148,0.0,1.0,76,0.00,,---,0.00,VWS V14.01,2013-08-26 11:37:00,
2013-08-26 06:38:00,77.8,69.6,30.10,SSE,148,0.0,1.0,76,0.00,,---,0.00,VWS V14.01,2013-08-26 11:38:00,
2013-08-26 06:39:00,77.8,69.2,30.10,SSE,148,0.0,1.0,75,0.00,,---,0.00,VWS V14.01,2013-08-26 11:39:00,
2013-08-26 06:40:00,77.8,69.2,30.10,SSE,148,0.0,0.0,75,0.00,,---,0.00,VWS V14.01,2013-08-26 11:40:00,
2013-08-26 06:41:00,77.6,69.4,30.10,SSE,148,0.0,1.0,76,0.00,,---,0.00,VWS V14.01,2013-08-26 11:41:00,
2013-08-26 06:42:00,77.8,69.2,30.10,SSE,148,0.0,0.0,75,0.00,,---,0.00,VWS V14.01,2013-08-26 11:42:00,
2013-08-26 06:43:00,77.7,69.5,30.10,SSE,148,0.0,0.0,76,0.00,,---,0.00,VWS V14.01,2013-08-26 11:43:00,
2013-08-26 06:44:00,77.7,69.5,30.10,SSE,148,0.0,0.0,76,0.00,,---,0.00,VWS V14.01,2013-08-26 11:44:00,
2013-08-26 06:45:00,77.7,69.5,30.10,SSE,148,0.0,1.0,76,0.00,,---,0.00,VWS V14.01,2013-08-26 11:45:00,
2013-08-26 06:46:00,77.5,69.3,30.10,SSE,148,0.0,0.0,76,0.00,,---,0.00,VWS V14.01,2013-08-26 11:46:00,
2013-08-26 06:47:00,77.6,69.4,30.10,SSE,148,0.0,1.0,76,0.00,,---,0.00,VWS V14.01,2013-08-26 11:47:00,
2013-08-26 06:48:00,77.6,69.4,30.10,SSE,148,0.0,1.0,76,0.00,,---,0.00,VWS V14.01,2013-08-26 11:48:00,
2013-08-26 06:49:00,77.6,69.4,30.10,SSE,148,0.0,1.0,76,0.00,,---,0.00,VWS V14.01,2013-08-26 11:49:00,
2013-08-26 06:50:00,77.5,69.3,30.10,SSE,148,0.0,0.0,76,0.00,,---,0.00,VWS V14.01,2013-08-26 11:50:00,
2013-08-26 06:51:00,77.4,69.2,30.10,SSE,148,0.0,0.0,76,0.00,,---,0.00,VWS V14.01,2013-08-26 11:51:00,
2013-08-26 06:52:00,77.5,69.3,30.10,SSE,148,0.0,0.0,76,0.00,,---,0.00,VWS V14.01,2013-08-26 11:52:00,
2013-08-26 06:53:00,77.5,69.3,30.10,SSE,148,0.0,0.0,76,0.00,,---,0.00,VWS V14.01,2013-08-26 11:53:00,
2013-08-26 06:56:00,77.3,69.5,30.10,SSE,148,0.0,0.0,77,0.00,,---,0.00,VWS V14.01,2013-08-26 11:56:00,
2013-08-26 06:57:00,77.4,69.2,30.10,SSE,148,0.0,0.0,76,0.00,,---,0.00,VWS V14.01,2013-08-26 11:57:00,
2013-08-26 06:58:00,77.3,69.5,30.10,SSE,148,0.0,0.0,77,0.00,,---,0.00,VWS V14.01,2013-08-26 11:58:00,
2013-08-26 06:59:00,77.3,69.2,30.10,SSE,148,0.0,0.0,76,0.00,,---,0.00,VWS V14.01,2013-08-26 11:59:00,
2013-08-26 07:00:00,77.3,69.5,30.10,SSE,148,0.0,0.0,77,0.00,,---,0.00,VWS V14.01,2013-08-26 12:00:00,
2013-08-26 07:01:00,77.2,69.4,30.10,SSE,148,0.0,0.0,77,0.00,,---,0.00,VWS V14.01,2013-08-26 12:01:00,
2013-08-26 07:03:00,77.3,69.5,30.10,SSE,148,0.0,0.0,77,0.00,,---,0.00,VWS V14.01,2013-08-26 12:03:00,
2013-08-26 07:04:00,77.3,69.5,30.10,SSE,148,0.0,0.0,77,0.00,,---,0.00,VWS V14.01,2013-08-26 12:04:00,
2013-08-26 07:05:00,77.2,69.4,30.10,SSE,148,0.0,0.0,77,0.00,,---,0.00,VWS V14.01,2013-08-26 12:05:00,
2013-08-26 07:06:00,77.2,69.4,30.11,SSE,148,0.0,0.0,77,0.00,,---,0.00,VWS V14.01,2013-08-26 12:06:00,
2013-08-26 07:08:00,77.2,69.4,30.10,SSE,148,0.0,0.0,77,0.00,,---,0.00,VWS V14.01,2013-08-26 12:08:00,
2013-08-26 07:09:00,77.2,69.4,30.11,SSE,148,0.0,0.0,77,0.00,,---,0.00,VWS V14.01,2013-08-26 12:09:00,
2013-08-26 07:10:00,77.2,69.4,30.11,SSE,148,0.0,0.0,77,0.00,,---,0.00,VWS V14.01,2013-08-26 12:10:00,
2013-08-26 07:11:00,77.1,69.3,30.11,SSE,148,0.0,0.0,77,0.00,,---,0.00,VWS V14.01,2013-08-26 12:11:00,
2013-08-26 07:12:00,77.2,69.4,30.11,SSE,148,0.0,0.0,77,0.00,,---,0.00,VWS V14.01,2013-08-26 12:12:00,
2013-08-26 07:13:00,77.1,69.3,30.11,SSE,148,0.0,0.0,77,0.00,,---,0.00,VWS V14.01,2013-08-26 12:13:00,
2013-08-26 07:14:00,77.1,69.3,30.11,SSE,148,0.0,0.0,77,0.00,,---,0.00,VWS V14.01,2013-08-26 12:14:00,
2013-08-26 07:15:00,77.1,69.3,30.11,SSE,148,0.0,0.0,77,0.00,,---,0.00,VWS V14.01,2013-08-26 12:15:00,
2013-08-26 07:16:00,77.1,69.3,30.11,SSE,148,0.0,0.0,77,0.00,,---,0.00,VWS V14.01,2013-08-26 12:16:00,
2013-08-26 07:17:00,77.1,69.3,30.11,SSE,148,0.0,0.0,77,0.00,,---,0.00,VWS V14.01,2013-08-26 12:17:00,
2013-08-26 07:18:00,77.1,69.7,30.11,SSE,148,0.0,0.0,78,0.00,,---,0.00,VWS V14.01,2013-08-26 12:18:00,
2013-08-26 07:19:00,77.1,69.3,30.11,SSE,148,0.0,0.0,77,0.00,,---,0.00,VWS V14.01,2013-08-26 12:19:00,
2013-08-26 07:20:00,77.1,69.3,30.11,SSE,148,0.0,0.0,77,0.00,,---,0.00,VWS V14.01,2013-08-26 12:20:00,
2013-08-26 07:21:00,77.1,69.7,30.11,SSE,148,0.0,0.0,78,0.00,,---,0.00,VWS V14.01,2013-08-26 12:21:00,
2013-08-26 07:22:00,77.1,69.3,30.11,SSE,148,0.0,0.0,77,0.00,,---,0.00,VWS V14.01,2013-08-26 12:22:00,
2013-08-26 07:23:00,77.1,69.3,30.11,SSE,148,0.0,0.0,77,0.00,,---,0.00,VWS V14.01,2013-08-26 12:23:00,
2013-08-26 07:24:00,77.1,69.3,30.11,SSE,148,0.0,0.0,77,0.00,,---,0.00,VWS V14.01,2013-08-26 12:24:00,
2013-08-26 07:25:00,77.1,69.3,30.11,SSE,148,0.0,0.0,77,0.00,,---,0.00,VWS V14.01,2013-08-26 12:25:00,
2013-08-26 07:26:00,77.1,69.7,30.11,SSE,148,0.0,1.0,78,0.00,,---,0.00,VWS V14.01,2013-08-26 12:26:00,
2013-08-26 07:27:00,77.0,69.6,30.11,SSE,148,0.0,0.0,78,0.00,,---,0.00,VWS V14.01,2013-08-26 12:27:00,
2013-08-26 07:28:00,77.1,69.7,30.11,SSE,148,0.0,0.0,78,0.00,,---,0.00,VWS V14.01,2013-08-26 12:28:00,
2013-08-26 07:29:00,77.1,69.7,30.11,SSE,148,0.0,0.0,78,0.00,,---,0.00,VWS V14.01,2013-08-26 12:29:00,
2013-08-26 07:30:00,77.1,69.7,30.11,SSE,148,0.0,1.0,78,0.00,,---,0.00,VWS V14.01,2013-08-26 12:30:00,
2013-08-26 07:31:00,77.1,69.7,30.11,SSE,148,0.0,0.0,78,0.00,,---,0.00,VWS V14.01,2013-08-26 12:31:00,
2013-08-26 07:32:00,77.1,69.7,30.11,SSE,148,0.0,1.0,78,0.00,,---,0.00,VWS V14.01,2013-08-26 12:32:00,
2013-08-26 07:33:00,77.1,69.7,30.11,SSE,148,0.0,1.0,78,0.00,,---,0.00,VWS V14.01,2013-08-26 12:33:00,
2013-08-26 07:34:00,77.1,69.7,30.11,SSE,148,0.0,1.0,78,0.00,,---,0.00,VWS V14.01,2013-08-26 12:34:00,
2013-08-26 07:35:00,77.1,69.7,30.11,SSE,148,0.0,0.0,78,0.00,,---,0.00,VWS V14.01,2013-08-26 12:35:00,
2013-08-26 07:36:00,77.2,69.8,30.11,SSE,148,0.0,0.0,78,0.00,,---,0.00,VWS V14.01,2013-08-26 12:36:00,
2013-08-26 07:37:00,77.1,69.7,30.11,SSE,148,0.0,0.0,78,0.00,,---,0.00,VWS V14.01,2013-08-26 12:37:00,
2013-08-26 07:38:00,77.1,69.7,30.11,SSE,148,0.0,0.0,78,0.00,,---,0.00,VWS V14.01,2013-08-26 12:38:00,
2013-08-26 07:39:00,77.1,69.7,30.11,SSE,148,0.0,0.0,78,0.00,,---,0.00,VWS V14.01,2013-08-26 12:39:00,
2013-08-26 07:40:00,77.1,69.7,30.11,SSE,148,0.0,0.0,78,0.00,,---,0.00,VWS V14.01,2013-08-26 12:40:00,
2013-08-26 07:41:00,77.3,69.9,30.12,SSE,148,0.0,0.0,78,0.00,,---,0.00,VWS V14.01,2013-08-26 12:41:00,
2013-08-26 07:42:00,77.2,69.8,30.11,SSE,148,0.0,0.0,78,0.00,,---,0.00,VWS V14.01,2013-08-26 12:42:00,
2013-08-26 07:43:00,77.2,69.8,30.11,SSE,148,0.0,0.0,78,0.00,,---,0.00,VWS V14.01,2013-08-26 12:43:00,
2013-08-26 07:44:00,77.2,69.8,30.11,SSE,148,0.0,0.0,78,0.00,,---,0.00,VWS V14.01,2013-08-26 12:44:00,
2013-08-26 07:45:00,77.2,69.8,30.11,SSE,148,0.0,0.0,78,0.00,,---,0.00,VWS V14.01,2013-08-26 12:45:00,
2013-08-26 07:46:00,77.4,70.0,30.12,SSE,147,0.0,1.0,78,0.00,,---,0.00,VWS V14.01,2013-08-26 12:46:00,
2013-08-26 07:47:00,77.3,69.9,30.12,SSE,148,0.0,0.0,78,0.00,,---,0.00,VWS V14.01,2013-08-26 12:47:00,
2013-08-26 07:48:00,77.3,69.9,30.11,SSE,148,0.0,0.0,78,0.00,,---,0.00,VWS V14.01,2013-08-26 12:48:00,
2013-08-26 07:49:00,77.3,69.9,30.12,SSE,148,0.0,0.0,78,0.00,,---,0.00,VWS V14.01,2013-08-26 12:49:00,
2013-08-26 07:50:00,77.3,69.9,30.12,SSE,148,0.0,0.0,78,0.00,,---,0.00,VWS V14.01,2013-08-26 12:50:00,
2013-08-26 07:51:00,77.5,70.1,30.11,SSE,148,1.0,2.0,78,0.00,,---,0.00,VWS V14.01,2013-08-26 12:51:00,
2013-08-26 07:52:00,77.4,70.0,30.12,SSE,147,0.0,1.0,78,0.00,,---,0.00,VWS V14.01,2013-08-26 12:52:00,
2013-08-26 07:53:00,77.4,70.0,30.11,SSE,147,0.0,1.0,78,0.00,,---,0.00,VWS V14.01,2013-08-26 12:53:00,
2013-08-26 07:54:00,77.5,70.1,30.11,SSE,147,1.0,1.0,78,0.00,,---,0.00,VWS V14.01,2013-08-26 12:54:00,
2013-08-26 07:55:00,77.5,70.1,30.11,SSE,147,1.0,2.0,78,0.00,,---,0.00,VWS V14.01,2013-08-26 12:55:00,
2013-08-26 07:56:00,77.7,70.3,30.11,SE,146,0.0,2.0,78,0.00,,---,0.00,VWS V14.01,2013-08-26 12:56:00,
2013-08-26 07:57:00,77.5,70.1,30.11,SSE,148,0.0,2.0,78,0.00,,---,0.00,VWS V14.01,2013-08-26 12:57:00,
2013-08-26 07:58:00,77.6,70.2,30.12,SE,146,0.0,2.0,78,0.00,,---,0.00,VWS V14.01,2013-08-26 12:58:00,
2013-08-26 07:59:00,77.6,70.2,30.12,SE,146,0.0,2.0,78,0.00,,---,0.00,VWS V14.01,2013-08-26 12:59:00,
2013-08-26 08:00:00,77.6,70.2,30.12,SE,145,0.0,2.0,78,0.00,,---,0.00,VWS V14.01,2013-08-26 13:00:00,
2013-08-26 08:01:00,77.9,70.5,30.11,SE,143,0.0,1.0,78,0.00,,---,0.00,VWS V14.01,2013-08-26 13:01:00,
2013-08-26 08:02:00,77.7,70.3,30.11,SE,146,0.0,2.0,78,0.00,,---,0.00,VWS V14.01,2013-08-26 13:02:00,
2013-08-26 08:03:00,77.8,70.4,30.11,SE,146,0.0,2.0,78,0.00,,---,0.00,VWS V14.01,2013-08-26 13:03:00,
2013-08-26 08:04:00,77.8,70.4,30.11,SE,146,0.0,2.0,78,0.00,,---,0.00,VWS V14.01,2013-08-26 13:04:00,
2013-08-26 08:05:00,77.9,70.5,30.11,SE,142,0.0,1.0,78,0.00,,---,0.00,VWS V14.01,2013-08-26 13:05:00,
2013-08-26 08:06:00,78.1,70.7,30.11,SE,139,0.0,3.0,78,0.00,,---,0.00,VWS V14.01,2013-08-26 13:06:00,
2013-08-26 08:07:00,77.9,70.5,30.11,SE,143,0.0,1.0,78,0.00,,---,0.00,VWS V14.01,2013-08-26 13:07:00,
2013-08-26 08:08:00,78.0,70.6,30.11,SE,143,0.0,1.0,78,0.00,,---,0.00,VWS V14.01,2013-08-26 13:08:00,
2013-08-26 08:09:00,78.0,70.6,30.11,SE,138,0.0,1.0,78,0.00,,---,0.00,VWS V14.01,2013-08-26 13:09:00,
2013-08-26 08:10:00,78.0,70.6,30.12,SE,139,0.0,2.0,78,0.00,,---,0.00,VWS V14.01,2013-08-26 13:10:00,
2013-08-26 08:11:00,78.4,70.6,30.11,SE,140,0.0,1.0,77,0.00,,---,0.00,VWS V14.01,2013-08-26 13:11:00,
2013-08-26 08:12:00,78.2,70.8,30.11,SE,139,0.0,3.0,78,0.00,,---,0.00,VWS V14.01,2013-08-26 13:12:00,
2013-08-26 08:13:00,78.2,70.8,30.11,SE,140,0.0,3.0,78,0.00,,---,0.00,VWS V14.01,2013-08-26 13:13:00,
2013-08-26 08:14:00,78.2,70.8,30.12,SE,140,0.0,3.0,78,0.00,,---,0.00,VWS V14.01,2013-08-26 13:14:00,
2013-08-26 08:15:00,78.3,70.5,30.11,SE,140,0.0,3.0,77,0.00,,---,0.00,VWS V14.01,2013-08-26 13:15:00,
2013-08-26 08:16:00,78.7,71.3,30.12,SE,140,0.0,1.0,78,0.00,,---,0.00,VWS V14.01,2013-08-26 13:16:00,
2013-08-26 08:17:00,78.3,70.5,30.11,SE,140,1.0,1.0,77,0.00,,---,0.00,VWS V14.01,2013-08-26 13:17:00,
2013-08-26 08:18:00,78.4,71.0,30.11,SE,140,0.0,1.0,78,0.00,,---,0.00,VWS V14.01,2013-08-26 13:18:00,
2013-08-26 08:19:00,78.5,70.7,30.11,SE,140,0.0,1.0,77,0.00,,---,0.00,VWS V14.01,2013-08-26 13:19:00,
2013-08-26 08:20:00,78.5,70.7,30.11,SE,140,0.0,1.0,77,0.00,,---,0.00,VWS V14.01,2013-08-26 13:20:00,
2013-08-26 08:21:00,79.1,70.9,30.12,East,99,2.0,2.0,76,0.00,,---,0.00,VWS V14.01,2013-08-26 13:21:00,
2013-08-26 08:22:00,78.7,71.3,30.12,SE,140,0.0,1.0,78,0.00,,---,0.00,VWS V14.01,2013-08-26 13:22:00,
2013-08-26 08:23:00,78.7,70.9,30.12,SE,140,0.0,1.0,77,0.00,,---,0.00,VWS V14.01,2013-08-26 13:23:00,
2013-08-26 08:24:00,78.8,71.0,30.12,SE,140,0.0,1.0,77,0.00,,---,0.00,VWS V14.01,2013-08-26 13:24:00,
2013-08-26 08:25:00,78.9,71.1,30.12,SE,134,0.0,1.0,77,0.00,,---,0.00,VWS V14.01,2013-08-26 13:25:00,
2013-08-26 08:26:00,79.7,71.1,30.11,SE,142,0.0,4.0,75,0.00,,---,0.00,VWS V14.01,2013-08-26 13:26:00,
2013-08-26 08:27:00,79.2,71.0,30.12,ESE,110,2.0,3.0,76,0.00,,---,0.00,VWS V14.01,2013-08-26 13:27:00,
2013-08-26 08:28:00,79.3,70.7,30.11,ESE,121,0.0,3.0,75,0.00,,---,0.00,VWS V14.01,2013-08-26 13:28:00,
2013-08-26 08:30:00,79.5,71.3,30.11,SE,140,1.0,4.0,76,0.00,,---,0.00,VWS V14.01,2013-08-26 13:30:00,
2013-08-26 08:31:00,80.4,71.4,30.11,SSE,153,0.0,6.0,74,0.00,,---,0.00,VWS V14.01,2013-08-26 13:31:00,
2013-08-26 08:32:00,79.8,71.2,30.11,SE,142,0.0,4.0,75,0.00,,---,0.00,VWS V14.01,2013-08-26 13:32:00,
2013-08-26 08:33:00,79.9,71.3,30.11,SE,144,0.0,4.0,75,0.00,,---,0.00,VWS V14.01,2013-08-26 13:33:00,
2013-08-26 08:34:00,80.0,71.4,30.11,SE,144,0.0,4.0,75,0.00,,---,0.00,VWS V14.01,2013-08-26 13:34:00,
2013-08-26 08:35:00,80.2,71.6,30.11,SSE,148,2.0,6.0,75,0.00,,---,0.00,VWS V14.01,2013-08-26 13:35:00,
2013-08-26 08:36:00,81.1,71.2,30.11,SSE,160,0.0,5.0,72,0.00,,---,0.00,VWS V14.01,2013-08-26 13:36:00,
2013-08-26 08:38:00,80.5,71.5,30.11,SSE,157,0.0,6.0,74,0.00,,---,0.00,VWS V14.01,2013-08-26 13:38:00,
2013-08-26 08:39:00,80.7,71.2,30.11,SSE,161,1.0,6.0,73,0.00,,---,0.00,VWS V14.01,2013-08-26 13:39:00,
2013-08-26 08:40:00,80.9,71.4,30.11,SSE,160,0.0,5.0,73,0.00,,---,0.00,VWS V14.01,2013-08-26 13:40:00,
2013-08-26 08:41:00,81.8,71.5,30.11,SSE,148,0.0,4.0,71,0.00,,---,0.00,VWS V14.01,2013-08-26 13:41:00,
2013-08-26 08:43:00,81.3,71.4,30.11,SSE,159,0.0,5.0,72,0.00,,---,0.00,VWS V14.01,2013-08-26 13:43:00,
2013-08-26 08:44:00,81.4,71.9,30.11,SSE,159,0.0,4.0,73,0.00,,---,0.00,VWS V14.01,2013-08-26 13:44:00,
2013-08-26 08:45:00,81.6,72.1,30.11,SSE,161,4.0,4.0,73,0.00,,---,0.00,VWS V14.01,2013-08-26 13:45:00,
2013-08-26 08:46:00,82.5,71.7,30.11,SSE,163,3.0,7.0,70,0.00,,---,0.00,VWS V14.01,2013-08-26 13:46:00,
2013-08-26 08:47:00,81.9,71.6,30.11,SSE,148,4.0,4.0,71,0.00,,---,0.00,VWS V14.01,2013-08-26 13:47:00,
2013-08-26 08:48:00,82.0,71.3,30.11,South,169,3.0,7.0,70,0.00,,---,0.00,VWS V14.01,2013-08-26 13:48:00,
2013-08-26 08:49:00,82.1,71.3,30.11,SSE,168,5.0,7.0,70,0.00,,---,0.00,VWS V14.01,2013-08-26 13:49:00,
2013-08-26 08:51:00,83.1,71.9,30.11,SSE,161,0.0,3.0,69,0.00,,---,0.00,VWS V14.01,2013-08-26 13:51:00,
2013-08-26 08:52:00,82.5,71.7,30.11,SSE,163,1.0,7.0,70,0.00,,---,0.00,VWS V14.01,2013-08-26 13:52:00,
2013-08-26 08:53:00,82.7,71.9,30.11,SSE,161,0.0,5.0,70,0.00,,---,0.00,VWS V14.01,2013-08-26 13:53:00,
2013-08-26 08:54:00,82.8,71.6,30.11,SSE,161,0.0,5.0,69,0.00,,---,0.00,VWS V14.01,2013-08-26 13:54:00,
2013-08-26 08:55:00,82.9,71.7,30.11,SSE,161,0.0,3.0,69,0.00,,---,0.00,VWS V14.01,2013-08-26 13:55:00,
2013-08-26 08:56:00,83.8,72.1,30.11,SE,143,2.0,6.0,68,0.00,,---,0.00,VWS V14.01,2013-08-26 13:56:00,
2013-08-26 08:57:00,83.2,72.0,30.11,SSE,161,0.0,3.0,69,0.00,,---,0.00,VWS V14.01,2013-08-26 13:57:00,
2013-08-26 08:58:00,83.3,72.1,30.11,SSE,162,3.0,3.0,69,0.00,,---,0.00,VWS V14.01,2013-08-26 13:58:00,
2013-08-26 08:59:00,83.4,72.2,30.11,SSE,162,6.0,6.0,69,0.00,,---,0.00,VWS V14.01,2013-08-26 13:59:00,
2013-08-26 09:01:00,84.2,71.6,30.11,SE,146,0.0,5.0,66,0.00,,---,0.00,VWS V14.01,2013-08-26 14:01:00,
2013-08-26 09:02:00,83.8,71.7,30.11,SE,143,0.0,6.0,67,0.00,,---,0.00,VWS V14.01,2013-08-26 14:02:00,
2013-08-26 09:03:00,83.9,71.8,30.11,SE,146,0.0,6.0,67,0.00,,---,0.00,VWS V14.01,2013-08-26 14:03:00,
2013-08-26 09:04:00,83.9,71.8,30.11,SE,146,0.0,6.0,67,0.00,,---,0.00,VWS V14.01,2013-08-26 14:04:00,
2013-08-26 09:06:00,84.5,71.4,30.12,SSE,153,1.0,7.0,65,0.00,,---,0.00,VWS V14.01,2013-08-26 14:06:00,
2013-08-26 09:08:00,84.3,71.7,30.12,SE,144,1.0,5.0,66,0.00,,---,0.00,VWS V14.01,2013-08-26 14:08:00,
2013-08-26 09:11:00,84.7,72.1,30.12,SE,144,0.0,5.0,66,0.00,,---,0.00,VWS V14.01,2013-08-26 14:11:00,
2013-08-26 09:12:00,84.5,71.4,30.12,SSE,153,0.0,7.0,65,0.00,,---,0.00,VWS V14.01,2013-08-26 14:12:00,
2013-08-26 09:13:00,84.6,71.6,30.12,SSE,161,0.0,7.0,65,0.00,,---,0.00,VWS V14.01,2013-08-26 14:13:00,
2013-08-26 09:14:00,84.6,71.6,30.12,SE,132,2.0,7.0,65,0.00,,---,0.00,VWS V14.01,2013-08-26 14:14:00,
2013-08-26 09:16:00,84.9,71.4,30.11,SE,137,0.0,4.0,64,0.00,,---,0.00,VWS V14.01,2013-08-26 14:16:00,
2013-08-26 09:19:00,84.8,71.7,30.12,SE,136,3.0,5.0,65,0.00,,---,0.00,VWS V14.01,2013-08-26 14:19:00,
2013-08-26 09:20:00,84.9,71.4,30.12,SE,134,0.0,5.0,64,0.00,,---,0.00,VWS V14.01,2013-08-26 14:20:00,
2013-08-26 09:21:00,85.1,71.6,30.12,ESE,122,1.0,4.0,64,0.00,,---,0.00,VWS V14.01,2013-08-26 14:21:00,
2013-08-26 09:22:00,84.9,71.4,30.11,SE,137,0.0,4.0,64,0.00,,---,0.00,VWS V14.01,2013-08-26 14:22:00,
2013-08-26 09:24:00,85.0,71.5,30.11,ESE,115,0.0,4.0,64,0.00,,---,0.00,VWS V14.01,2013-08-26 14:24:00,
2013-08-26 09:25:00,85.0,71.5,30.12,SE,131,0.0,4.0,64,0.00,,---,0.00,VWS V14.01,2013-08-26 14:25:00,
2013-08-26 09:26:00,85.4,71.4,30.11,SSE,147,3.0,5.0,63,0.00,,---,0.00,VWS V14.01,2013-08-26 14:26:00,
2013-08-26 09:27:00,85.1,71.6,30.12,ESE,123,0.0,4.0,64,0.00,,---,0.00,VWS V14.01,2013-08-26 14:27:00,
2013-08-26 09:28:00,85.2,71.2,30.12,SE,130,1.0,4.0,63,0.00,,---,0.00,VWS V14.01,2013-08-26 14:28:00,
2013-08-26 09:29:00,85.2,71.2,30.12,ESE,109,0.0,4.0,63,0.00,,---,0.00,VWS V14.01,2013-08-26 14:29:00,
2013-08-26 09:30:00,85.3,71.3,30.12,ENE,78,0.0,5.0,63,0.00,,---,0.00,VWS V14.01,2013-08-26 14:30:00,
2013-08-26 09:31:00,85.8,71.8,30.12,SE,138,2.0,7.0,63,0.00,,---,0.00,VWS V14.01,2013-08-26 14:31:00,
2013-08-26 09:32:00,85.4,71.4,30.11,SSE,155,2.0,7.0,63,0.00,,---,0.00,VWS V14.01,2013-08-26 14:32:00,
2013-08-26 09:33:00,85.5,71.5,30.12,South,173,0.0,7.0,63,0.00,,---,0.00,VWS V14.01,2013-08-26 14:33:00,
2013-08-26 09:34:00,85.6,71.6,30.12,SSE,156,0.0,7.0,63,0.00,,---,0.00,VWS V14.01,2013-08-26 14:34:00,
2013-08-26 09:35:00,85.7,71.7,30.12,ENE,63,0.0,7.0,63,0.00,,---,0.00,VWS V14.01,2013-08-26 14:35:00,
2013-08-26 09:36:00,86.1,71.1,30.12,SE,140,0.0,6.0,61,0.00,,---,0.00,VWS V14.01,2013-08-26 14:36:00,
2013-08-26 09:37:00,85.8,71.3,30.12,South,191,2.0,6.0,62,0.00,,---,0.00,VWS V14.01,2013-08-26 14:37:00,
2013-08-26 09:38:00,85.9,71.4,30.12,South,190,0.0,6.0,62,0.00,,---,0.00,VWS V14.01,2013-08-26 14:38:00,
2013-08-26 09:39:00,86.0,71.0,30.12,SSE,160,0.0,6.0,61,0.00,,---,0.00,VWS V14.01,2013-08-26 14:39:00,
2013-08-26 09:41:00,86.3,71.3,30.12,SSE,157,0.0,7.0,61,0.00,,---,0.00,VWS V14.01,2013-08-26 14:41:00,
2013-08-26 09:42:00,86.1,71.1,30.12,SE,142,2.0,4.0,61,0.00,,---,0.00,VWS V14.01,2013-08-26 14:42:00,
2013-08-26 09:44:00,86.2,71.2,30.12,SE,146,3.0,6.0,61,0.00,,---,0.00,VWS V14.01,2013-08-26 14:44:00,
2013-08-26 09:45:00,86.2,71.2,30.12,SSE,165,0.0,6.0,61,0.00,,---,0.00,VWS V14.01,2013-08-26 14:45:00,
2013-08-26 09:46:00,86.6,71.6,30.12,SE,141,3.0,7.0,61,0.00,,---,0.00,VWS V14.01,2013-08-26 14:46:00,
2013-08-26 09:47:00,86.3,71.3,30.12,SSE,156,0.0,7.0,61,0.00,,---,0.00,VWS V14.01,2013-08-26 14:47:00,
2013-08-26 09:48:00,86.4,71.4,30.12,SE,143,1.0,7.0,61,0.00,,---,0.00,VWS V14.01,2013-08-26 14:48:00,
2013-08-26 09:49:00,86.4,70.9,30.12,ESE,123,0.0,7.0,60,0.00,,---,0.00,VWS V14.01,2013-08-26 14:49:00,
2013-08-26 09:50:00,86.5,71.0,30.12,South,181,0.0,7.0,60,0.00,,---,0.00,VWS V14.01,2013-08-26 14:50:00,
2013-08-26 09:51:00,86.8,71.3,30.12,SSE,158,4.0,9.0,60,0.00,,---,0.00,VWS V14.01,2013-08-26 14:51:00,
2013-08-26 09:52:00,86.6,71.6,30.12,SE,142,1.0,7.0,61,0.00,,---,0.00,VWS V14.01,2013-08-26 14:52:00,
2013-08-26 09:53:00,86.6,71.1,30.12,SE,137,4.0,7.0,60,0.00,,---,0.00,VWS V14.01,2013-08-26 14:53:00,
2013-08-26 09:54:00,86.6,71.1,30.12,SE,142,2.0,7.0,60,0.00,,---,0.00,VWS V14.01,2013-08-26 14:54:00,
2013-08-26 09:55:00,86.7,71.2,30.12,SSE,163,1.0,9.0,60,0.00,,---,0.00,VWS V14.01,2013-08-26 14:55:00,
2013-08-26 09:56:00,87.2,71.1,30.12,SSE,155,3.0,9.0,59,0.00,,---,0.00,VWS V14.01,2013-08-26 14:56:00,
2013-08-26 09:57:00,86.8,71.3,30.12,SSE,163,4.0,9.0,60,0.00,,---,0.00,VWS V14.01,2013-08-26 14:57:00,
2013-08-26 09:59:00,87.0,71.4,30.12,SSE,159,3.0,9.0,60,0.00,,---,0.00,VWS V14.01,2013-08-26 14:59:00,
2013-08-26 10:00:00,87.0,71.4,30.12,SSE,159,6.0,9.0,60,0.00,,---,0.00,VWS V14.01,2013-08-26 15:00:00,
2013-08-26 10:01:00,87.3,71.2,30.12,SE,132,3.0,7.0,59,0.00,,---,0.00,VWS V14.01,2013-08-26 15:01:00,
2013-08-26 10:02:00,87.2,71.1,30.12,SSE,157,5.0,9.0,59,0.00,,---,0.00,VWS V14.01,2013-08-26 15:02:00,
2013-08-26 10:03:00,87.2,71.1,30.12,SSE,159,3.0,6.0,59,0.00,,---,0.00,VWS V14.01,2013-08-26 15:03:00,
2013-08-26 10:04:00,87.3,71.2,30.12,NE,52,6.0,6.0,59,0.00,,---,0.00,VWS V14.01,2013-08-26 15:04:00,
2013-08-26 10:05:00,87.3,71.2,30.12,South,171,5.0,7.0,59,0.00,,---,0.00,VWS V14.01,2013-08-26 15:05:00,
2013-08-26 10:06:00,87.4,71.3,30.12,SSE,153,0.0,5.0,59,0.00,,---,0.00,VWS V14.01,2013-08-26 15:06:00,
2013-08-26 10:07:00,87.3,71.2,30.12,SE,129,3.0,7.0,59,0.00,,---,0.00,VWS V14.01,2013-08-26 15:07:00,
2013-08-26 10:08:00,87.4,70.8,30.12,SE,126,0.0,7.0,58,0.00,,---,0.00,VWS V14.01,2013-08-26 15:08:00,
2013-08-26 10:09:00,87.3,71.2,30.12,SE,130,1.0,7.0,59,0.00,,---,0.00,VWS V14.01,2013-08-26 15:09:00,
2013-08-26 10:10:00,87.4,71.3,30.12,SE,133,0.0,7.0,59,0.00,,---,0.00,VWS V14.01,2013-08-26 15:10:00,
2013-08-26 10:11:00,87.9,71.3,30.12,SE,146,0.0,8.0,58,0.00,,---,0.00,VWS V14.01,2013-08-26 15:11:00,
2013-08-26 10:12:00,87.4,71.3,30.12,SSE,150,0.0,5.0,59,0.00,,---,0.00,VWS V14.01,2013-08-26 15:12:00,
2013-08-26 10:13:00,87.5,71.4,30.12,SE,146,2.0,5.0,59,0.00,,---,0.00,VWS V14.01,2013-08-26 15:13:00,
2013-08-26 10:14:00,87.6,71.0,30.12,SSE,147,1.0,5.0,58,0.00,,---,0.00,VWS V14.01,2013-08-26 15:14:00,
2013-08-26 10:15:00,87.7,71.1,30.12,SSE,155,4.0,5.0,58,0.00,,---,0.00,VWS V14.01,2013-08-26 15:15:00,
2013-08-26 10:16:00,88.3,71.7,30.12,SSE,162,3.0,7.0,58,0.00,,---,0.00,VWS V14.01,2013-08-26 15:16:00,
2013-08-26 10:18:00,88.0,71.4,30.12,SSE,155,6.0,8.0,58,0.00,,---,0.00,VWS V14.01,2013-08-26 15:18:00,
2013-08-26 10:19:00,88.1,72.0,30.12,SSE,158,0.0,8.0,59,0.00,,---,0.00,VWS V14.01,2013-08-26 15:19:00,
2013-08-26 10:20:00,88.2,71.1,30.12,SSE,154,1.0,8.0,57,0.00,,---,0.00,VWS V14.01,2013-08-26 15:20:00,
2013-08-26 10:21:00,88.5,71.3,30.12,SSE,150,4.0,7.0,57,0.00,,---,0.00,VWS V14.01,2013-08-26 15:21:00,
2013-08-26 10:22:00,88.3,71.7,30.12,SSE,159,5.0,7.0,58,0.00,,---,0.00,VWS V14.01,2013-08-26 15:22:00,
2013-08-26 10:23:00,88.3,71.2,30.12,SSE,166,2.0,7.0,57,0.00,,---,0.00,VWS V14.01,2013-08-26 15:23:00,
2013-08-26 10:24:00,88.4,71.2,30.12,SSE,168,0.0,7.0,57,0.00,,---,0.00,VWS V14.01,2013-08-26 15:24:00,
2013-08-26 10:26:00,88.7,72.0,30.12,SSE,159,5.0,9.0,58,0.00,,---,0.00,VWS V14.01,2013-08-26 15:26:00,
2013-08-26 10:28:00,88.5,71.3,30.12,SSE,164,0.0,9.0,57,0.00,,---,0.00,VWS V14.01,2013-08-26 15:28:00,
2013-08-26 10:31:00,89.2,70.9,30.12,SSE,154,0.0,5.0,55,0.00,,---,0.00,VWS V14.01,2013-08-26 15:31:00,
2013-08-26 10:36:00,89.6,71.8,30.12,NE,53,5.0,5.0,56,0.00,,---,0.00,VWS V14.01,2013-08-26 15:36:00,
2013-08-26 10:37:00,89.2,71.5,30.12,SSE,154,0.0,5.0,56,0.00,,---,0.00,VWS V14.01,2013-08-26 15:37:00,
2013-08-26 10:38:00,89.3,71.6,30.12,SSE,156,0.0,5.0,56,0.00,,---,0.00,VWS V14.01,2013-08-26 15:38:00,
2013-08-26 10:39:00,89.4,71.7,30.12,SE,142,2.0,5.0,56,0.00,,---,0.00,VWS V14.01,2013-08-26 15:39:00,
2013-08-26 10:41:00,89.6,70.8,30.12,ESE,122,0.0,5.0,54,0.00,,---,0.00,VWS V14.01,2013-08-26 15:41:00,
2013-08-26 10:42:00,89.6,71.3,30.12,SE,133,2.0,5.0,55,0.00,,---,0.00,VWS V14.01,2013-08-26 15:42:00,
2013-08-26 10:43:00,89.7,71.4,30.12,SSE,157,0.0,5.0,55,0.00,,---,0.00,VWS V14.01,2013-08-26 15:43:00,
2013-08-26 10:44:00,89.7,71.4,30.12,South,169,0.0,5.0,55,0.00,,---,0.00,VWS V14.01,2013-08-26 15:44:00,
2013-08-26 10:46:00,89.4,70.6,30.12,ESE,115,0.0,3.0,54,0.00,,---,0.00,VWS V14.01,2013-08-26 15:46:00,
2013-08-26 10:47:00,89.6,70.8,30.12,ESE,119,0.0,5.0,54,0.00,,---,0.00,VWS V14.01,2013-08-26 15:47:00,
2013-08-26 10:48:00,89.5,71.2,30.12,ESE,111,0.0,5.0,55,0.00,,---,0.00,VWS V14.01,2013-08-26 15:48:00,
2013-08-26 10:50:00,89.5,70.7,30.12,ESE,121,2.0,5.0,54,0.00,,---,0.00,VWS V14.01,2013-08-26 15:50:00,
2013-08-26 10:51:00,89.3,71.0,30.12,ESE,110,0.0,3.0,55,0.00,,---,0.00,VWS V14.01,2013-08-26 15:51:00,
2013-08-26 10:52:00,89.4,70.6,30.12,ESE,117,0.0,3.0,54,0.00,,---,0.00,VWS V14.01,2013-08-26 15:52:00,
2013-08-26 10:53:00,89.3,71.0,30.12,ESE,115,0.0,3.0,55,0.00,,---,0.00,VWS V14.01,2013-08-26 15:53:00,
2013-08-26 10:54:00,89.3,71.0,30.12,ESE,115,0.0,3.0,55,0.00,,---,0.00,VWS V14.01,2013-08-26 15:54:00,
2013-08-26 10:55:00,89.3,71.0,30.12,ESE,117,0.0,2.0,55,0.00,,---,0.00,VWS V14.01,2013-08-26 15:55:00,
2013-08-26 10:56:00,89.6,70.8,30.12,SSE,161,1.0,4.0,54,0.00,,---,0.00,VWS V14.01,2013-08-26 15:56:00,
2013-08-26 10:57:00,89.3,71.0,30.12,ESE,109,0.0,3.0,55,0.00,,---,0.00,VWS V14.01,2013-08-26 15:57:00,
2013-08-26 10:58:00,89.3,71.0,30.12,SE,130,1.0,3.0,55,0.00,,---,0.00,VWS V14.01,2013-08-26 15:58:00,
2013-08-26 10:59:00,89.3,71.6,30.12,SE,138,2.0,3.0,56,0.00,,---,0.00,VWS V14.01,2013-08-26 15:59:00,
2013-08-26 11:00:00,89.5,71.2,30.12,SSE,156,0.0,4.0,55,0.00,,---,0.00,VWS V14.01,2013-08-26 16:00:00,
2013-08-26 11:01:00,90.0,71.1,30.12,SSE,157,0.0,7.0,54,0.00,,---,0.00,VWS V14.01,2013-08-26 16:01:00,
2013-08-26 11:02:00,89.6,70.8,30.12,South,169,3.0,5.0,54,0.00,,---,0.00,VWS V14.01,2013-08-26 16:02:00,
2013-08-26 11:03:00,89.7,70.9,30.12,SE,146,6.0,7.0,54,0.00,,---,0.00,VWS V14.01,2013-08-26 16:03:00,
2013-08-26 11:05:00,89.9,71.0,30.12,SSE,153,2.0,7.0,54,0.00,,---,0.00,VWS V14.01,2013-08-26 16:05:00,
2013-08-26 11:06:00,90.5,71.6,30.12,SSE,165,0.0,10.0,54,0.00,,---,0.00,VWS V14.01,2013-08-26 16:06:00,
2013-08-26 11:07:00,90.0,71.1,30.12,SSE,158,2.0,7.0,54,0.00,,---,0.00,VWS V14.01,2013-08-26 16:07:00,
2013-08-26 11:08:00,90.1,71.2,30.12,SSE,167,1.0,6.0,54,0.00,,---,0.00,VWS V14.01,2013-08-26 16:08:00,
2013-08-26 11:09:00,90.2,71.3,30.12,South,181,5.0,6.0,54,0.00,,---,0.00,VWS V14.01,2013-08-26 16:09:00,
2013-08-26 11:10:00,90.3,71.4,30.12,SSE,155,0.0,10.0,54,0.00,,---,0.00,VWS V14.01,2013-08-26 16:10:00,
2013-08-26 11:11:00,90.8,70.8,30.12,SE,140,0.0,6.0,52,0.00,,---,0.00,VWS V14.01,2013-08-26 16:11:00,
2013-08-26 11:12:00,90.5,71.1,30.12,SSE,165,0.0,10.0,53,0.00,,---,0.00,VWS V14.01,2013-08-26 16:12:00,
2013-08-26 11:13:00,90.6,70.6,30.12,SSE,160,3.0,10.0,52,0.00,,---,0.00,VWS V14.01,2013-08-26 16:13:00,
2013-08-26 11:14:00,90.7,71.2,30.12,SSE,160,4.0,10.0,53,0.00,,---,0.00,VWS V14.01,2013-08-26 16:14:00,
2013-08-26 11:15:00,90.8,71.3,30.12,SE,144,0.0,6.0,53,0.00,,---,0.00,VWS V14.01,2013-08-26 16:15:00,
2013-08-26 11:16:00,90.9,70.8,30.12,ENE,72,0.0,6.0,52,0.00,,---,0.00,VWS V14.01,2013-08-26 16:16:00,
2013-08-26 11:17:00,90.9,70.8,30.12,SE,140,1.0,6.0,52,0.00,,---,0.00,VWS V14.01,2013-08-26 16:17:00,
2013-08-26 11:18:00,90.8,70.8,30.12,SE,138,0.0,6.0,52,0.00,,---,0.00,VWS V14.01,2013-08-26 16:18:00,
2013-08-26 11:19:00,90.8,71.3,30.12,SSE,155,6.0,6.0,53,0.00,,---,0.00,VWS V14.01,2013-08-26 16:19:00,
2013-08-26 11:20:00,90.8,71.9,30.12,SSE,156,1.0,6.0,54,0.00,,---,0.00,VWS V14.01,2013-08-26 16:20:00,
2013-08-26 11:21:00,90.6,70.6,30.12,SE,138,2.0,3.0,52,0.00,,---,0.00,VWS V14.01,2013-08-26 16:21:00,
2013-08-26 11:22:00,90.8,70.8,30.12,ENE,71,0.0,6.0,52,0.00,,---,0.00,VWS V14.01,2013-08-26 16:22:00,
2013-08-26 11:23:00,90.8,70.8,30.12,ENE,76,0.0,6.0,52,0.00,,---,0.00,VWS V14.01,2013-08-26 16:23:00,
2013-08-26 11:25:00,90.7,70.7,30.12,ESE,123,0.0,3.0,52,0.00,,---,0.00,VWS V14.01,2013-08-26 16:25:00,
2013-08-26 11:26:00,90.4,70.9,30.12,ESE,113,2.0,5.0,53,0.00,,---,0.00,VWS V14.01,2013-08-26 16:26:00,
2013-08-26 11:27:00,90.5,70.5,30.12,SE,130,0.0,3.0,52,0.00,,---,0.00,VWS V14.01,2013-08-26 16:27:00,
2013-08-26 11:29:00,90.4,71.5,30.12,SE,129,2.0,3.0,54,0.00,,---,0.00,VWS V14.01,2013-08-26 16:29:00,
2013-08-26 11:31:00,90.5,70.5,30.12,ESE,113,1.0,3.0,52,0.00,,---,0.00,VWS V14.01,2013-08-26 16:31:00,
2013-08-26 11:32:00,90.4,70.9,30.12,ESE,118,0.0,5.0,53,0.00,,---,0.00,VWS V14.01,2013-08-26 16:32:00,
2013-08-26 11:34:00,90.4,70.9,30.12,ESE,111,0.0,5.0,53,0.00,,---,0.00,VWS V14.01,2013-08-26 16:34:00,
2013-08-26 11:35:00,90.4,70.4,30.12,ENE,78,1.0,4.0,52,0.00,,---,0.00,VWS V14.01,2013-08-26 16:35:00,
2013-08-26 11:36:00,90.7,71.2,30.11,East,98,0.0,5.0,53,0.00,,---,0.00,VWS V14.01,2013-08-26 16:36:00,
2013-08-26 11:40:00,90.6,71.1,30.11,SE,136,0.0,5.0,53,0.00,,---,0.00,VWS V14.01,2013-08-26 16:40:00,
2013-08-26 11:41:00,90.9,70.3,30.12,ESE,110,0.0,3.0,51,0.00,,---,0.00,VWS V14.01,2013-08-26 16:41:00,
2013-08-26 11:42:00,90.7,70.7,30.11,East,98,0.0,5.0,52,0.00,,---,0.00,VWS V14.01,2013-08-26 16:42:00,
2013-08-26 11:43:00,90.8,71.3,30.12,East,101,0.0,5.0,53,0.00,,---,0.00,VWS V14.01,2013-08-26 16:43:00,
2013-08-26 11:44:00,90.9,70.8,30.12,ENE,74,0.0,5.0,52,0.00,,---,0.00,VWS V14.01,2013-08-26 16:44:00,
2013-08-26 11:45:00,91.0,70.9,30.11,ESE,109,0.0,2.0,52,0.00,,---,0.00,VWS V14.01,2013-08-26 16:45:00,
2013-08-26 11:46:00,90.7,70.7,30.11,SE,132,0.0,2.0,52,0.00,,---,0.00,VWS V14.01,2013-08-26 16:46:00,
2013-08-26 11:47:00,90.9,70.8,30.12,East,87,0.0,3.0,52,0.00,,---,0.00,VWS V14.01,2013-08-26 16:47:00,
2013-08-26 11:48:00,90.9,70.8,30.11,East,87,0.0,3.0,52,0.00,,---,0.00,VWS V14.01,2013-08-26 16:48:00,
2013-08-26 11:49:00,90.8,70.8,30.11,ENE,75,1.0,3.0,52,0.00,,---,0.00,VWS V14.01,2013-08-26 16:49:00,
2013-08-26 11:50:00,90.8,70.8,30.11,ENE,75,0.0,3.0,52,0.00,,---,0.00,VWS V14.01,2013-08-26 16:50:00,
2013-08-26 11:51:00,90.6,70.6,30.11,SE,146,3.0,7.0,52,0.00,,---,0.00,VWS V14.01,2013-08-26 16:51:00,
2013-08-26 11:52:00,90.7,70.7,30.11,SE,134,0.0,2.0,52,0.00,,---,0.00,VWS V14.01,2013-08-26 16:52:00,
2013-08-26 11:54:00,90.6,70.0,30.12,ESE,114,2.0,5.0,51,0.00,,---,0.00,VWS V14.01,2013-08-26 16:54:00,
2013-08-26 11:55:00,90.6,70.0,30.12,SSE,148,0.0,6.0,51,0.00,,---,0.00,VWS V14.01,2013-08-26 16:55:00,
2013-08-26 11:56:00,91.1,70.5,30.11,East,86,0.0,7.0,51,0.00,,---,0.00,VWS V14.01,2013-08-26 16:56:00,
2013-08-26 11:57:00,90.6,70.0,30.11,SSE,148,5.0,7.0,51,0.00,,---,0.00,VWS V14.01,2013-08-26 16:57:00,
2013-08-26 11:58:00,90.7,70.1,30.11,SE,140,0.0,7.0,51,0.00,,---,0.00,VWS V14.01,2013-08-26 16:58:00,
2013-08-26 11:59:00,90.8,71.3,30.11,SSE,158,0.0,7.0,53,0.00,,---,0.00,VWS V14.01,2013-08-26 16:59:00,
2013-08-26 12:00:00,90.9,70.8,30.11,South,176,4.0,7.0,52,0.00,,---,0.00,VWS V14.01,2013-08-26 17:00:00,
2013-08-26 12:01:00,91.6,70.9,30.11,East,97,0.0,4.0,51,0.00,,---,0.00,VWS V14.01,2013-08-26 17:01:00,
2013-08-26 12:02:00,91.1,70.5,30.11,East,87,0.0,7.0,51,0.00,,---,0.00,VWS V14.01,2013-08-26 17:02:00,
2013-08-26 12:04:00,91.3,71.8,30.11,SE,132,0.0,5.0,53,0.00,,---,0.00,VWS V14.01,2013-08-26 17:04:00,
2013-08-26 12:05:00,91.5,70.8,30.11,SE,143,0.0,5.0,51,0.00,,---,0.00,VWS V14.01,2013-08-26 17:05:00,
2013-08-26 12:06:00,92.0,71.3,30.11,SE,134,0.0,6.0,51,0.00,,---,0.00,VWS V14.01,2013-08-26 17:06:00,
2013-08-26 12:07:00,91.7,71.0,30.11,ESE,118,1.0,4.0,51,0.00,,---,0.00,VWS V14.01,2013-08-26 17:07:00,
2013-08-26 12:08:00,91.7,71.0,30.11,SE,124,0.0,4.0,51,0.00,,---,0.00,VWS V14.01,2013-08-26 17:08:00,
2013-08-26 12:09:00,91.8,71.1,30.11,SE,142,4.0,4.0,51,0.00,,---,0.00,VWS V14.01,2013-08-26 17:09:00,
2013-08-26 12:10:00,91.9,70.6,30.11,SE,136,0.0,6.0,50,0.00,,---,0.00,VWS V14.01,2013-08-26 17:10:00,
2013-08-26 12:11:00,92.4,71.1,30.11,East,99,0.0,4.0,50,0.00,,---,0.00,VWS V14.01,2013-08-26 17:11:00,
2013-08-26 12:12:00,92.1,71.4,30.11,SE,130,0.0,6.0,51,0.00,,---,0.00,VWS V14.01,2013-08-26 17:12:00,
2013-08-26 12:13:00,92.2,71.5,30.11,ESE,123,0.0,6.0,51,0.00,,---,0.00,VWS V14.01,2013-08-26 17:13:00,
2013-08-26 12:14:00,92.2,71.5,30.11,East,98,0.0,6.0,51,0.00,,---,0.00,VWS V14.01,2013-08-26 17:14:00,
2013-08-26 12:15:00,92.3,71.0,30.11,ESE,115,0.0,4.0,50,0.00,,---,0.00,VWS V14.01,2013-08-26 17:15:00,
2013-08-26 12:16:00,92.9,70.9,30.10,SSE,165,4.0,6.0,49,0.00,,---,0.00,VWS V14.01,2013-08-26 17:16:00,
2013-08-26 12:17:00,92.4,71.1,30.11,ESE,107,0.0,4.0,50,0.00,,---,0.00,VWS V14.01,2013-08-26 17:17:00,
2013-08-26 12:18:00,92.6,71.3,30.11,SE,128,1.0,4.0,50,0.00,,---,0.00,VWS V14.01,2013-08-26 17:18:00,
2013-08-26 12:19:00,92.6,71.8,30.11,SE,128,0.0,4.0,51,0.00,,---,0.00,VWS V14.01,2013-08-26 17:19:00,
2013-08-26 12:21:00,93.3,70.7,30.11,East,82,0.0,10.0,48,0.00,,---,0.00,VWS V14.01,2013-08-26 17:21:00,
2013-08-26 12:22:00,93.0,71.0,30.10,South,172,7.0,7.0,49,0.00,,---,0.00,VWS V14.01,2013-08-26 17:22:00,
2013-08-26 12:23:00,93.1,70.5,30.11,South,173,3.0,10.0,48,0.00,,---,0.00,VWS V14.01,2013-08-26 17:23:00,
2013-08-26 12:25:00,93.3,70.7,30.11,SSE,148,2.0,10.0,48,0.00,,---,0.00,VWS V14.01,2013-08-26 17:25:00,
2013-08-26 12:26:00,93.3,70.7,30.11,SSE,162,0.0,10.0,48,0.00,,---,0.00,VWS V14.01,2013-08-26 17:26:00,
2013-08-26 12:27:00,93.3,70.7,30.11,East,82,0.0,10.0,48,0.00,,---,0.00,VWS V14.01,2013-08-26 17:27:00,
2013-08-26 12:28:00,93.3,70.1,30.11,SSE,159,2.0,7.0,47,0.00,,---,0.00,VWS V14.01,2013-08-26 17:28:00,
2013-08-26 12:29:00,93.3,70.1,30.11,SSE,165,4.0,10.0,47,0.00,,---,0.00,VWS V14.01,2013-08-26 17:29:00,
2013-08-26 12:30:00,93.3,70.7,30.11,SSE,164,3.0,10.0,48,0.00,,---,0.00,VWS V14.01,2013-08-26 17:30:00,
2013-08-26 12:31:00,93.4,70.8,30.10,South,169,0.0,6.0,48,0.00,,---,0.00,VWS V14.01,2013-08-26 17:31:00,
2013-08-26 12:33:00,93.3,70.7,30.10,SSE,165,0.0,10.0,48,0.00,,---,0.00,VWS V14.01,2013-08-26 17:33:00,
2013-08-26 12:34:00,93.3,70.7,30.10,SSE,155,2.0,10.0,48,0.00,,---,0.00,VWS V14.01,2013-08-26 17:34:00,
2013-08-26 12:35:00,93.3,70.1,30.10,SSE,154,0.0,7.0,47,0.00,,---,0.00,VWS V14.01,2013-08-26 17:35:00,
2013-08-26 12:36:00,93.4,71.4,30.10,SSE,150,2.0,4.0,49,0.00,,---,0.00,VWS V14.01,2013-08-26 17:36:00,
2013-08-26 12:37:00,93.4,70.8,30.10,SSE,164,1.0,6.0,48,0.00,,---,0.00,VWS V14.01,2013-08-26 17:37:00,
2013-08-26 12:38:00,93.4,70.8,30.10,SSE,153,0.0,4.0,48,0.00,,---,0.00,VWS V14.01,2013-08-26 17:38:00,
2013-08-26 12:39:00,93.4,70.2,30.11,SSE,153,0.0,4.0,47,0.00,,---,0.00,VWS V14.01,2013-08-26 17:39:00,
2013-08-26 12:40:00,93.4,70.2,30.10,SSE,155,0.0,4.0,47,0.00,,---,0.00,VWS V14.01,2013-08-26 17:40:00,
2013-08-26 12:41:00,93.6,71.0,30.10,SE,131,0.0,3.0,48,0.00,,---,0.00,VWS V14.01,2013-08-26 17:41:00,
2013-08-26 12:42:00,93.4,71.4,30.10,East,101,0.0,4.0,49,0.00,,---,0.00,VWS V14.01,2013-08-26 17:42:00,
2013-08-26 12:43:00,93.5,70.3,30.10,ENE,77,0.0,4.0,47,0.00,,---,0.00,VWS V14.01,2013-08-26 17:43:00,
2013-08-26 12:44:00,93.5,70.3,30.10,East,79,1.0,4.0,47,0.00,,---,0.00,VWS V14.01,2013-08-26 17:44:00,
2013-08-26 12:45:00,93.5,70.9,30.10,ESE,111,1.0,4.0,48,0.00,,---,0.00,VWS V14.01,2013-08-26 17:45:00,
2013-08-26 12:46:00,93.8,70.5,30.10,SSE,163,1.0,7.0,47,0.00,,---,0.00,VWS V14.01,2013-08-26 17:46:00,
2013-08-26 12:47:00,93.6,71.0,30.10,SE,131,0.0,3.0,48,0.00,,---,0.00,VWS V14.01,2013-08-26 17:47:00,
2013-08-26 12:48:00,93.7,71.1,30.10,SE,141,1.0,3.0,48,0.00,,---,0.00,VWS V14.01,2013-08-26 17:48:00,
2013-08-26 12:49:00,93.7,70.4,30.10,SE,142,0.0,3.0,47,0.00,,---,0.00,VWS V14.01,2013-08-26 17:49:00,
2013-08-26 12:50:00,93.8,70.5,30.10,SSE,167,1.0,7.0,47,0.00,,---,0.00,VWS V14.01,2013-08-26 17:50:00,
2013-08-26 12:51:00,94.2,70.9,30.09,South,171,2.0,9.0,47,0.00,,---,0.00,VWS V14.01,2013-08-26 17:51:00,
2013-08-26 12:52:00,93.8,70.5,30.10,SE,140,3.0,7.0,47,0.00,,---,0.00,VWS V14.01,2013-08-26 17:52:00,
2013-08-26 12:53:00,93.9,70.6,30.10,SE,140,0.0,7.0,47,0.00,,---,0.00,VWS V14.01,2013-08-26 17:53:00,
2013-08-26 12:54:00,94.0,70.7,30.10,SE,144,1.0,7.0,47,0.00,,---,0.00,VWS V14.01,2013-08-26 17:54:00,
2013-08-26 12:55:00,94.0,71.3,30.09,SSE,154,3.0,6.0,48,0.00,,---,0.00,VWS V14.01,2013-08-26 17:55:00,
2013-08-26 12:56:00,94.5,71.8,30.09,SSE,162,9.0,9.0,48,0.00,,---,0.00,VWS V14.01,2013-08-26 17:56:00,
2013-08-26 12:57:00,94.2,70.9,30.09,South,172,5.0,9.0,47,0.00,,---,0.00,VWS V14.01,2013-08-26 17:57:00,
2013-08-26 12:58:00,94.2,70.9,30.09,ENE,78,1.0,9.0,47,0.00,,---,0.00,VWS V14.01,2013-08-26 17:58:00,
2013-08-26 12:59:00,94.3,70.4,30.09,ENE,78,0.0,9.0,46,0.00,,---,0.00,VWS V14.01,2013-08-26 17:59:00,
2013-08-26 13:00:00,94.4,71.1,30.09,SE,134,1.0,9.0,47,0.00,,---,0.00,VWS V14.01,2013-08-26 18:00:00,
2013-08-26 13:01:00,94.8,70.8,30.09,SSE,158,0.0,9.0,46,0.00,,---,0.00,VWS V14.01,2013-08-26 18:01:00,
2013-08-26 13:02:00,94.5,71.8,30.09,SSE,162,9.0,9.0,48,0.00,,---,0.00,VWS V14.01,2013-08-26 18:02:00,
2013-08-26 13:03:00,94.5,71.8,30.09,SSE,162,2.0,9.0,48,0.00,,---,0.00,VWS V14.01,2013-08-26 18:03:00,
2013-08-26 13:04:00,94.6,71.3,30.09,SSE,160,2.0,9.0,47,0.00,,---,0.00,VWS V14.01,2013-08-26 18:04:00,
2013-08-26 13:05:00,94.7,70.7,30.09,SSE,163,0.0,9.0,46,0.00,,---,0.00,VWS V14.01,2013-08-26 18:05:00,
2013-08-26 13:06:00,94.9,70.9,30.09,SSE,157,0.0,2.0,46,0.00,,---,0.00,VWS V14.01,2013-08-26 18:06:00,
2013-08-26 13:07:00,94.8,70.8,30.09,SSE,159,2.0,9.0,46,0.00,,---,0.00,VWS V14.01,2013-08-26 18:07:00,
2013-08-26 13:09:00,94.9,70.9,30.09,SSE,160,0.0,5.0,46,0.00,,---,0.00,VWS V14.01,2013-08-26 18:09:00,
2013-08-26 13:10:00,94.9,71.5,30.09,SSE,160,0.0,2.0,47,0.00,,---,0.00,VWS V14.01,2013-08-26 18:10:00,
2013-08-26 13:11:00,95.1,71.1,30.09,SE,141,0.0,9.0,46,0.00,,---,0.00,VWS V14.01,2013-08-26 18:11:00,
2013-08-26 13:12:00,94.9,70.9,30.09,SSE,157,1.0,2.0,46,0.00,,---,0.00,VWS V14.01,2013-08-26 18:12:00,
2013-08-26 13:13:00,95.0,71.6,30.09,South,174,9.0,11.0,47,0.00,,---,0.00,VWS V14.01,2013-08-26 18:13:00,
2013-08-26 13:14:00,95.0,70.3,30.09,South,172,4.0,9.0,45,0.00,,---,0.00,VWS V14.01,2013-08-26 18:14:00,
2013-08-26 13:15:00,95.1,71.1,30.09,SE,144,0.0,9.0,46,0.00,,---,0.00,VWS V14.01,2013-08-26 18:15:00,
2013-08-26 13:16:00,95.4,70.7,30.08,SSE,167,0.0,5.0,45,0.00,,---,0.00,VWS V14.01,2013-08-26 18:16:00,
2013-08-26 13:17:00,95.1,71.1,30.09,SE,140,2.0,9.0,46,0.00,,---,0.00,VWS V14.01,2013-08-26 18:17:00,
2013-08-26 13:18:00,95.2,70.5,30.09,SE,140,0.0,8.0,45,0.00,,---,0.00,VWS V14.01,2013-08-26 18:18:00,
2013-08-26 13:19:00,95.2,71.2,30.09,SSE,152,3.0,5.0,46,0.00,,---,0.00,VWS V14.01,2013-08-26 18:19:00,
2013-08-26 13:20:00,95.3,71.3,30.08,SSE,158,2.0,5.0,46,0.00,,---,0.00,VWS V14.01,2013-08-26 18:20:00,
2013-08-26 13:21:00,95.5,71.4,30.08,SSE,154,0.0,2.0,46,0.00,,---,0.00,VWS V14.01,2013-08-26 18:21:00,
2013-08-26 13:22:00,95.4,70.7,30.08,SSE,167,0.0,5.0,45,0.00,,---,0.00,VWS V14.01,2013-08-26 18:22:00,
2013-08-26 13:23:00,95.4,70.7,30.08,SSE,168,0.0,5.0,45,0.00,,---,0.00,VWS V14.01,2013-08-26 18:23:00,
2013-08-26 13:24:00,95.4,71.3,30.08,SSE,167,1.0,5.0,46,0.00,,---,0.00,VWS V14.01,2013-08-26 18:24:00,
2013-08-26 13:25:00,95.4,71.3,30.08,SSE,163,0.0,5.0,46,0.00,,---,0.00,VWS V14.01,2013-08-26 18:25:00,
2013-08-26 13:26:00,95.7,71.0,30.08,SE,125,1.0,5.0,45,0.00,,---,0.00,VWS V14.01,2013-08-26 18:26:00,
2013-08-26 13:27:00,95.5,71.4,30.08,SSE,154,0.0,2.0,46,0.00,,---,0.00,VWS V14.01,2013-08-26 18:27:00,
2013-08-26 13:28:00,95.5,71.4,30.08,SSE,151,0.0,3.0,46,0.00,,---,0.00,VWS V14.01,2013-08-26 18:28:00,
2013-08-26 13:29:00,95.6,72.2,30.08,SSE,160,1.0,4.0,47,0.00,,---,0.00,VWS V14.01,2013-08-26 18:29:00,
2013-08-26 13:30:00,95.6,71.5,30.08,SE,136,3.0,5.0,46,0.00,,---,0.00,VWS V14.01,2013-08-26 18:30:00,
2013-08-26 13:31:00,95.6,70.9,30.08,ESE,119,1.0,3.0,45,0.00,,---,0.00,VWS V14.01,2013-08-26 18:31:00,
2013-08-26 13:32:00,95.7,71.0,30.08,SE,127,0.0,5.0,45,0.00,,---,0.00,VWS V14.01,2013-08-26 18:32:00,
2013-08-26 13:33:00,95.7,71.6,30.08,SE,137,0.0,5.0,46,0.00,,---,0.00,VWS V14.01,2013-08-26 18:33:00,
2013-08-26 13:34:00,95.7,71.0,30.08,East,98,0.0,5.0,45,0.00,,---,0.00,VWS V14.01,2013-08-26 18:34:00,
2013-08-26 13:35:00,95.7,71.0,30.08,East,84,0.0,3.0,45,0.00,,---,0.00,VWS V14.01,2013-08-26 18:35:00,
2013-08-26 13:36:00,95.2,69.9,30.08,East,80,0.0,3.0,44,0.00,,---,0.00,VWS V14.01,2013-08-26 18:36:00,
2013-08-26 13:37:00,95.6,70.9,30.08,ESE,119,0.0,3.0,45,0.00,,---,0.00,VWS V14.01,2013-08-26 18:37:00,
2013-08-26 13:38:00,95.6,70.9,30.08,East,92,0.0,2.0,45,0.00,,---,0.00,VWS V14.01,2013-08-26 18:38:00,
2013-08-26 13:40:00,95.4,70.7,30.08,East,80,0.0,3.0,45,0.00,,---,0.00,VWS V14.01,2013-08-26 18:40:00,
2013-08-26 13:41:00,94.7,70.7,30.07,ESE,106,0.0,3.0,46,0.00,,---,0.00,VWS V14.01,2013-08-26 18:41:00,
2013-08-26 13:42:00,95.2,69.9,30.08,East,80,0.0,3.0,44,0.00,,---,0.00,VWS V14.01,2013-08-26 18:42:00,
2013-08-26 13:43:00,95.1,70.4,30.08,East,80,0.0,3.0,45,0.00,,---,0.00,VWS V14.01,2013-08-26 18:43:00,
2013-08-26 13:44:00,94.9,70.2,30.07,East,80,1.0,2.0,45,0.00,,---,0.00,VWS V14.01,2013-08-26 18:44:00,
2013-08-26 13:45:00,94.8,70.8,30.07,East,80,0.0,1.0,46,0.00,,---,0.00,VWS V14.01,2013-08-26 18:45:00,
2013-08-26 13:46:00,94.9,70.9,30.07,SE,126,1.0,4.0,46,0.00,,---,0.00,VWS V14.01,2013-08-26 18:46:00,
2013-08-26 13:47:00,94.6,70.6,30.07,ESE,107,0.0,3.0,46,0.00,,---,0.00,VWS V14.01,2013-08-26 18:47:00,
2013-08-26 13:48:00,94.7,71.3,30.07,ESE,112,0.0,3.0,47,0.00,,---,0.00,VWS V14.01,2013-08-26 18:48:00,
2013-08-26 13:49:00,94.7,71.3,30.07,SE,126,0.0,3.0,47,0.00,,---,0.00,VWS V14.01,2013-08-26 18:49:00,
2013-08-26 13:50:00,94.7,70.7,30.07,ESE,120,0.0,3.0,46,0.00,,---,0.00,VWS V14.01,2013-08-26 18:50:00,
2013-08-26 13:51:00,95.0,69.7,30.07,ESE,118,1.0,6.0,44,0.00,,---,0.00,VWS V14.01,2013-08-26 18:51:00,
2013-08-26 13:52:00,94.9,70.9,30.07,SE,126,1.0,4.0,46,0.00,,---,0.00,VWS V14.01,2013-08-26 18:52:00,
2013-08-26 13:53:00,94.9,70.9,30.07,ESE,123,1.0,6.0,46,0.00,,---,0.00,VWS V14.01,2013-08-26 18:53:00,
2013-08-26 13:54:00,95.0,70.3,30.07,SSE,150,1.0,6.0,45,0.00,,---,0.00,VWS V14.01,2013-08-26 18:54:00,
2013-08-26 13:55:00,95.0,70.3,30.07,ESE,103,0.0,6.0,45,0.00,,---,0.00,VWS V14.01,2013-08-26 18:55:00,
2013-08-26 13:56:00,95.1,69.8,30.06,East,84,0.0,5.0,44,0.00,,---,0.00,VWS V14.01,2013-08-26 18:56:00,
2013-08-26 13:57:00,95.0,69.7,30.07,ESE,117,0.0,6.0,44,0.00,,---,0.00,VWS V14.01,2013-08-26 18:57:00,
2013-08-26 13:58:00,95.1,71.1,30.06,ESE,121,0.0,6.0,46,0.00,,---,0.00,VWS V14.01,2013-08-26 18:58:00,
2013-08-26 13:59:00,95.1,69.8,30.07,ESE,123,0.0,2.0,44,0.00,,---,0.00,VWS V14.01,2013-08-26 18:59:00,
2013-08-26 14:00:00,95.1,69.8,30.06,ESE,123,0.0,2.0,44,0.00,,---,0.00,VWS V14.01,2013-08-26 19:00:00,
2013-08-26 14:01:00,95.1,69.1,30.06,SE,127,1.0,7.0,43,0.00,,---,0.00,VWS V14.01,2013-08-26 19:01:00,
2013-08-26 14:02:00,95.1,69.8,30.06,East,84,0.0,5.0,44,0.00,,---,0.00,VWS V14.01,2013-08-26 19:02:00,
2013-08-26 14:03:00,95.1,70.4,30.06,East,85,0.0,5.0,45,0.00,,---,0.00,VWS V14.01,2013-08-26 19:03:00,
2013-08-26 14:04:00,95.1,69.8,30.06,South,173,3.0,7.0,44,0.00,,---,0.00,VWS V14.01,2013-08-26 19:04:00,
2013-08-26 14:05:00,95.2,69.9,30.06,ESE,102,0.0,7.0,44,0.00,,---,0.00,VWS V14.01,2013-08-26 19:05:00,
2013-08-26 14:06:00,95.1,69.8,30.06,SE,142,5.0,7.0,44,0.00,,---,0.00,VWS V14.01,2013-08-26 19:06:00,
2013-08-26 14:07:00,95.1,69.1,30.06,ESE,120,0.0,7.0,43,0.00,,---,0.00,VWS V14.01,2013-08-26 19:07:00,
2013-08-26 14:08:00,95.0,69.7,30.06,SSE,167,6.0,7.0,44,0.00,,---,0.00,VWS V14.01,2013-08-26 19:08:00,
2013-08-26 14:09:00,95.0,69.7,30.06,SSE,157,2.0,6.0,44,0.00,,---,0.00,VWS V14.01,2013-08-26 19:09:00,
2013-08-26 14:10:00,95.0,70.3,30.06,SSE,157,1.0,6.0,45,0.00,,---,0.00,VWS V14.01,2013-08-26 19:10:00,
2013-08-26 14:11:00,95.5,70.8,30.06,SSE,154,0.0,5.0,45,0.00,,---,0.00,VWS V14.01,2013-08-26 19:11:00,
2013-08-26 14:12:00,95.1,69.8,30.06,SE,143,2.0,7.0,44,0.00,,---,0.00,VWS V14.01,2013-08-26 19:12:00,
2013-08-26 14:14:00,95.3,69.3,30.06,SSE,153,0.0,7.0,43,0.00,,---,0.00,VWS V14.01,2013-08-26 19:14:00,
2013-08-26 14:15:00,95.3,69.3,30.06,SSE,150,1.0,7.0,43,0.00,,---,0.00,VWS V14.01,2013-08-26 19:15:00,
2013-08-26 14:16:00,96.0,69.2,30.05,SSE,158,0.0,6.0,42,0.00,,---,0.00,VWS V14.01,2013-08-26 19:16:00,
2013-08-26 14:17:00,95.5,70.8,30.06,SSE,154,0.0,4.0,45,0.00,,---,0.00,VWS V14.01,2013-08-26 19:17:00,
2013-08-26 14:18:00,95.6,70.2,30.06,SSE,157,4.0,4.0,44,0.00,,---,0.00,VWS V14.01,2013-08-26 19:18:00,
2013-08-26 14:20:00,95.8,69.7,30.06,SE,144,5.0,5.0,43,0.00,,---,0.00,VWS V14.01,2013-08-26 19:20:00,
2013-08-26 14:21:00,96.5,69.7,30.05,ENE,77,1.0,5.0,42,0.00,,---,0.00,VWS V14.01,2013-08-26 19:21:00,
2013-08-26 14:25:00,96.4,70.3,30.05,SSE,154,1.0,6.0,43,0.00,,---,0.00,VWS V14.01,2013-08-26 19:25:00,
2013-08-26 14:26:00,96.3,68.8,30.05,East,84,0.0,4.0,41,0.00,,---,0.00,VWS V14.01,2013-08-26 19:26:00,
2013-08-26 14:27:00,96.5,69.7,30.05,ENE,77,1.0,5.0,42,0.00,,---,0.00,VWS V14.01,2013-08-26 19:27:00,
2013-08-26 14:28:00,96.6,69.8,30.05,ESE,110,0.0,5.0,42,0.00,,---,0.00,VWS V14.01,2013-08-26 19:28:00,
2013-08-26 14:29:00,96.6,69.1,30.05,ESE,115,1.0,5.0,41,0.00,,---,0.00,VWS V14.01,2013-08-26 19:29:00,
2013-08-26 14:30:00,96.5,69.0,30.05,ESE,109,1.0,5.0,41,0.00,,---,0.00,VWS V14.01,2013-08-26 19:30:00,
2013-08-26 14:31:00,96.1,70.0,30.05,ENE,61,0.0,5.0,43,0.00,,---,0.00,VWS V14.01,2013-08-26 19:31:00,
2013-08-26 14:32:00,96.3,68.8,30.05,East,84,0.0,4.0,41,0.00,,---,0.00,VWS V14.01,2013-08-26 19:32:00,
2013-08-26 14:33:00,96.3,69.5,30.05,East,84,0.0,4.0,42,0.00,,---,0.00,VWS V14.01,2013-08-26 19:33:00,
2013-08-26 14:34:00,96.2,69.4,30.05,East,82,1.0,4.0,42,0.00,,---,0.00,VWS V14.01,2013-08-26 19:34:00,
2013-08-26 14:35:00,96.2,69.4,30.05,ENE,61,0.0,5.0,42,0.00,,---,0.00,VWS V14.01,2013-08-26 19:35:00,
2013-08-26 14:36:00,95.9,68.4,30.05,East,96,0.0,2.0,41,0.00,,---,0.00,VWS V14.01,2013-08-26 19:36:00,
2013-08-26 14:38:00,96.1,70.0,30.05,ENE,61,0.0,5.0,43,0.00,,---,0.00,VWS V14.01,2013-08-26 19:38:00,
2013-08-26 14:40:00,96.0,69.2,30.05,East,98,0.0,2.0,42,0.00,,---,0.00,VWS V14.01,2013-08-26 19:40:00,
2013-08-26 14:41:00,96.0,67.8,30.04,SSE,157,0.0,8.0,40,0.00,,---,0.00,VWS V14.01,2013-08-26 19:41:00,
2013-08-26 14:42:00,95.9,68.4,30.05,East,96,0.0,2.0,41,0.00,,---,0.00,VWS V14.01,2013-08-26 19:42:00,
2013-08-26 14:44:00,95.9,68.4,30.05,ESE,105,1.0,3.0,41,0.00,,---,0.00,VWS V14.01,2013-08-26 19:44:00,
2013-08-26 14:45:00,95.9,68.4,30.05,SE,131,2.0,3.0,41,0.00,,---,0.00,VWS V14.01,2013-08-26 19:45:00,
2013-08-26 14:46:00,96.2,68.7,30.04,SSE,148,2.0,5.0,41,0.00,,---,0.00,VWS V14.01,2013-08-26 19:46:00,
2013-08-26 14:47:00,96.0,67.8,30.04,SSE,157,0.0,8.0,40,0.00,,---,0.00,VWS V14.01,2013-08-26 19:47:00,
2013-08-26 14:48:00,96.0,68.5,30.04,SSE,163,0.0,8.0,41,0.00,,---,0.00,VWS V14.01,2013-08-26 19:48:00,
2013-08-26 14:49:00,96.0,69.2,30.04,SSE,163,0.0,8.0,42,0.00,,---,0.00,VWS V14.01,2013-08-26 19:49:00,
2013-08-26 14:50:00,96.1,68.6,30.04,East,87,3.0,8.0,41,0.00,,---,0.00,VWS V14.01,2013-08-26 19:50:00,
2013-08-26 14:51:00,96.7,69.1,30.04,SSE,156,0.0,6.0,41,0.00,,---,0.00,VWS V14.01,2013-08-26 19:51:00,
2013-08-26 14:53:00,96.3,68.8,30.04,SE,146,2.0,6.0,41,0.00,,---,0.00,VWS V14.01,2013-08-26 19:53:00,
2013-08-26 14:54:00,96.4,69.6,30.04,SE,145,0.0,6.0,42,0.00,,---,0.00,VWS V14.01,2013-08-26 19:54:00,
2013-08-26 14:55:00,96.5,69.0,30.04,SSE,154,0.0,6.0,41,0.00,,---,0.00,VWS V14.01,2013-08-26 19:55:00,
2013-08-26 14:56:00,97.0,68.7,30.04,SSE,162,1.0,9.0,40,0.00,,---,0.00,VWS V14.01,2013-08-26 19:56:00,
2013-08-26 14:58:00,96.7,69.8,30.04,SSE,152,0.0,4.0,42,0.00,,---,0.00,VWS V14.01,2013-08-26 19:58:00,
2013-08-26 15:01:00,97.2,68.1,30.04,South,169,5.0,11.0,39,0.00,,---,0.00,VWS V14.01,2013-08-26 20:01:00,
2013-08-26 15:02:00,97.0,68.7,30.04,SSE,162,1.0,9.0,40,0.00,,---,0.00,VWS V14.01,2013-08-26 20:02:00,
2013-08-26 15:03:00,97.0,67.2,30.04,SSE,162,0.0,9.0,38,0.00,,---,0.00,VWS V14.01,2013-08-26 20:03:00,
2013-08-26 15:04:00,97.1,67.3,30.04,East,90,0.0,9.0,38,0.00,,---,0.00,VWS V14.01,2013-08-26 20:04:00,
2013-08-26 15:05:00,97.1,67.3,30.04,SSE,161,10.0,10.0,38,0.00,,---,0.00,VWS V14.01,2013-08-26 20:05:00,
2013-08-26 15:06:00,97.4,68.3,30.03,SSE,163,0.0,7.0,39,0.00,,---,0.00,VWS V14.01,2013-08-26 20:06:00,
2013-08-26 15:07:00,97.2,68.1,30.04,South,169,5.0,11.0,39,0.00,,---,0.00,VWS V14.01,2013-08-26 20:07:00,
2013-08-26 15:08:00,97.3,67.5,30.03,SSE,162,4.0,11.0,38,0.00,,---,0.00,VWS V14.01,2013-08-26 20:08:00,
2013-08-26 15:10:00,97.3,67.5,30.03,SSE,155,1.0,11.0,38,0.00,,---,0.00,VWS V14.01,2013-08-26 20:10:00,
2013-08-26 15:11:00,97.6,67.7,30.03,SSE,163,1.0,6.0,38,0.00,,---,0.00,VWS V14.01,2013-08-26 20:11:00,
2013-08-26 15:12:00,97.4,68.3,30.03,SSE,163,0.0,7.0,39,0.00,,---,0.00,VWS V14.01,2013-08-26 20:12:00,
2013-08-26 15:13:00,97.5,67.6,30.03,SSE,158,0.0,7.0,38,0.00,,---,0.00,VWS V14.01,2013-08-26 20:13:00,
2013-08-26 15:14:00,97.5,66.9,30.03,SSE,157,1.0,6.0,37,0.00,,---,0.00,VWS V14.01,2013-08-26 20:14:00,
2013-08-26 15:15:00,97.6,67.0,30.03,SSE,156,0.0,5.0,37,0.00,,---,0.00,VWS V14.01,2013-08-26 20:15:00,
2013-08-26 15:16:00,97.8,67.9,30.03,SE,143,3.0,4.0,38,0.00,,---,0.00,VWS V14.01,2013-08-26 20:16:00,
2013-08-26 15:17:00,97.6,67.7,30.03,SSE,163,1.0,6.0,38,0.00,,---,0.00,VWS V14.01,2013-08-26 20:17:00,
2013-08-26 15:18:00,97.6,67.7,30.03,SSE,160,1.0,6.0,38,0.00,,---,0.00,VWS V14.01,2013-08-26 20:18:00,
2013-08-26 15:19:00,97.7,67.8,30.03,SSE,151,0.0,6.0,38,0.00,,---,0.00,VWS V14.01,2013-08-26 20:19:00,
2013-08-26 15:20:00,97.7,67.8,30.03,SE,143,0.0,6.0,38,0.00,,---,0.00,VWS V14.01,2013-08-26 20:20:00,
2013-08-26 15:21:00,98.0,68.1,30.03,SE,136,0.0,5.0,38,0.00,,---,0.00,VWS V14.01,2013-08-26 20:21:00,
2013-08-26 15:22:00,97.8,67.9,30.03,SE,143,3.0,4.0,38,0.00,,---,0.00,VWS V14.01,2013-08-26 20:22:00,
2013-08-26 15:23:00,97.8,67.9,30.03,SSE,163,0.0,5.0,38,0.00,,---,0.00,VWS V14.01,2013-08-26 20:23:00,
2013-08-26 15:24:00,97.8,67.9,30.03,ESE,111,0.0,5.0,38,0.00,,---,0.00,VWS V14.01,2013-08-26 20:24:00,
2013-08-26 15:25:00,97.9,67.2,30.03,SE,142,2.0,5.0,37,0.00,,---,0.00,VWS V14.01,2013-08-26 20:25:00,
2013-08-26 15:26:00,98.3,67.6,30.02,SSE,159,2.0,9.0,37,0.00,,---,0.00,VWS V14.01,2013-08-26 20:26:00,
2013-08-26 15:27:00,98.0,68.1,30.03,SE,136,0.0,5.0,38,0.00,,---,0.00,VWS V14.01,2013-08-26 20:27:00,
2013-08-26 15:28:00,98.1,66.6,30.03,SE,138,0.0,3.0,36,0.00,,---,0.00,VWS V14.01,2013-08-26 20:28:00,
2013-08-26 15:29:00,98.2,66.7,30.03,SE,144,1.0,3.0,36,0.00,,---,0.00,VWS V14.01,2013-08-26 20:29:00,
2013-08-26 15:30:00,98.2,67.5,30.03,SSE,162,1.0,5.0,37,0.00,,---,0.00,VWS V14.01,2013-08-26 20:30:00,
2013-08-26 15:31:00,98.4,67.7,30.02,SSE,168,0.0,10.0,37,0.00,,---,0.00,VWS V14.01,2013-08-26 20:31:00,
2013-08-26 15:32:00,98.3,67.6,30.02,SSE,159,2.0,9.0,37,0.00,,---,0.00,VWS V14.01,2013-08-26 20:32:00,
2013-08-26 15:33:00,98.3,67.6,30.02,SSE,165,3.0,9.0,37,0.00,,---,0.00,VWS V14.01,2013-08-26 20:33:00,
2013-08-26 15:34:00,98.3,67.6,30.02,SE,142,1.0,9.0,37,0.00,,---,0.00,VWS V14.01,2013-08-26 20:34:00,
2013-08-26 15:35:00,98.4,67.7,30.02,SE,144,0.0,9.0,37,0.00,,---,0.00,VWS V14.01,2013-08-26 20:35:00,
2013-08-26 15:36:00,98.5,67.8,30.02,NE,42,4.0,4.0,37,0.00,,---,0.00,VWS V14.01,2013-08-26 20:36:00,
2013-08-26 15:38:00,98.4,67.7,30.02,SSE,168,1.0,10.0,37,0.00,,---,0.00,VWS V14.01,2013-08-26 20:38:00,
2013-08-26 15:39:00,98.5,67.8,30.03,SSE,159,3.0,10.0,37,0.00,,---,0.00,VWS V14.01,2013-08-26 20:39:00,
2013-08-26 15:41:00,97.9,66.4,30.02,ENE,71,0.0,7.0,36,0.00,,---,0.00,VWS V14.01,2013-08-26 20:41:00,
2013-08-26 15:42:00,98.5,67.8,30.02,NE,42,4.0,4.0,37,0.00,,---,0.00,VWS V14.01,2013-08-26 20:42:00,
2013-08-26 15:43:00,98.5,67.8,30.03,NNE,33,1.0,7.0,37,0.00,,---,0.00,VWS V14.01,2013-08-26 20:43:00,
2013-08-26 15:44:00,98.3,67.6,30.02,ESE,122,2.0,7.0,37,0.00,,---,0.00,VWS V14.01,2013-08-26 20:44:00,
2013-08-26 15:45:00,98.2,67.5,30.02,ENE,78,0.0,7.0,37,0.00,,---,0.00,VWS V14.01,2013-08-26 20:45:00,
2013-08-26 15:46:00,97.0,66.4,30.02,ESE,104,1.0,11.0,37,0.00,,---,0.00,VWS V14.01,2013-08-26 20:46:00,
2013-08-26 15:47:00,97.9,66.4,30.02,ENE,71,0.0,7.0,36,0.00,,---,0.00,VWS V14.01,2013-08-26 20:47:00,
2013-08-26 15:48:00,97.7,66.2,30.02,East,80,0.0,15.0,36,0.00,,---,0.00,VWS V14.01,2013-08-26 20:48:00,
2013-08-26 15:49:00,97.4,66.8,30.02,East,80,1.0,11.0,37,0.00,,---,0.00,VWS V14.01,2013-08-26 20:49:00,
2013-08-26 15:50:00,97.2,66.6,30.02,SE,125,2.0,11.0,37,0.00,,---,0.00,VWS V14.01,2013-08-26 20:50:00,
2013-08-26 15:51:00,96.4,65.9,30.02,East,92,0.0,2.0,37,0.00,,---,0.00,VWS V14.01,2013-08-26 20:51:00,
2013-08-26 15:52:00,97.0,66.4,30.02,ESE,104,1.0,11.0,37,0.00,,---,0.00,VWS V14.01,2013-08-26 20:52:00,
2013-08-26 15:54:00,96.7,66.2,30.02,East,90,0.0,2.0,37,0.00,,---,0.00,VWS V14.01,2013-08-26 20:54:00,
2013-08-26 15:55:00,96.6,66.1,30.02,East,83,0.0,2.0,37,0.00,,---,0.00,VWS V14.01,2013-08-26 20:55:00,
2013-08-26 15:56:00,96.1,67.2,30.02,ESE,117,0.0,3.0,39,0.00,,---,0.00,VWS V14.01,2013-08-26 20:56:00,
2013-08-26 15:57:00,96.4,65.9,30.02,East,92,0.0,2.0,37,0.00,,---,0.00,VWS V14.01,2013-08-26 20:57:00,
2013-08-26 15:58:00,96.4,65.9,30.02,East,97,0.0,2.0,37,0.00,,---,0.00,VWS V14.01,2013-08-26 20:58:00,
2013-08-26 15:59:00,96.3,65.8,30.02,East,82,3.0,3.0,37,0.00,,---,0.00,VWS V14.01,2013-08-26 20:59:00,
2013-08-26 16:00:00,96.2,65.7,30.02,East,82,0.0,3.0,37,0.00,,---,0.00,VWS V14.01,2013-08-26 21:00:00,
2013-08-26 16:01:00,96.3,66.6,30.02,ENE,60,0.0,5.0,38,0.00,,---,0.00,VWS V14.01,2013-08-26 21:01:00,
2013-08-26 16:03:00,96.1,67.2,30.01,SSE,167,5.0,5.0,39,0.00,,---,0.00,VWS V14.01,2013-08-26 21:03:00,
2013-08-26 16:06:00,96.6,66.8,30.01,SE,129,0.0,5.0,38,0.00,,---,0.00,VWS V14.01,2013-08-26 21:06:00,
2013-08-26 16:08:00,96.3,66.6,30.02,SE,130,0.0,5.0,38,0.00,,---,0.00,VWS V14.01,2013-08-26 21:08:00,
2013-08-26 16:09:00,96.4,66.7,30.02,SE,130,0.0,5.0,38,0.00,,---,0.00,VWS V14.01,2013-08-26 21:09:00,
2013-08-26 16:10:00,96.4,66.7,30.02,SE,128,0.0,5.0,38,0.00,,---,0.00,VWS V14.01,2013-08-26 21:10:00,
2013-08-26 16:11:00,96.9,67.1,30.01,ESE,108,0.0,9.0,38,0.00,,---,0.00,VWS V14.01,2013-08-26 21:11:00,
2013-08-26 16:12:00,96.6,66.8,30.01,SE,129,0.0,5.0,38,0.00,,---,0.00,VWS V14.01,2013-08-26 21:12:00,
2013-08-26 16:13:00,96.6,66.8,30.01,SE,125,2.0,2.0,38,0.00,,---,0.00,VWS V14.01,2013-08-26 21:13:00,
2013-08-26 16:14:00,96.7,66.2,30.01,SE,135,0.0,4.0,37,0.00,,---,0.00,VWS V14.01,2013-08-26 21:14:00,
2013-08-26 16:15:00,96.7,66.2,30.01,SE,141,0.0,9.0,37,0.00,,---,0.00,VWS V14.01,2013-08-26 21:15:00,
2013-08-26 16:16:00,97.4,66.0,30.01,SE,139,1.0,5.0,36,0.00,,---,0.00,VWS V14.01,2013-08-26 21:16:00,
2013-08-26 16:17:00,96.9,67.1,30.01,ESE,104,0.0,9.0,38,0.00,,---,0.00,VWS V14.01,2013-08-26 21:17:00,
2013-08-26 16:18:00,97.0,66.4,30.01,SSE,153,0.0,9.0,37,0.00,,---,0.00,VWS V14.01,2013-08-26 21:18:00,
2013-08-26 16:19:00,97.1,66.5,30.01,SE,144,2.0,9.0,37,0.00,,---,0.00,VWS V14.01,2013-08-26 21:19:00,
2013-08-26 16:20:00,97.2,66.6,30.01,ESE,115,0.0,5.0,37,0.00,,---,0.00,VWS V14.01,2013-08-26 21:20:00,
2013-08-26 16:21:00,97.2,65.0,30.01,East,85,0.0,2.0,35,0.00,,---,0.00,VWS V14.01,2013-08-26 21:21:00,
2013-08-26 16:22:00,97.4,66.0,30.01,SE,139,1.0,5.0,36,0.00,,---,0.00,VWS V14.01,2013-08-26 21:22:00,
2013-08-26 16:23:00,97.4,65.2,30.01,SE,136,2.0,4.0,35,0.00,,---,0.00,VWS V14.01,2013-08-26 21:23:00,
2013-08-26 16:24:00,97.4,65.2,30.01,ESE,102,0.0,4.0,35,0.00,,---,0.00,VWS V14.01,2013-08-26 21:24:00,
2013-08-26 16:25:00,97.4,65.2,30.02,East,88,0.0,4.0,35,0.00,,---,0.00,VWS V14.01,2013-08-26 21:25:00,
2013-08-26 16:26:00,96.7,65.4,30.01,East,86,3.0,6.0,36,0.00,,---,0.00,VWS V14.01,2013-08-26 21:26:00,
2013-08-26 16:28:00,97.1,64.9,30.01,ESE,103,0.0,2.0,35,0.00,,---,0.00,VWS V14.01,2013-08-26 21:28:00,
2013-08-26 16:30:00,96.9,64.7,30.01,ESE,107,0.0,2.0,35,0.00,,---,0.00,VWS V14.01,2013-08-26 21:30:00,
2013-08-26 16:31:00,96.5,65.2,30.01,SE,140,5.0,5.0,36,0.00,,---,0.00,VWS V14.01,2013-08-26 21:31:00,
2013-08-26 16:34:00,96.6,65.3,30.01,NE,54,1.0,6.0,36,0.00,,---,0.00,VWS V14.01,2013-08-26 21:34:00,
2013-08-26 16:35:00,96.5,64.4,30.01,ESE,110,2.0,6.0,35,0.00,,---,0.00,VWS V14.01,2013-08-26 21:35:00,
2013-08-26 16:36:00,96.5,65.2,30.01,SSE,157,0.0,5.0,36,0.00,,---,0.00,VWS V14.01,2013-08-26 21:36:00,
2013-08-26 16:37:00,96.5,65.2,30.01,SE,140,5.0,5.0,36,0.00,,---,0.00,VWS V14.01,2013-08-26 21:37:00,
2013-08-26 16:38:00,96.4,65.1,30.01,SE,140,0.0,5.0,36,0.00,,---,0.00,VWS V14.01,2013-08-26 21:38:00,
2013-08-26 16:39:00,96.4,65.1,30.01,SE,141,0.0,5.0,36,0.00,,---,0.00,VWS V14.01,2013-08-26 21:39:00,
2013-08-26 16:40:00,96.5,66.0,30.01,SE,142,0.0,5.0,37,0.00,,---,0.00,VWS V14.01,2013-08-26 21:40:00,
2013-08-26 16:41:00,96.9,65.6,30.01,SE,144,0.0,4.0,36,0.00,,---,0.00,VWS V14.01,2013-08-26 21:41:00,
2013-08-26 16:42:00,96.5,65.2,30.01,SSE,157,0.0,4.0,36,0.00,,---,0.00,VWS V14.01,2013-08-26 21:42:00,
2013-08-26 16:44:00,96.6,65.3,30.01,SE,126,0.0,3.0,36,0.00,,---,0.00,VWS V14.01,2013-08-26 21:44:00,
2013-08-26 16:45:00,96.7,66.2,30.01,ESE,114,1.0,3.0,37,0.00,,---,0.00,VWS V14.01,2013-08-26 21:45:00,
2013-08-26 16:46:00,96.9,64.7,30.00,ENE,74,0.0,5.0,35,0.00,,---,0.00,VWS V14.01,2013-08-26 21:46:00,
2013-08-26 16:47:00,96.9,65.6,30.01,SE,144,0.0,4.0,36,0.00,,---,0.00,VWS V14.01,2013-08-26 21:47:00,
2013-08-26 16:48:00,96.9,65.6,30.01,SE,126,3.0,4.0,36,0.00,,---,0.00,VWS V14.01,2013-08-26 21:48:00,
2013-08-26 16:49:00,96.9,64.7,30.00,ESE,105,0.0,5.0,35,0.00,,---,0.00,VWS V14.01,2013-08-26 21:49:00,
2013-08-26 16:50:00,97.0,64.8,30.00,SE,129,1.0,5.0,35,0.00,,---,0.00,VWS V14.01,2013-08-26 21:50:00,
2013-08-26 16:51:00,97.1,64.9,30.00,ESE,111,0.0,5.0,35,0.00,,---,0.00,VWS V14.01,2013-08-26 21:51:00,
2013-08-26 16:52:00,96.9,64.7,30.00,ENE,74,0.0,5.0,35,0.00,,---,0.00,VWS V14.01,2013-08-26 21:52:00,
2013-08-26 16:53:00,96.9,64.7,30.00,SSE,158,4.0,5.0,35,0.00,,---,0.00,VWS V14.01,2013-08-26 21:53:00,
2013-08-26 16:55:00,97.0,64.8,30.00,SSE,161,0.0,5.0,35,0.00,,---,0.00,VWS V14.01,2013-08-26 21:55:00,
2013-08-26 16:56:00,97.1,65.7,30.00,SE,138,0.0,3.0,36,0.00,,---,0.00,VWS V14.01,2013-08-26 21:56:00,
2013-08-26 16:57:00,97.1,64.9,30.00,ESE,111,0.0,5.0,35,0.00,,---,0.00,VWS V14.01,2013-08-26 21:57:00,
2013-08-26 16:58:00,97.1,65.7,30.00,East,99,0.0,5.0,36,0.00,,---,0.00,VWS V14.01,2013-08-26 21:58:00,
2013-08-26 17:00:00,97.1,65.7,30.00,ESE,103,0.0,2.0,36,0.00,,---,0.00,VWS V14.01,2013-08-26 22:00:00,
2013-08-26 17:01:00,97.4,65.2,30.00,SSE,157,1.0,7.0,35,0.00,,---,0.00,VWS V14.01,2013-08-26 22:01:00,
2013-08-26 17:02:00,97.1,65.7,30.00,SE,138,0.0,3.0,36,0.00,,---,0.00,VWS V14.01,2013-08-26 22:02:00,
2013-08-26 17:03:00,97.2,65.8,30.00,SSE,167,2.0,5.0,36,0.00,,---,0.00,VWS V14.01,2013-08-26 22:03:00,
2013-08-26 17:04:00,97.2,65.8,30.00,South,169,1.0,5.0,36,0.00,,---,0.00,VWS V14.01,2013-08-26 22:04:00,
2013-08-26 17:05:00,97.3,65.1,30.00,South,181,1.0,7.0,35,0.00,,---,0.00,VWS V14.01,2013-08-26 22:05:00,
2013-08-26 17:06:00,97.6,65.4,30.00,SSE,157,0.0,5.0,35,0.00,,---,0.00,VWS V14.01,2013-08-26 22:06:00,
2013-08-26 17:07:00,97.4,65.2,30.00,SSE,157,1.0,7.0,35,0.00,,---,0.00,VWS V14.01,2013-08-26 22:07:00,
2013-08-26 17:08:00,97.5,65.3,29.99,SSE,154,0.0,7.0,35,0.00,,---,0.00,VWS V14.01,2013-08-26 22:08:00,
2013-08-26 17:09:00,97.5,65.3,30.00,SSE,150,0.0,7.0,35,0.00,,---,0.00,VWS V14.01,2013-08-26 22:09:00,
2013-08-26 17:10:00,97.6,65.4,30.00,SSE,150,0.0,5.0,35,0.00,,---,0.00,VWS V14.01,2013-08-26 22:10:00,
2013-08-26 17:11:00,97.8,65.5,30.00,SSE,163,0.0,5.0,35,0.00,,---,0.00,VWS V14.01,2013-08-26 22:11:00,
2013-08-26 17:12:00,97.6,65.4,30.00,SSE,157,0.0,5.0,35,0.00,,---,0.00,VWS V14.01,2013-08-26 22:12:00,
2013-08-26 17:13:00,97.7,65.4,30.00,SE,144,2.0,5.0,35,0.00,,---,0.00,VWS V14.01,2013-08-26 22:13:00,
2013-08-26 17:14:00,97.7,65.4,30.00,ESE,121,0.0,5.0,35,0.00,,---,0.00,VWS V14.01,2013-08-26 22:14:00,
2013-08-26 17:15:00,97.8,65.5,30.00,ESE,121,0.0,5.0,35,0.00,,---,0.00,VWS V14.01,2013-08-26 22:15:00,
2013-08-26 17:16:00,98.0,65.7,29.99,SE,138,0.0,5.0,35,0.00,,---,0.00,VWS V14.01,2013-08-26 22:16:00,
2013-08-26 17:17:00,97.8,65.5,30.00,SSE,163,0.0,5.0,35,0.00,,---,0.00,VWS V14.01,2013-08-26 22:17:00,
2013-08-26 17:18:00,97.9,65.6,29.99,SSE,155,0.0,5.0,35,0.00,,---,0.00,VWS V14.01,2013-08-26 22:18:00,
2013-08-26 17:19:00,97.9,65.6,29.99,SSE,149,0.0,5.0,35,0.00,,---,0.00,VWS V14.01,2013-08-26 22:19:00,
2013-08-26 17:20:00,97.9,65.6,29.99,SSE,149,0.0,5.0,35,0.00,,---,0.00,VWS V14.01,2013-08-26 22:20:00,
2013-08-26 17:21:00,98.0,65.7,29.99,ESE,117,0.0,3.0,35,0.00,,---,0.00,VWS V14.01,2013-08-26 22:21:00,
2013-08-26 17:22:00,98.0,65.7,29.99,SE,138,0.0,5.0,35,0.00,,---,0.00,VWS V14.01,2013-08-26 22:22:00,
2013-08-26 17:23:00,98.0,65.7,30.00,East,97,0.0,2.0,35,0.00,,---,0.00,VWS V14.01,2013-08-26 22:23:00,
2013-08-26 17:24:00,98.0,65.7,29.99,East,93,0.0,2.0,35,0.00,,---,0.00,VWS V14.01,2013-08-26 22:24:00,
2013-08-26 17:25:00,98.0,65.7,30.00,East,81,0.0,3.0,35,0.00,,---,0.00,VWS V14.01,2013-08-26 22:25:00,
2013-08-26 17:26:00,97.7,65.4,30.00,ESE,117,0.0,3.0,35,0.00,,---,0.00,VWS V14.01,2013-08-26 22:26:00,
2013-08-26 17:27:00,98.0,65.7,29.99,ESE,117,0.0,3.0,35,0.00,,---,0.00,VWS V14.01,2013-08-26 22:27:00,
2013-08-26 17:28:00,98.0,65.7,29.99,SE,132,1.0,3.0,35,0.00,,---,0.00,VWS V14.01,2013-08-26 22:28:00,
2013-08-26 17:29:00,97.9,65.6,30.00,ESE,106,0.0,3.0,35,0.00,,---,0.00,VWS V14.01,2013-08-26 22:29:00,
2013-08-26 17:31:00,97.2,65.0,29.99,ESE,109,0.0,5.0,35,0.00,,---,0.00,VWS V14.01,2013-08-26 22:31:00,
2013-08-26 17:32:00,97.7,65.4,30.00,ESE,117,0.0,3.0,35,0.00,,---,0.00,VWS V14.01,2013-08-26 22:32:00,
2013-08-26 17:33:00,97.6,65.4,29.99,ESE,117,0.0,3.0,35,0.00,,---,0.00,VWS V14.01,2013-08-26 22:33:00,
2013-08-26 17:34:00,97.5,65.3,30.00,ESE,111,1.0,5.0,35,0.00,,---,0.00,VWS V14.01,2013-08-26 22:34:00,
2013-08-26 17:35:00,97.4,65.2,30.00,ESE,111,0.0,5.0,35,0.00,,---,0.00,VWS V14.01,2013-08-26 22:35:00,
2013-08-26 17:36:00,96.9,65.6,30.00,SSE,164,2.0,5.0,36,0.00,,---,0.00,VWS V14.01,2013-08-26 22:36:00,
2013-08-26 17:37:00,97.2,65.0,29.99,ESE,109,0.0,5.0,35,0.00,,---,0.00,VWS V14.01,2013-08-26 22:37:00,
2013-08-26 17:39:00,97.0,65.6,29.99,ESE,116,0.0,3.0,36,0.00,,---,0.00,VWS V14.01,2013-08-26 22:39:00,
2013-08-26 17:41:00,97.0,65.6,29.99,ENE,69,0.0,3.0,36,0.00,,---,0.00,VWS V14.01,2013-08-26 22:41:00,
2013-08-26 17:42:00,96.9,65.6,30.00,SSE,165,3.0,5.0,36,0.00,,---,0.00,VWS V14.01,2013-08-26 22:42:00,
2013-08-26 17:43:00,96.9,65.6,30.00,SSE,161,1.0,5.0,36,0.00,,---,0.00,VWS V14.01,2013-08-26 22:43:00,
2013-08-26 17:44:00,96.9,65.6,30.00,SSE,161,0.0,5.0,36,0.00,,---,0.00,VWS V14.01,2013-08-26 22:44:00,
2013-08-26 17:46:00,96.9,65.6,29.99,NE,53,0.0,7.0,36,0.00,,---,0.00,VWS V14.01,2013-08-26 22:46:00,
2013-08-26 17:47:00,97.0,65.6,29.99,ENE,69,0.0,3.0,36,0.00,,---,0.00,VWS V14.01,2013-08-26 22:47:00,
2013-08-26 17:48:00,97.0,65.6,29.99,ENE,69,0.0,2.0,36,0.00,,---,0.00,VWS V14.01,2013-08-26 22:48:00,
2013-08-26 17:49:00,97.0,65.6,29.99,NNE,22,3.0,7.0,36,0.00,,---,0.00,VWS V14.01,2013-08-26 22:49:00,
2013-08-26 17:51:00,96.8,65.5,30.00,ESE,115,0.0,4.0,36,0.00,,---,0.00,VWS V14.01,2013-08-26 22:51:00,
2013-08-26 17:54:00,96.9,65.6,30.00,ESE,116,0.0,6.0,36,0.00,,---,0.00,VWS V14.01,2013-08-26 22:54:00,
2013-08-26 17:56:00,96.4,65.1,29.99,ENE,67,0.0,6.0,36,0.00,,---,0.00,VWS V14.01,2013-08-26 22:56:00,
2013-08-26 17:58:00,96.7,65.4,30.00,East,92,1.0,4.0,36,0.00,,---,0.00,VWS V14.01,2013-08-26 22:58:00,
2013-08-26 17:59:00,96.7,65.4,30.00,East,82,2.0,4.0,36,0.00,,---,0.00,VWS V14.01,2013-08-26 22:59:00,
2013-08-26 18:00:00,96.6,65.3,30.00,NE,42,0.0,6.0,36,0.00,,---,0.00,VWS V14.01,2013-08-26 23:00:00,
2013-08-26 18:01:00,95.9,64.7,29.99,ESE,107,0.0,4.0,36,0.00,,---,0.00,VWS V14.01,2013-08-26 23:01:00,
2013-08-26 18:04:00,96.3,65.0,29.99,ENE,68,0.0,6.0,36,0.00,,---,0.00,VWS V14.01,2013-08-26 23:04:00,
2013-08-26 18:05:00,96.2,64.9,29.99,ENE,71,0.0,4.0,36,0.00,,---,0.00,VWS V14.01,2013-08-26 23:05:00,
2013-08-26 18:06:00,95.5,65.1,29.99,South,175,2.0,5.0,37,0.00,,---,0.00,VWS V14.01,2013-08-26 23:06:00,
2013-08-26 18:07:00,95.9,64.7,29.99,ESE,113,0.0,4.0,36,0.00,,---,0.00,VWS V14.01,2013-08-26 23:07:00,
2013-08-26 18:08:00,95.8,65.4,29.99,ESE,105,0.0,4.0,37,0.00,,---,0.00,VWS V14.01,2013-08-26 23:08:00,
2013-08-26 18:10:00,95.6,64.4,30.00,ESE,109,0.0,4.0,36,0.00,,---,0.00,VWS V14.01,2013-08-26 23:10:00,
2013-08-26 18:11:00,95.0,64.7,29.99,SSE,161,0.0,6.0,37,0.00,,---,0.00,VWS V14.01,2013-08-26 23:11:00,
2013-08-26 18:15:00,95.2,64.8,29.99,SSE,161,0.0,6.0,37,0.00,,---,0.00,VWS V14.01,2013-08-26 23:15:00,
2013-08-26 18:16:00,94.8,64.5,30.00,ESE,106,0.0,2.0,37,0.00,,---,0.00,VWS V14.01,2013-08-26 23:16:00,
2013-08-26 18:17:00,95.1,64.8,29.99,SSE,161,0.0,6.0,37,0.00,,---,0.00,VWS V14.01,2013-08-26 23:17:00,
2013-08-26 18:19:00,94.9,64.6,29.99,SSE,157,0.0,3.0,37,0.00,,---,0.00,VWS V14.01,2013-08-26 23:19:00,
2013-08-26 18:21:00,94.6,64.3,30.00,ENE,64,1.0,4.0,37,0.00,,---,0.00,VWS V14.01,2013-08-26 23:21:00,
2013-08-26 18:25:00,94.7,64.4,30.00,ESE,115,0.0,3.0,37,0.00,,---,0.00,VWS V14.01,2013-08-26 23:25:00,
2013-08-26 18:26:00,94.7,64.4,29.99,ESE,115,0.0,5.0,37,0.00,,---,0.00,VWS V14.01,2013-08-26 23:26:00,
2013-08-26 18:28:00,94.6,64.3,30.00,East,86,1.0,4.0,37,0.00,,---,0.00,VWS V14.01,2013-08-26 23:28:00,
2013-08-26 18:30:00,94.6,64.3,30.00,SE,146,0.0,5.0,37,0.00,,---,0.00,VWS V14.01,2013-08-26 23:30:00,
2013-08-26 18:31:00,94.9,63.8,29.99,SE,136,0.0,3.0,36,0.00,,---,0.00,VWS V14.01,2013-08-26 23:31:00,
2013-08-26 18:33:00,94.7,64.4,29.99,ESE,118,0.0,5.0,37,0.00,,---,0.00,VWS V14.01,2013-08-26 23:33:00,
2013-08-26 18:34:00,94.7,64.4,29.99,ESE,117,1.0,2.0,37,0.00,,---,0.00,VWS V14.01,2013-08-26 23:34:00,
2013-08-26 18:35:00,94.8,63.7,29.99,ESE,118,0.0,2.0,36,0.00,,---,0.00,VWS V14.01,2013-08-26 23:35:00,
2013-08-26 18:36:00,95.1,64.0,30.00,SE,142,2.0,3.0,36,0.00,,---,0.00,VWS V14.01,2013-08-26 23:36:00,
2013-08-26 18:37:00,94.9,63.8,29.99,SE,136,0.0,3.0,36,0.00,,---,0.00,VWS V14.01,2013-08-26 23:37:00,
2013-08-26 18:38:00,94.9,63.8,29.99,ESE,107,0.0,3.0,36,0.00,,---,0.00,VWS V14.01,2013-08-26 23:38:00,
2013-08-26 18:39:00,95.0,63.9,29.99,ESE,107,0.0,3.0,36,0.00,,---,0.00,VWS V14.01,2013-08-26 23:39:00,
2013-08-26 18:40:00,95.0,63.9,29.99,ESE,104,0.0,3.0,36,0.00,,---,0.00,VWS V14.01,2013-08-26 23:40:00,
2013-08-26 18:41:00,95.3,63.3,30.00,ESE,123,0.0,4.0,35,0.00,,---,0.00,VWS V14.01,2013-08-26 23:41:00,
2013-08-26 18:42:00,95.1,64.0,29.99,SE,141,3.0,3.0,36,0.00,,---,0.00,VWS V14.01,2013-08-26 23:42:00,
2013-08-26 18:43:00,95.1,64.0,30.00,SSE,158,1.0,4.0,36,0.00,,---,0.00,VWS V14.01,2013-08-26 23:43:00,
2013-08-26 18:44:00,95.2,63.3,30.00,SSE,152,0.0,4.0,35,0.00,,---,0.00,VWS V14.01,2013-08-26 23:44:00,
2013-08-26 18:45:00,95.2,63.3,30.00,SE,127,0.0,4.0,35,0.00,,---,0.00,VWS V14.01,2013-08-26 23:45:00,
2013-08-26 18:46:00,95.5,63.5,30.00,SE,143,2.0,3.0,35,0.00,,---,0.00,VWS V14.01,2013-08-26 23:46:00,
2013-08-26 18:47:00,95.3,63.3,29.99,ESE,123,0.0,4.0,35,0.00,,---,0.00,VWS V14.01,2013-08-26 23:47:00,
2013-08-26 18:48:00,95.3,64.2,30.00,ESE,123,0.0,1.0,36,0.00,,---,0.00,VWS V14.01,2013-08-26 23:48:00,
2013-08-26 18:49:00,95.4,63.4,29.99,ESE,121,0.0,1.0,35,0.00,,---,0.00,VWS V14.01,2013-08-26 23:49:00,
2013-08-26 18:50:00,95.4,63.4,29.99,ESE,121,0.0,1.0,35,0.00,,---,0.00,VWS V14.01,2013-08-26 23:50:00,
2013-08-26 18:51:00,95.4,63.4,30.00,SE,130,0.0,3.0,35,0.00,,---,0.00,VWS V14.01,2013-08-26 23:51:00,
2013-08-26 18:52:00,95.5,63.5,29.99,SE,139,0.0,6.0,35,0.00,,---,0.00,VWS V14.01,2013-08-26 23:52:00,
2013-08-26 18:53:00,95.5,63.5,30.00,SE,143,0.0,3.0,35,0.00,,---,0.00,VWS V14.01,2013-08-26 23:53:00,
2013-08-26 18:54:00,95.5,63.5,29.99,SE,145,1.0,3.0,35,0.00,,---,0.00,VWS V14.01,2013-08-26 23:54:00,
2013-08-26 18:55:00,95.5,63.5,29.99,SSE,155,1.0,6.0,35,0.00,,---,0.00,VWS V14.01,2013-08-26 23:55:00,
2013-08-26 18:56:00,95.6,63.6,29.99,SSE,155,0.0,6.0,35,0.00,,---,0.00,VWS V14.01,2013-08-26 23:56:00,
2013-08-26 18:57:00,95.4,63.4,29.99,SE,140,0.0,3.0,35,0.00,,---,0.00,VWS V14.01,2013-08-26 23:57:00,
2013-08-26 18:58:00,95.6,63.6,29.99,SE,138,0.0,6.0,35,0.00,,---,0.00,VWS V14.01,2013-08-26 23:58:00,
2013-08-26 18:59:00,95.6,63.6,29.99,SE,141,1.0,6.0,35,0.00,,---,0.00,VWS V14.01,2013-08-26 23:59:00,
2013-08-26 19:00:00,95.5,62.7,29.99,SE,142,0.0,3.0,34,0.00,,---,0.00,VWS V14.01,2013-08-27 00:00:00,
2013-08-26 19:01:00,95.5,62.7,29.99,SE,142,0.0,3.0,34,0.00,,---,0.00,VWS V14.01,2013-08-27 00:01:00,
2013-08-26 19:02:00,95.2,63.3,29.99,East,94,0.0,1.0,35,0.00,,---,0.00,VWS V14.01,2013-08-27 00:02:00,
2013-08-26 19:03:00,95.4,63.4,29.99,SE,140,0.0,3.0,35,0.00,,---,0.00,VWS V14.01,2013-08-27 00:03:00,
2013-08-26 19:04:00,95.4,63.4,29.99,SE,135,0.0,3.0,35,0.00,,---,0.00,VWS V14.01,2013-08-27 00:04:00,
2013-08-26 19:05:00,95.3,63.3,30.00,SE,134,0.0,1.0,35,0.00,,---,0.00,VWS V14.01,2013-08-27 00:05:00,
2013-08-26 19:06:00,95.3,63.3,30.00,ESE,119,0.0,1.0,35,0.00,,---,0.00,VWS V14.01,2013-08-27 00:06:00,
2013-08-26 19:07:00,94.9,63.0,29.99,East,97,0.0,2.0,35,0.00,,---,0.00,VWS V14.01,2013-08-27 00:07:00,
2013-08-26 19:08:00,95.2,63.3,29.99,East,94,0.0,1.0,35,0.00,,---,0.00,VWS V14.01,2013-08-27 00:08:00,
2013-08-26 19:09:00,95.2,63.3,30.00,ENE,72,0.0,1.0,35,0.00,,---,0.00,VWS V14.01,2013-08-27 00:09:00,
2013-08-26 19:10:00,95.1,63.2,30.00,East,101,0.0,2.0,35,0.00,,---,0.00,VWS V14.01,2013-08-27 00:10:00,
2013-08-26 19:11:00,95.0,63.1,30.00,East,97,0.0,2.0,35,0.00,,---,0.00,VWS V14.01,2013-08-27 00:11:00,
2013-08-26 19:12:00,94.7,63.6,29.99,SE,132,0.0,5.0,36,0.00,,---,0.00,VWS V14.01,2013-08-27 00:12:00,
2013-08-26 19:14:00,94.9,63.8,30.00,East,97,0.0,2.0,36,0.00,,---,0.00,VWS V14.01,2013-08-27 00:14:00,
2013-08-26 19:17:00,94.5,63.4,29.99,ESE,107,0.0,4.0,36,0.00,,---,0.00,VWS V14.01,2013-08-27 00:17:00,
2013-08-26 19:18:00,94.7,63.6,29.99,SE,132,0.0,5.0,36,0.00,,---,0.00,VWS V14.01,2013-08-27 00:18:00,
2013-08-26 19:19:00,94.7,63.6,29.99,ESE,123,0.0,5.0,36,0.00,,---,0.00,VWS V14.01,2013-08-27 00:19:00,
2013-08-26 19:20:00,94.6,63.5,29.99,ESE,123,1.0,5.0,36,0.00,,---,0.00,VWS V14.01,2013-08-27 00:20:00,
2013-08-26 19:21:00,94.6,63.5,29.99,NE,40,4.0,4.0,36,0.00,,---,0.00,VWS V14.01,2013-08-27 00:21:00,
2013-08-26 19:22:00,94.2,63.2,29.99,East,79,0.0,5.0,36,0.00,,---,0.00,VWS V14.01,2013-08-27 00:22:00,
2013-08-26 19:27:00,93.9,62.9,29.99,East,84,0.0,1.0,36,0.00,,---,0.00,VWS V14.01,2013-08-27 00:27:00,
2013-08-26 19:28:00,94.2,63.2,29.99,East,79,0.0,5.0,36,0.00,,---,0.00,VWS V14.01,2013-08-27 00:28:00,
2013-08-26 19:29:00,94.1,63.1,30.00,East,92,0.0,1.0,36,0.00,,---,0.00,VWS V14.01,2013-08-27 00:29:00,
2013-08-26 19:30:00,94.1,63.1,29.99,East,93,0.0,1.0,36,0.00,,---,0.00,VWS V14.01,2013-08-27 00:30:00,
2013-08-26 19:31:00,94.0,63.0,29.99,East,98,0.0,1.0,36,0.00,,---,0.00,VWS V14.01,2013-08-27 00:31:00,
2013-08-26 19:32:00,93.6,62.7,29.99,ESE,118,2.0,2.0,36,0.00,,---,0.00,VWS V14.01,2013-08-27 00:32:00,
2013-08-26 19:33:00,93.9,62.9,29.99,East,84,0.0,1.0,36,0.00,,---,0.00,VWS V14.01,2013-08-27 00:33:00,
2013-08-26 19:35:00,93.8,62.8,29.99,ESE,105,0.0,2.0,36,0.00,,---,0.00,VWS V14.01,2013-08-27 00:35:00,
2013-08-26 19:36:00,93.7,62.7,29.99,East,101,0.0,2.0,36,0.00,,---,0.00,VWS V14.01,2013-08-27 00:36:00,
2013-08-26 19:37:00,93.3,63.2,29.99,SE,129,0.0,2.0,37,0.00,,---,0.00,VWS V14.01,2013-08-27 00:37:00,
2013-08-26 19:38:00,93.6,62.7,29.99,ESE,119,1.0,2.0,36,0.00,,---,0.00,VWS V14.01,2013-08-27 00:38:00,
2013-08-26 19:39:00,93.5,63.3,29.99,ESE,121,0.0,2.0,37,0.00,,---,0.00,VWS V14.01,2013-08-27 00:39:00,
2013-08-26 19:40:00,93.5,63.3,29.99,ESE,118,0.0,2.0,37,0.00,,---,0.00,VWS V14.01,2013-08-27 00:40:00,
2013-08-26 19:42:00,93.1,63.0,29.99,SE,145,0.0,4.0,37,0.00,,---,0.00,VWS V14.01,2013-08-27 00:42:00,
2013-08-26 19:44:00,93.3,63.2,29.99,SE,126,2.0,2.0,37,0.00,,---,0.00,VWS V14.01,2013-08-27 00:44:00,
2013-08-26 19:46:00,93.1,63.0,29.99,SE,142,0.0,4.0,37,0.00,,---,0.00,VWS V14.01,2013-08-27 00:46:00,
2013-08-26 19:47:00,92.8,63.5,29.99,SE,146,0.0,5.0,38,0.00,,---,0.00,VWS V14.01,2013-08-27 00:47:00,
2013-08-26 19:48:00,93.1,63.0,29.99,SE,144,2.0,4.0,37,0.00,,---,0.00,VWS V14.01,2013-08-27 00:48:00,
2013-08-26 19:49:00,93.0,62.9,29.99,SE,134,1.0,5.0,37,0.00,,---,0.00,VWS V14.01,2013-08-27 00:49:00,
2013-08-26 19:50:00,92.9,62.8,29.99,SE,146,0.0,5.0,37,0.00,,---,0.00,VWS V14.01,2013-08-27 00:50:00,
2013-08-26 19:51:00,92.9,62.8,29.99,SE,146,0.0,5.0,37,0.00,,---,0.00,VWS V14.01,2013-08-27 00:51:00,
2013-08-26 19:52:00,92.6,64.1,29.99,SSE,152,0.0,4.0,39,0.00,,---,0.00,VWS V14.01,2013-08-27 00:52:00,
2013-08-26 19:54:00,92.7,63.4,29.99,SE,146,0.0,4.0,38,0.00,,---,0.00,VWS V14.01,2013-08-27 00:54:00,
2013-08-26 19:55:00,92.7,63.4,29.99,SE,146,0.0,3.0,38,0.00,,---,0.00,VWS V14.01,2013-08-27 00:55:00,
2013-08-26 19:57:00,92.3,65.2,29.99,SSE,160,1.0,5.0,41,0.00,,---,0.00,VWS V14.01,2013-08-27 00:57:00,
2013-08-26 19:58:00,92.6,64.1,29.99,SSE,152,0.0,4.0,39,0.00,,---,0.00,VWS V14.01,2013-08-27 00:58:00,
2013-08-26 19:59:00,92.5,64.0,29.99,SSE,152,0.0,4.0,39,0.00,,---,0.00,VWS V14.01,2013-08-27 00:59:00,
2013-08-26 20:00:00,92.5,64.0,29.99,SSE,155,1.0,4.0,39,0.00,,---,0.00,VWS V14.01,2013-08-27 01:00:00,
2013-08-26 20:01:00,92.4,64.6,29.99,SSE,163,3.0,5.0,40,0.00,,---,0.00,VWS V14.01,2013-08-27 01:01:00,
2013-08-26 20:02:00,92.1,65.7,29.99,SSE,163,0.0,5.0,42,0.00,,---,0.00,VWS V14.01,2013-08-27 01:02:00,
2013-08-26 20:03:00,92.3,65.2,29.99,SSE,160,1.0,5.0,41,0.00,,---,0.00,VWS V14.01,2013-08-27 01:03:00,
2013-08-26 20:04:00,92.3,65.2,29.99,SSE,156,0.0,5.0,41,0.00,,---,0.00,VWS V14.01,2013-08-27 01:04:00,
2013-08-26 20:05:00,92.2,65.1,29.99,SSE,161,2.0,5.0,41,0.00,,---,0.00,VWS V14.01,2013-08-27 01:05:00,
2013-08-26 20:06:00,92.2,65.1,29.99,SSE,160,0.0,4.0,41,0.00,,---,0.00,VWS V14.01,2013-08-27 01:06:00,
2013-08-26 20:07:00,91.8,64.8,30.00,SSE,157,0.0,4.0,41,0.00,,---,0.00,VWS V14.01,2013-08-27 01:07:00,
2013-08-26 20:09:00,92.0,65.6,30.00,SSE,162,0.0,5.0,42,0.00,,---,0.00,VWS V14.01,2013-08-27 01:09:00,
2013-08-26 20:10:00,92.0,65.6,30.00,SSE,162,0.0,5.0,42,0.00,,---,0.00,VWS V14.01,2013-08-27 01:10:00,
2013-08-26 20:11:00,91.9,65.6,30.00,SSE,164,0.0,5.0,42,0.00,,---,0.00,VWS V14.01,2013-08-27 01:11:00,
2013-08-26 20:12:00,91.5,65.2,30.00,SSE,151,1.0,5.0,42,0.00,,---,0.00,VWS V14.01,2013-08-27 01:12:00,
2013-08-26 20:13:00,91.8,64.8,30.00,SSE,157,0.0,4.0,41,0.00,,---,0.00,VWS V14.01,2013-08-27 01:13:00,
2013-08-26 20:14:00,91.7,64.7,30.00,SSE,159,5.0,5.0,41,0.00,,---,0.00,VWS V14.01,2013-08-27 01:14:00,
2013-08-26 20:15:00,91.7,64.7,30.00,SSE,153,0.0,5.0,41,0.00,,---,0.00,VWS V14.01,2013-08-27 01:15:00,
2013-08-26 20:16:00,91.6,64.6,30.00,SSE,154,0.0,5.0,41,0.00,,---,0.00,VWS V14.01,2013-08-27 01:16:00,
2013-08-26 20:17:00,91.2,64.9,30.00,SSE,165,0.0,4.0,42,0.00,,---,0.00,VWS V14.01,2013-08-27 01:17:00,
2013-08-26 20:18:00,91.5,65.2,30.00,SSE,151,1.0,5.0,42,0.00,,---,0.00,VWS V14.01,2013-08-27 01:18:00,
2013-08-26 20:19:00,91.4,65.1,30.00,SSE,150,0.0,5.0,42,0.00,,---,0.00,VWS V14.01,2013-08-27 01:19:00,
2013-08-26 20:20:00,91.3,65.0,30.00,SSE,150,0.0,4.0,42,0.00,,---,0.00,VWS V14.01,2013-08-27 01:20:00,
2013-08-26 20:21:00,91.3,65.0,30.00,SSE,153,1.0,3.0,42,0.00,,---,0.00,VWS V14.01,2013-08-27 01:21:00,
2013-08-26 20:22:00,91.0,64.7,30.00,SSE,165,0.0,4.0,42,0.00,,---,0.00,VWS V14.01,2013-08-27 01:22:00,
2013-08-26 20:23:00,91.2,64.9,30.00,SSE,165,2.0,4.0,42,0.00,,---,0.00,VWS V14.01,2013-08-27 01:23:00,
2013-08-26 20:24:00,91.2,64.9,30.00,SSE,166,0.0,4.0,42,0.00,,---,0.00,VWS V14.01,2013-08-27 01:24:00,
2013-08-26 20:25:00,91.1,64.8,30.00,SSE,166,0.0,4.0,42,0.00,,---,0.00,VWS V14.01,2013-08-27 01:25:00,
2013-08-26 20:26:00,91.1,64.8,30.00,SSE,165,0.0,4.0,42,0.00,,---,0.00,VWS V14.01,2013-08-27 01:26:00,
2013-08-26 20:27:00,90.8,65.2,30.00,SSE,165,0.0,2.0,43,0.00,,---,0.00,VWS V14.01,2013-08-27 01:27:00,
2013-08-26 20:28:00,91.0,64.7,29.99,SSE,165,0.0,4.0,42,0.00,,---,0.00,VWS V14.01,2013-08-27 01:28:00,
2013-08-26 20:29:00,91.0,64.7,30.00,SSE,165,0.0,4.0,42,0.00,,---,0.00,VWS V14.01,2013-08-27 01:29:00,
2013-08-26 20:30:00,90.9,65.3,30.00,SSE,165,0.0,4.0,43,0.00,,---,0.00,VWS V14.01,2013-08-27 01:30:00,
2013-08-26 20:31:00,90.9,65.3,29.99,SSE,165,0.0,2.0,43,0.00,,---,0.00,VWS V14.01,2013-08-27 01:31:00,
2013-08-26 20:32:00,90.5,65.0,30.00,SSE,165,0.0,0.0,43,0.00,,---,0.00,VWS V14.01,2013-08-27 01:32:00,
2013-08-26 20:33:00,90.8,65.2,30.00,SSE,165,0.0,2.0,43,0.00,,---,0.00,VWS V14.01,2013-08-27 01:33:00,
2013-08-26 20:34:00,90.8,65.2,30.00,SSE,165,0.0,2.0,43,0.00,,---,0.00,VWS V14.01,2013-08-27 01:34:00,
2013-08-26 20:35:00,90.7,65.2,30.00,SSE,165,0.0,2.0,43,0.00,,---,0.00,VWS V14.01,2013-08-27 01:35:00,
2013-08-26 20:36:00,90.7,65.2,30.00,SSE,165,0.0,1.0,43,0.00,,---,0.00,VWS V14.01,2013-08-27 01:36:00,
2013-08-26 20:37:00,90.3,65.4,30.00,SSE,165,0.0,1.0,44,0.00,,---,0.00,VWS V14.01,2013-08-27 01:37:00,
2013-08-26 20:38:00,90.6,65.1,30.00,SSE,165,0.0,0.0,43,0.00,,---,0.00,VWS V14.01,2013-08-27 01:38:00,
2013-08-26 20:39:00,90.5,65.0,30.00,SSE,165,0.0,0.0,43,0.00,,---,0.00,VWS V14.01,2013-08-27 01:39:00,
2013-08-26 20:40:00,90.4,64.9,30.00,SSE,165,0.0,1.0,43,0.00,,---,0.00,VWS V14.01,2013-08-27 01:40:00,
2013-08-26 20:41:00,90.4,64.9,30.00,SSE,165,0.0,1.0,43,0.00,,---,0.00,VWS V14.01,2013-08-27 01:41:00,
2013-08-26 20:42:00,90.1,65.3,30.00,SSE,165,0.0,1.0,44,0.00,,---,0.00,VWS V14.01,2013-08-27 01:42:00,
2013-08-26 20:43:00,90.3,64.8,30.00,SSE,165,0.0,1.0,43,0.00,,---,0.00,VWS V14.01,2013-08-27 01:43:00,
2013-08-26 20:44:00,90.3,65.4,30.00,SSE,165,0.0,1.0,44,0.00,,---,0.00,VWS V14.01,2013-08-27 01:44:00,
2013-08-26 20:45:00,90.2,65.4,30.00,SSE,165,0.0,1.0,44,0.00,,---,0.00,VWS V14.01,2013-08-27 01:45:00,
2013-08-26 20:46:00,90.1,65.3,30.00,SSE,165,0.0,1.0,44,0.00,,---,0.00,VWS V14.01,2013-08-27 01:46:00,
2013-08-26 20:47:00,89.8,65.0,30.00,SSE,165,0.0,1.0,44,0.00,,---,0.00,VWS V14.01,2013-08-27 01:47:00,
2013-08-26 20:48:00,90.1,65.3,30.00,SSE,165,0.0,1.0,44,0.00,,---,0.00,VWS V14.01,2013-08-27 01:48:00,
2013-08-26 20:49:00,90.0,65.2,30.00,SSE,165,0.0,1.0,44,0.00,,---,0.00,VWS V14.01,2013-08-27 01:49:00,
2013-08-26 20:50:00,90.0,65.2,30.00,SSE,165,0.0,0.0,44,0.00,,---,0.00,VWS V14.01,2013-08-27 01:50:00,
2013-08-26 20:51:00,90.0,65.2,30.00,SSE,165,0.0,1.0,44,0.00,,---,0.00,VWS V14.01,2013-08-27 01:51:00,
2013-08-26 20:52:00,89.6,65.5,30.00,SSE,165,0.0,2.0,45,0.00,,---,0.00,VWS V14.01,2013-08-27 01:52:00,
2013-08-26 20:53:00,89.9,65.1,30.00,SSE,165,0.0,1.0,44,0.00,,---,0.00,VWS V14.01,2013-08-27 01:53:00,
2013-08-26 20:55:00,89.8,65.0,30.00,SSE,165,0.0,1.0,44,0.00,,---,0.00,VWS V14.01,2013-08-27 01:55:00,
2013-08-26 20:56:00,89.7,64.9,30.00,SSE,165,2.0,2.0,44,0.00,,---,0.00,VWS V14.01,2013-08-27 01:56:00,
2013-08-26 20:57:00,89.3,65.2,30.00,SSE,165,0.0,1.0,45,0.00,,---,0.00,VWS V14.01,2013-08-27 01:57:00,
2013-08-26 20:58:00,89.6,65.5,30.00,SSE,165,0.0,2.0,45,0.00,,---,0.00,VWS V14.01,2013-08-27 01:58:00,
2013-08-26 20:59:00,89.6,64.8,30.00,SSE,165,0.0,2.0,44,0.00,,---,0.00,VWS V14.01,2013-08-27 01:59:00,
2013-08-26 21:00:00,89.5,65.4,30.00,SSE,165,0.0,2.0,45,0.00,,---,0.00,VWS V14.01,2013-08-27 02:00:00,
2013-08-26 21:02:00,89.1,65.0,30.00,SSE,166,0.0,2.0,45,0.00,,---,0.00,VWS V14.01,2013-08-27 02:02:00,
2013-08-26 21:03:00,89.3,65.2,30.00,SSE,165,0.0,1.0,45,0.00,,---,0.00,VWS V14.01,2013-08-27 02:03:00,
2013-08-26 21:04:00,89.3,65.2,30.00,SSE,165,0.0,0.0,45,0.00,,---,0.00,VWS V14.01,2013-08-27 02:04:00,
2013-08-26 21:05:00,89.2,65.1,30.00,SSE,165,1.0,1.0,45,0.00,,---,0.00,VWS V14.01,2013-08-27 02:05:00,
2013-08-26 21:06:00,89.2,65.1,30.00,SSE,165,0.0,1.0,45,0.00,,---,0.00,VWS V14.01,2013-08-27 02:06:00,
2013-08-26 21:07:00,88.9,64.8,30.00,SSE,165,0.0,3.0,45,0.00,,---,0.00,VWS V14.01,2013-08-27 02:07:00,
2013-08-26 21:08:00,89.1,65.0,30.00,SSE,166,0.0,1.0,45,0.00,,---,0.00,VWS V14.01,2013-08-27 02:08:00,
2013-08-26 21:09:00,89.1,65.0,30.00,SSE,166,0.0,2.0,45,0.00,,---,0.00,VWS V14.01,2013-08-27 02:09:00,
2013-08-26 21:10:00,89.0,64.9,30.00,SSE,166,0.0,2.0,45,0.00,,---,0.00,VWS V14.01,2013-08-27 02:10:00,
2013-08-26 21:11:00,89.0,64.9,30.00,SSE,166,0.0,2.0,45,0.00,,---,0.00,VWS V14.01,2013-08-27 02:11:00,
2013-08-26 21:12:00,88.7,64.7,30.00,SSE,165,0.0,0.0,45,0.00,,---,0.00,VWS V14.01,2013-08-27 02:12:00,
2013-08-26 21:13:00,88.9,64.8,30.00,SSE,165,0.0,3.0,45,0.00,,---,0.00,VWS V14.01,2013-08-27 02:13:00,
2013-08-26 21:14:00,88.8,64.7,30.00,SSE,165,0.0,3.0,45,0.00,,---,0.00,VWS V14.01,2013-08-27 02:14:00,
2013-08-26 21:15:00,88.8,64.7,30.00,SSE,165,0.0,3.0,45,0.00,,---,0.00,VWS V14.01,2013-08-27 02:15:00,
2013-08-26 21:17:00,88.6,64.6,30.00,SSE,165,0.0,1.0,45,0.00,,---,0.00,VWS V14.01,2013-08-27 02:17:00,
2013-08-26 21:18:00,88.7,64.7,30.00,SSE,165,0.0,0.0,45,0.00,,---,0.00,VWS V14.01,2013-08-27 02:18:00,
2013-08-26 21:19:00,88.7,64.7,30.00,SSE,165,0.0,0.0,45,0.00,,---,0.00,VWS V14.01,2013-08-27 02:19:00,
2013-08-26 21:20:00,88.6,64.6,30.00,SSE,165,0.0,0.0,45,0.00,,---,0.00,VWS V14.01,2013-08-27 02:20:00,
2013-08-26 21:21:00,88.6,64.6,30.00,SSE,165,0.0,0.0,45,0.00,,---,0.00,VWS V14.01,2013-08-27 02:21:00,
2013-08-26 21:22:00,88.6,64.6,30.00,SSE,165,0.0,1.0,45,0.00,,---,0.00,VWS V14.01,2013-08-27 02:22:00,
2013-08-26 21:23:00,88.4,64.4,30.01,SSE,165,0.0,0.0,45,0.00,,---,0.00,VWS V14.01,2013-08-27 02:23:00,
2013-08-26 21:24:00,88.5,64.5,30.00,SSE,165,0.0,1.0,45,0.00,,---,0.00,VWS V14.01,2013-08-27 02:24:00,
2013-08-26 21:25:00,88.5,64.5,30.00,SSE,165,0.0,1.0,45,0.00,,---,0.00,VWS V14.01,2013-08-27 02:25:00,
2013-08-26 21:26:00,88.5,64.5,30.00,SSE,165,0.0,1.0,45,0.00,,---,0.00,VWS V14.01,2013-08-27 02:26:00,
2013-08-26 21:27:00,88.4,64.4,30.00,SSE,165,0.0,0.0,45,0.00,,---,0.00,VWS V14.01,2013-08-27 02:27:00,
2013-08-26 21:28:00,88.3,64.9,30.01,SSE,165,0.0,1.0,46,0.00,,---,0.00,VWS V14.01,2013-08-27 02:28:00,
2013-08-26 21:29:00,88.4,64.4,30.01,SSE,165,0.0,0.0,45,0.00,,---,0.00,VWS V14.01,2013-08-27 02:29:00,
2013-08-26 21:30:00,88.4,64.4,30.00,SSE,165,0.0,0.0,45,0.00,,---,0.00,VWS V14.01,2013-08-27 02:30:00,
2013-08-26 21:33:00,88.1,64.7,30.01,SSE,165,0.0,0.0,46,0.00,,---,0.00,VWS V14.01,2013-08-27 02:33:00,
2013-08-26 21:34:00,88.2,64.8,30.01,SSE,165,0.0,1.0,46,0.00,,---,0.00,VWS V14.01,2013-08-27 02:34:00,
2013-08-26 21:36:00,88.2,64.8,30.01,SSE,165,0.0,1.0,46,0.00,,---,0.00,VWS V14.01,2013-08-27 02:36:00,
2013-08-26 21:38:00,87.9,65.2,30.01,SSE,158,3.0,7.0,47,0.00,,---,0.00,VWS V14.01,2013-08-27 02:38:00,
2013-08-26 21:39:00,88.1,64.7,30.01,SSE,165,0.0,0.0,46,0.00,,---,0.00,VWS V14.01,2013-08-27 02:39:00,
2013-08-26 21:41:00,88.0,64.7,30.01,SE,132,2.0,7.0,46,0.00,,---,0.00,VWS V14.01,2013-08-27 02:41:00,
2013-08-26 21:42:00,88.0,64.7,30.01,SSE,163,3.0,7.0,46,0.00,,---,0.00,VWS V14.01,2013-08-27 02:42:00,
2013-08-26 21:43:00,87.9,65.8,30.01,SSE,150,0.0,6.0,48,0.00,,---,0.00,VWS V14.01,2013-08-27 02:43:00,
2013-08-26 21:44:00,87.9,65.2,30.01,SSE,162,6.0,7.0,47,0.00,,---,0.00,VWS V14.01,2013-08-27 02:44:00,
2013-08-26 21:45:00,87.9,65.2,30.01,SSE,155,0.0,7.0,47,0.00,,---,0.00,VWS V14.01,2013-08-27 02:45:00,
2013-08-26 21:46:00,87.9,65.8,30.01,SSE,160,4.0,7.0,48,0.00,,---,0.00,VWS V14.01,2013-08-27 02:46:00,
2013-08-26 21:47:00,87.9,65.8,30.01,SSE,150,4.0,6.0,48,0.00,,---,0.00,VWS V14.01,2013-08-27 02:47:00,
2013-08-26 21:48:00,87.7,66.2,30.01,South,169,7.0,7.0,49,0.00,,---,0.00,VWS V14.01,2013-08-27 02:48:00,
2013-08-26 21:49:00,87.9,65.8,30.01,SSE,150,0.0,6.0,48,0.00,,---,0.00,VWS V14.01,2013-08-27 02:49:00,
2013-08-26 21:50:00,87.8,66.3,30.01,South,169,3.0,6.0,49,0.00,,---,0.00,VWS V14.01,2013-08-27 02:50:00,
2013-08-26 21:51:00,87.8,66.3,30.01,SSE,164,2.0,6.0,49,0.00,,---,0.00,VWS V14.01,2013-08-27 02:51:00,
2013-08-26 21:52:00,87.8,66.3,30.01,SSE,163,3.0,6.0,49,0.00,,---,0.00,VWS V14.01,2013-08-27 02:52:00,
2013-08-26 21:53:00,87.4,68.2,30.02,SSE,165,13.0,13.0,53,0.00,,---,0.00,VWS V14.01,2013-08-27 02:53:00,
2013-08-26 21:54:00,87.7,66.2,30.01,South,170,5.0,7.0,49,0.00,,---,0.00,VWS V14.01,2013-08-27 02:54:00,
2013-08-26 21:55:00,87.6,67.8,30.02,South,170,6.0,8.0,52,0.00,,---,0.00,VWS V14.01,2013-08-27 02:55:00,
2013-08-26 21:58:00,86.8,69.2,30.02,South,179,4.0,13.0,56,0.00,,---,0.00,VWS V14.01,2013-08-27 02:58:00,
2013-08-26 21:59:00,87.4,68.2,30.02,SSE,163,4.0,13.0,53,0.00,,---,0.00,VWS V14.01,2013-08-27 02:59:00,
2013-08-26 22:00:00,87.2,68.5,30.02,South,170,6.0,13.0,54,0.00,,---,0.00,VWS V14.01,2013-08-27 03:00:00,
2013-08-26 22:01:00,87.1,69.0,30.02,South,170,5.0,13.0,55,0.00,,---,0.00,VWS V14.01,2013-08-27 03:01:00,
2013-08-26 22:03:00,86.3,69.3,30.02,SSE,165,6.0,7.0,57,0.00,,---,0.00,VWS V14.01,2013-08-27 03:03:00,
2013-08-26 22:05:00,86.7,69.1,30.02,SSE,151,3.0,9.0,56,0.00,,---,0.00,VWS V14.01,2013-08-27 03:05:00,
2013-08-26 22:06:00,86.5,69.0,30.02,SSE,157,7.0,9.0,56,0.00,,---,0.00,VWS V14.01,2013-08-27 03:06:00,
2013-08-26 22:07:00,86.5,69.0,30.02,SSE,160,3.0,9.0,56,0.00,,---,0.00,VWS V14.01,2013-08-27 03:07:00,
2013-08-26 22:08:00,85.9,69.4,30.02,SSE,167,2.0,6.0,58,0.00,,---,0.00,VWS V14.01,2013-08-27 03:08:00,
2013-08-26 22:09:00,86.3,69.3,30.02,SSE,165,2.0,7.0,57,0.00,,---,0.00,VWS V14.01,2013-08-27 03:09:00,
2013-08-26 22:10:00,86.2,69.2,30.02,SSE,167,5.0,7.0,57,0.00,,---,0.00,VWS V14.01,2013-08-27 03:10:00,
2013-08-26 22:11:00,86.1,69.1,30.02,SSE,167,2.0,7.0,57,0.00,,---,0.00,VWS V14.01,2013-08-27 03:11:00,
2013-08-26 22:12:00,86.0,69.0,30.02,SSE,166,3.0,6.0,57,0.00,,---,0.00,VWS V14.01,2013-08-27 03:12:00,
2013-08-26 22:13:00,85.5,69.6,30.02,South,169,3.0,9.0,59,0.00,,---,0.00,VWS V14.01,2013-08-27 03:13:00,
2013-08-26 22:15:00,85.7,69.2,30.02,SSE,168,2.0,6.0,58,0.00,,---,0.00,VWS V14.01,2013-08-27 03:15:00,
2013-08-26 22:16:00,85.7,69.2,30.02,South,169,6.0,6.0,58,0.00,,---,0.00,VWS V14.01,2013-08-27 03:16:00,
2013-08-26 22:17:00,85.6,69.1,30.02,South,169,2.0,9.0,58,0.00,,---,0.00,VWS V14.01,2013-08-27 03:17:00,
2013-08-26 22:18:00,85.1,69.2,30.02,South,171,3.0,9.0,59,0.00,,---,0.00,VWS V14.01,2013-08-27 03:18:00,
2013-08-26 22:20:00,85.4,69.4,30.02,South,169,3.0,9.0,59,0.00,,---,0.00,VWS V14.01,2013-08-27 03:20:00,
2013-08-26 22:21:00,85.3,69.4,30.02,South,173,5.0,9.0,59,0.00,,---,0.00,VWS V14.01,2013-08-27 03:21:00,
2013-08-26 22:22:00,85.2,69.3,30.02,South,173,2.0,9.0,59,0.00,,---,0.00,VWS V14.01,2013-08-27 03:22:00,
2013-08-26 22:23:00,84.8,69.4,30.02,South,171,0.0,4.0,60,0.00,,---,0.00,VWS V14.01,2013-08-27 03:23:00,
2013-08-26 22:24:00,85.1,69.2,30.02,South,171,1.0,9.0,59,0.00,,---,0.00,VWS V14.01,2013-08-27 03:24:00,
2013-08-26 22:25:00,85.0,69.6,30.02,South,171,4.0,9.0,60,0.00,,---,0.00,VWS V14.01,2013-08-27 03:25:00,
2013-08-26 22:27:00,84.9,69.5,30.02,South,171,0.0,5.0,60,0.00,,---,0.00,VWS V14.01,2013-08-27 03:27:00,
2013-08-26 22:28:00,84.5,69.1,30.02,South,173,2.0,6.0,60,0.00,,---,0.00,VWS V14.01,2013-08-27 03:28:00,
2013-08-26 22:31:00,84.6,69.2,30.02,South,171,1.0,5.0,60,0.00,,---,0.00,VWS V14.01,2013-08-27 03:31:00,
2013-08-26 22:32:00,84.6,69.2,30.02,South,172,2.0,6.0,60,0.00,,---,0.00,VWS V14.01,2013-08-27 03:32:00,
2013-08-26 22:33:00,84.3,69.4,30.02,South,173,0.0,4.0,61,0.00,,---,0.00,VWS V14.01,2013-08-27 03:33:00,
2013-08-26 22:34:00,84.5,69.1,30.02,South,173,0.0,6.0,60,0.00,,---,0.00,VWS V14.01,2013-08-27 03:34:00,
2013-08-26 22:35:00,84.4,69.5,30.02,South,173,0.0,6.0,61,0.00,,---,0.00,VWS V14.01,2013-08-27 03:35:00,
2013-08-26 22:37:00,84.3,69.4,30.02,South,173,4.0,5.0,61,0.00,,---,0.00,VWS V14.01,2013-08-27 03:37:00,
2013-08-26 22:38:00,84.0,69.1,30.02,South,173,0.0,2.0,61,0.00,,---,0.00,VWS V14.01,2013-08-27 03:38:00,
2013-08-26 22:39:00,84.3,69.4,30.02,South,173,0.0,4.0,61,0.00,,---,0.00,VWS V14.01,2013-08-27 03:39:00,
2013-08-26 22:40:00,84.2,69.3,30.02,South,173,2.0,4.0,61,0.00,,---,0.00,VWS V14.01,2013-08-27 03:40:00,
2013-08-26 22:43:00,83.8,69.4,30.03,South,173,0.0,3.0,62,0.00,,---,0.00,VWS V14.01,2013-08-27 03:43:00,
2013-08-26 22:44:00,84.0,69.1,30.02,South,173,0.0,2.0,61,0.00,,---,0.00,VWS V14.01,2013-08-27 03:44:00,
2013-08-26 22:45:00,84.0,69.6,30.02,South,171,0.0,3.0,62,0.00,,---,0.00,VWS V14.01,2013-08-27 03:45:00,
2013-08-26 22:46:00,83.9,69.5,30.02,South,171,0.0,3.0,62,0.00,,---,0.00,VWS V14.01,2013-08-27 03:46:00,
2013-08-26 22:47:00,83.9,69.5,30.02,South,173,0.0,3.0,62,0.00,,---,0.00,VWS V14.01,2013-08-27 03:47:00,
2013-08-26 22:48:00,83.6,69.7,30.02,South,173,0.0,1.0,63,0.00,,---,0.00,VWS V14.01,2013-08-27 03:48:00,
2013-08-26 22:49:00,83.8,69.4,30.03,South,173,0.0,3.0,62,0.00,,---,0.00,VWS V14.01,2013-08-27 03:49:00,
2013-08-26 22:50:00,83.8,69.4,30.03,South,173,0.0,3.0,62,0.00,,---,0.00,VWS V14.01,2013-08-27 03:50:00,
2013-08-26 22:51:00,83.7,69.3,30.03,South,173,0.0,3.0,62,0.00,,---,0.00,VWS V14.01,2013-08-27 03:51:00,
2013-08-26 22:52:00,83.7,69.3,30.03,South,173,0.0,1.0,62,0.00,,---,0.00,VWS V14.01,2013-08-27 03:52:00,
2013-08-26 22:53:00,83.3,69.4,30.02,South,173,0.0,5.0,63,0.00,,---,0.00,VWS V14.01,2013-08-27 03:53:00,
2013-08-26 22:54:00,83.6,69.7,30.02,South,173,1.0,1.0,63,0.00,,---,0.00,VWS V14.01,2013-08-27 03:54:00,
2013-08-26 22:55:00,83.5,69.6,30.03,South,173,0.0,1.0,63,0.00,,---,0.00,VWS V14.01,2013-08-27 03:55:00,
2013-08-26 22:56:00,83.5,69.6,30.02,South,173,0.0,5.0,63,0.00,,---,0.00,VWS V14.01,2013-08-27 03:56:00,
2013-08-26 22:57:00,83.4,69.5,30.02,South,173,0.0,5.0,63,0.00,,---,0.00,VWS V14.01,2013-08-27 03:57:00,
2013-08-26 22:58:00,83.1,69.7,30.02,South,169,1.0,6.0,64,0.00,,---,0.00,VWS V14.01,2013-08-27 03:58:00,
2013-08-26 22:59:00,83.3,69.4,30.02,South,173,0.0,5.0,63,0.00,,---,0.00,VWS V14.01,2013-08-27 03:59:00,
2013-08-26 23:00:00,83.3,69.4,30.02,South,173,3.0,5.0,63,0.00,,---,0.00,VWS V14.01,2013-08-27 04:00:00,
2013-08-26 23:01:00,83.0,69.6,30.02,South,173,5.0,6.0,64,0.00,,---,0.00,VWS V14.01,2013-08-27 04:01:00,
2013-08-26 23:02:00,83.2,69.8,30.02,South,171,3.0,6.0,64,0.00,,---,0.00,VWS V14.01,2013-08-27 04:02:00,
2013-08-26 23:03:00,83.1,69.7,30.02,SSE,168,2.0,6.0,64,0.00,,---,0.00,VWS V14.01,2013-08-27 04:03:00,
2013-08-26 23:05:00,83.0,69.6,30.02,South,169,0.0,6.0,64,0.00,,---,0.00,VWS V14.01,2013-08-27 04:05:00,
2013-08-26 23:06:00,82.7,69.8,30.02,South,172,0.0,4.0,65,0.00,,---,0.00,VWS V14.01,2013-08-27 04:06:00,
2013-08-26 23:11:00,82.6,69.7,30.02,South,172,3.0,4.0,65,0.00,,---,0.00,VWS V14.01,2013-08-27 04:11:00,
2013-08-26 23:13:00,82.8,69.8,30.02,South,172,0.0,4.0,65,0.00,,---,0.00,VWS V14.01,2013-08-27 04:13:00,
2013-08-26 23:14:00,82.7,69.8,30.02,South,172,0.0,3.0,65,0.00,,---,0.00,VWS V14.01,2013-08-27 04:14:00,
2013-08-26 23:15:00,82.7,69.8,30.02,South,172,3.0,4.0,65,0.00,,---,0.00,VWS V14.01,2013-08-27 04:15:00,
2013-08-26 23:16:00,82.5,69.6,30.02,South,170,1.0,4.0,65,0.00,,---,0.00,VWS V14.01,2013-08-27 04:16:00,
2013-08-26 23:17:00,82.7,69.8,30.02,South,173,1.0,4.0,65,0.00,,---,0.00,VWS V14.01,2013-08-27 04:17:00,
2013-08-26 23:18:00,82.6,69.7,30.02,South,172,0.0,4.0,65,0.00,,---,0.00,VWS V14.01,2013-08-27 04:18:00,
2013-08-26 23:19:00,82.6,69.7,30.03,South,172,0.0,4.0,65,0.00,,---,0.00,VWS V14.01,2013-08-27 04:19:00,
2013-08-26 23:20:00,82.6,69.7,30.02,South,169,0.0,4.0,65,0.00,,---,0.00,VWS V14.01,2013-08-27 04:20:00,
2013-08-26 23:21:00,82.4,69.9,30.02,South,169,2.0,6.0,66,0.00,,---,0.00,VWS V14.01,2013-08-27 04:21:00,
2013-08-26 23:22:00,82.6,69.7,30.02,South,170,0.0,4.0,65,0.00,,---,0.00,VWS V14.01,2013-08-27 04:22:00,
2013-08-26 23:23:00,82.5,69.6,30.02,South,170,0.0,4.0,65,0.00,,---,0.00,VWS V14.01,2013-08-27 04:23:00,
2013-08-26 23:24:00,82.5,69.6,30.02,South,170,0.0,4.0,65,0.00,,---,0.00,VWS V14.01,2013-08-27 04:24:00,
2013-08-26 23:25:00,82.5,69.6,30.02,South,170,0.0,4.0,65,0.00,,---,0.00,VWS V14.01,2013-08-27 04:25:00,
2013-08-26 23:26:00,82.3,69.8,30.02,SSE,168,0.0,3.0,66,0.00,,---,0.00,VWS V14.01,2013-08-27 04:26:00,
2013-08-26 23:27:00,82.4,69.5,30.02,South,169,4.0,6.0,65,0.00,,---,0.00,VWS V14.01,2013-08-27 04:27:00,
2013-08-26 23:30:00,82.4,69.9,30.02,South,169,0.0,6.0,66,0.00,,---,0.00,VWS V14.01,2013-08-27 04:30:00,
2013-08-26 23:31:00,82.4,69.9,30.02,SSE,168,0.0,6.0,66,0.00,,---,0.00,VWS V14.01,2013-08-27 04:31:00,
2013-08-26 23:32:00,82.2,69.7,30.02,South,169,1.0,5.0,66,0.00,,---,0.00,VWS V14.01,2013-08-27 04:32:00,
2013-08-26 23:35:00,82.3,69.8,30.02,SSE,168,0.0,3.0,66,0.00,,---,0.00,VWS V14.01,2013-08-27 04:35:00,
2013-08-26 23:37:00,82.1,69.6,30.02,South,169,0.0,1.0,66,0.00,,---,0.00,VWS V14.01,2013-08-27 04:37:00,
2013-08-26 23:38:00,82.2,69.7,30.02,South,169,1.0,5.0,66,0.00,,---,0.00,VWS V14.01,2013-08-27 04:38:00,
2013-08-26 23:39:00,82.2,69.7,30.02,South,169,0.0,5.0,66,0.00,,---,0.00,VWS V14.01,2013-08-27 04:39:00,
2013-08-26 23:41:00,82.1,69.6,30.02,South,169,0.0,5.0,66,0.00,,---,0.00,VWS V14.01,2013-08-27 04:41:00,
2013-08-26 23:42:00,82.0,70.0,30.02,South,169,0.0,2.0,67,0.00,,---,0.00,VWS V14.01,2013-08-27 04:42:00,
2013-08-26 23:43:00,82.1,69.6,30.02,South,169,0.0,1.0,66,0.00,,---,0.00,VWS V14.01,2013-08-27 04:43:00,
2013-08-26 23:44:00,82.0,69.5,30.02,South,169,0.0,1.0,66,0.00,,---,0.00,VWS V14.01,2013-08-27 04:44:00,
2013-08-26 23:47:00,81.8,69.8,30.02,South,172,0.0,5.0,67,0.00,,---,0.00,VWS V14.01,2013-08-27 04:47:00,
2013-08-26 23:50:00,81.9,69.9,30.02,South,172,0.0,5.0,67,0.00,,---,0.00,VWS V14.01,2013-08-27 04:50:00,
2013-08-26 23:51:00,81.9,69.9,30.02,South,172,0.0,5.0,67,0.00,,---,0.00,VWS V14.01,2013-08-27 04:51:00,
2013-08-26 23:52:00,81.8,69.8,30.02,South,172,0.0,1.0,67,0.00,,---,0.00,VWS V14.01,2013-08-27 04:52:00,
2013-08-26 23:53:00,81.8,69.8,30.02,South,172,0.0,5.0,67,0.00,,---,0.00,VWS V14.01,2013-08-27 04:53:00,
2013-08-26 23:55:00,81.8,69.8,30.03,South,172,0.0,3.0,67,0.00,,---,0.00,VWS V14.01,2013-08-27 04:55:00,
2013-08-26 23:56:00,81.8,69.8,30.02,South,171,0.0,3.0,67,0.00,,---,0.00,VWS V14.01,2013-08-27 04:56:00,
2013-08-26 23:57:00,81.7,69.7,30.02,South,173,1.0,4.0,67,0.00,,---,0.00,VWS V14.01,2013-08-27 04:57:00,
2013-08-26 23:59:00,81.8,69.8,30.02,South,172,0.0,2.0,67,0.00,,---,0.00,VWS V14.01,2013-08-27 04:59:00,